[[{"header":{"parameterUnit":"m.s-1","parameterCategory":1,"la1":31.0,"la2":29.5877,"lo1":-88.7671,"lo2":-86.6584,"dy":0.0162,"dx":0.0185,"nx":115,"ny":88,"refTime":"2025-04-08T00:00:00:Z","depth":0,"parameterNumber":2,"parameterNumberName":"U-component_of_WINDS"},"data":[0.0,0.0,0.0,0.0,0.0,0.0,0.0,0.0,0.0,0.0,0.0,0.0,0.0,0.0,0.0,0.0,0.0,0.0,0.0,0.0,0.0,0.0,0.0,0.0,0.0,0.0,0.0,0.0,0.0,0.0,0.0,0.0,0.0,0.0,0.0,0.0,0.0,0.0,0.0,0.0,0.0,0.0,0.0,0.0,0.0,0.0,0.0,0.0,0.0,0.0,0.0,0.0,0.0,0.0,0.0,0.0,0.0,0.0,0.0,0.0,0.0,0.0,0.0,0.0,0.0,0.0,0.0,0.0,0.0,0.0,0.0,0.0,0.0,0.0,0.0,0.0,0.0,0.0,0.0,0.0,0.0,0.0,0.0,0.0,0.0,0.0,0.0,0.0,0.0,0.0,0.0,0.0,0.0,0.0,0.0,0.0,0.0,0.0,0.0,0.0,0.0,0.0,0.0,0.0,0.0,0.0,0.0,0.0,0.0,0.0,0.0,0.0,0.0,0.0,0.0,0.0,0.0,0.0,0.0,0.0,0.0,0.0,0.0,0.0,0.0,0.0,0.0,0.0,0.0,0.0,0.0,0.0,0.0,0.0,0.0,0.0,0.0,0.0,0.0,0.0,0.0,0.0,0.0,0.0,0.0,0.0,0.0,0.0,0.0,0.0,0.0,0.0,0.0,0.0,0.0,0.0,0.0,0.0,0.0,0.0,0.0,0.0,0.0,0.0,0.0,0.0,0.0,0.0,0.0,0.0,0.0,0.0,0.0,0.0,0.0,0.0,0.0,0.0,0.0,0.0,0.0,0.0,0.0,0.0,0.0,0.0,0.0,0.0,0.0,0.0,0.0,0.0,0.0,0.0,0.0,0.0,0.0,0.0,0.0,0.0,0.0,0.0,0.0,0.0,0.0,0.0,0.0,0.0,0.0,0.0,0.0,0.0,0.0,0.0,0.0,0.0,0.0,0.0,0.0,0.0,0.0,0.0,0.0,0.0,0.0,0.0,0.0,0.0,0.0,0.0,0.0,0.0,0.0,0.0,0.0,0.0,0.0,0.0,0.0,0.0,0.0,0.0,0.0,0.0,0.0,0.0,0.0,0.0,0.0,0.0,0.0,0.0,0.0,0.0,0.0,0.0,0.0,0.0,0.0,0.0,0.0,0.0,0.0,0.0,0.0,0.0,0.0,0.0,0.0,0.0,0.0,0.0,0.0,0.0,0.0,0.0,0.0,0.0,0.0,0.0,0.0,0.0,0.0,0.0,0.0,0.0,0.0,0.0,0.0,0.0,0.0,0.0,0.0,0.0,0.0,0.0,0.0,0.0,0.0,0.0,0.0,0.0,0.0,0.0,0.0,0.0,0.0,0.0,0.0,0.0,0.0,0.0,0.0,0.0,0.0,0.0,0.0,0.0,0.0,0.0,0.0,0.0,0.0,0.0,0.0,0.0,0.0,0.0,0.0,0.0,0.0,0.0,0.0,0.0,0.0,0.0,0.0,0.0,0.0,0.0,0.0,0.0,0.0,0.0,0.0,0.0,0.0,0.0,0.0,0.0,0.0,0.0,0.0,0.0,0.0,0.0,0.0,0.0,0.0,0.0,0.0,0.0,0.0,0.0,0.0,0.0,0.0,0.0,0.0,0.0,0.0,0.0,0.0,0.0,0.0,0.0,0.0,0.0,0.0,0.0,0.0,0.0,0.0,0.0,0.0,0.0,0.0,0.0,0.0,0.0,0.0,0.0,0.0,0.0,0.0,0.0,0.0,0.0,0.0,0.0,0.0,0.0,0.0,0.0,0.0,0.0,0.0,0.0,0.0,0.0,0.0,0.0,0.0,0.0,0.0,0.0,0.0,0.0,0.0,0.0,0.0,0.0,0.0,0.0,0.0,0.0,0.0,0.0,0.0,0.0,0.0,0.0,0.0,0.0,0.0,0.0,0.0,0.0,0.0,0.0,0.0,0.0,0.0,0.0,0.0,0.0,0.0,0.0,0.0,0.0,0.0,0.0,0.0,0.0,0.0,0.0,0.0,0.0,0.0,0.0,0.0,0.0,0.0,0.0,0.0,0.0,0.0,0.0,0.0,0.0,0.0,0.0,0.0,0.0,0.0,0.0,0.0,0.0,0.0,0.0,0.0,0.0,0.0,0.0,0.0,0.0,0.0,0.0,0.0,0.0,0.0,0.0,0.0,0.0,0.0,0.0,0.0,0.0,0.0,0.0,0.0,0.0,0.0,0.0,0.0,0.0,0.0,0.0,0.0,0.0,0.0,0.0,0.0,0.0,0.0,0.0,0.0,0.0,0.0,0.0,0.0,0.0,0.0,0.0,0.0,0.0,0.0,0.0,0.0,0.0,0.0,0.0,0.0,0.0,0.0,0.0,0.0,0.0,0.0,0.0,0.0,0.0,0.0,0.0,0.0,0.0,0.0,0.0,0.0,0.0,0.0,0.0,0.0,0.0,0.0,0.0,0.0,0.0,0.0,0.0,0.0,0.0,0.0,0.0,0.0,0.0,0.0,0.0,0.0,0.0,0.0,0.0,0.0,0.0,0.0,0.0,0.0,0.0,0.0,0.0,0.0,0.0,0.0,0.0,0.0,0.0,0.0,0.0,0.0,0.0,0.0,0.0,0.0,0.0,0.0,0.0,0.0,0.0,0.0,0.0,0.0,0.0,0.0,0.0,0.0,0.0,0.0,0.0,0.0,0.0,0.0,0.0,0.0,0.0,0.0,0.0,0.0,0.0,0.0,0.0,0.0,0.0,0.0,0.0,0.0,0.0,0.0,0.0,0.0,0.0,0.0,0.0,0.0,0.0,0.0,0.0,0.0,0.0,0.0,0.0,0.0,0.0,0.0,0.0,0.0,0.0,0.0,0.0,0.0,0.0,0.0,0.0,0.0,0.0,0.0,0.0,0.0,0.0,0.0,0.0,0.0,0.0,0.0,0.0,0.0,0.0,0.0,0.0,0.0,0.0,0.0,0.0,0.0,0.0,0.0,0.0,0.0,0.0,0.0,0.0,0.0,0.0,0.0,0.0,0.0,0.0,0.0,0.0,0.0,0.0,0.0,0.0,0.0,0.0,0.0,0.0,0.0,0.0,0.0,0.0,0.0,0.0,0.0,0.0,0.0,0.0,0.0,0.0,0.0,0.0,0.0,0.0,0.0,0.0,0.0,0.0,0.0,0.0,0.0,0.0,0.0,0.0,0.0,0.0,0.0,0.0,0.0,0.0,0.0,0.0,0.0,0.0,0.0,0.0,0.0,0.0,0.0,0.0,0.0,0.0,0.0,0.0,0.0,0.0,0.0,0.0,0.0,0.0,0.0,0.0,0.0,0.0,0.0,0.0,0.0,0.0,0.0,0.0,0.0,0.0,0.0,0.0,0.0,0.0,0.0,0.0,0.0,0.0,0.0,0.0,0.0,0.0,0.0,0.0,0.0,0.0,0.0,0.0,0.0,0.0,0.0,0.0,0.0,0.0,0.0,0.0,0.0,0.0,0.0,0.0,0.0,0.0,0.0,0.0,0.0,0.0,0.0,0.0,0.0,0.0,0.0,0.0,0.0,0.0,0.0,0.0,0.0,0.0,0.0,0.0,0.0,0.0,0.0,0.0,0.0,0.0,0.0,0.0,0.0,0.0,0.0,0.0,0.0,0.0,0.0,0.0,0.0,0.0,0.0,0.0,0.0,0.0,0.0,0.0,0.0,0.0,0.0,0.0,0.0,0.0,0.0,0.0,0.0,0.0,0.0,0.0,0.0,0.0,0.0,0.0,0.0,0.0,0.0,0.0,0.0,0.0,0.0,0.0,0.0,0.0,0.0,0.0,0.0,0.0,0.0,0.0,0.0,0.0,0.0,0.0,0.0,0.0,0.0,0.0,0.0,0.0,0.0,0.0,0.0,0.0,0.0,0.0,0.0,0.0,0.0,0.0,0.0,0.0,0.0,0.0,0.0,0.0,0.0,0.0,0.0,0.0,0.0,0.0,0.0,0.0,0.0,0.0,0.0,0.0,0.0,0.0,0.0,0.0,0.0,0.0,0.0,0.0,0.0,0.0,0.0,0.0,0.0,0.0,0.0,0.0,0.0,0.0,0.0,0.0,0.0,0.0,0.0,0.0,0.0,0.0,0.0,0.0,0.0,0.0,0.0,0.0,0.0,0.0,0.0,0.0,0.0,0.0,0.0,0.0,0.0,0.0,0.0,0.0,0.0,0.0,0.0,0.0,0.0,0.0,0.0,0.0,0.0,0.0,0.0,0.0,0.0,0.0,0.0,0.0,0.0,0.0,1.1445,0.0,0.0,0.0,0.0,0.0,0.0,0.0,0.0,0.0,0.0,0.0,0.0,0.0,0.0,0.0,0.0,0.0,0.0,0.0,0.0,0.0,0.0,0.0,0.0,0.0,0.0,0.0,0.0,0.0,0.0,0.0,0.0,0.0,0.0,0.0,0.0,0.0,0.0,0.0,0.0,0.0,0.0,0.0,0.0,0.0,0.0,0.0,0.0,0.0,0.0,0.0,0.0,0.0,0.0,0.0,0.0,0.0,0.0,0.0,0.0,0.0,0.0,0.0,0.0,0.0,0.0,0.0,0.0,0.0,0.0,0.0,0.0,0.0,0.0,0.0,0.0,0.0,0.0,0.0,0.0,0.0,0.0,0.0,0.0,0.0,0.0,0.0,0.0,0.0,0.0,0.0,0.0,0.0,0.0,0.0,0.0,0.0,0.0,0.0,0.0,0.0,0.0,0.0,0.0,0.0,0.0,0.0,0.0,0.0,0.0,1.5003,1.4613,1.3368,1.2719,1.2748,0.0,0.0,0.0,0.0,0.0,0.0,0.0,0.0,0.0,0.0,0.0,0.0,0.0,0.0,0.0,0.0,0.0,0.0,0.0,0.0,0.0,0.0,0.0,0.0,0.0,0.0,0.0,0.0,0.0,0.0,0.0,0.0,0.0,0.0,0.0,0.0,0.0,0.0,0.0,0.0,0.0,0.0,0.0,0.0,0.0,0.0,0.0,0.0,0.0,0.0,0.0,0.0,0.0,0.0,0.0,0.0,0.0,0.0,0.0,0.0,0.0,0.0,0.0,0.0,0.0,0.0,0.0,0.0,0.0,0.0,0.0,0.0,0.0,0.0,0.0,0.0,0.0,0.0,0.0,0.0,0.0,0.0,0.0,0.0,0.0,0.0,0.0,0.0,0.0,0.0,0.0,0.0,0.0,0.0,0.0,0.0,0.0,0.0,0.0,0.0,0.0,0.0,0.0,0.0,0.0,0.0,0.0,0.0,0.0,0.0,0.0,0.0,1.4335,1.3819,1.4411,0.0,0.0,0.0,0.0,0.0,0.0,0.0,0.0,0.0,0.0,0.0,0.0,0.0,0.0,0.0,0.0,0.0,0.0,0.0,0.0,0.0,0.0,0.0,0.0,0.0,0.0,0.0,0.0,0.0,0.0,0.0,0.0,0.0,0.0,0.0,0.0,0.0,0.0,0.0,0.0,0.0,0.0,0.0,0.0,0.0,0.0,0.0,0.0,0.0,0.0,0.0,0.0,0.0,0.0,0.0,0.0,0.0,0.0,0.0,0.0,0.0,0.0,0.0,0.0,0.0,0.0,0.0,0.0,0.0,0.0,0.0,0.0,0.0,0.0,0.0,0.0,0.0,0.0,0.0,0.0,0.0,0.0,0.0,0.0,0.0,0.0,0.0,0.0,0.0,0.0,0.0,0.0,0.0,0.0,0.0,0.0,0.0,0.0,0.0,0.0,0.0,0.0,0.0,0.0,0.0,0.0,0.0,0.0,0.0,0.0,1.5926,1.7407,1.6599,0.0,1.6071,0.0,0.0,0.0,0.0,0.0,0.0,0.0,0.0,0.0,0.0,0.0,0.0,0.0,0.0,0.0,0.0,0.0,0.0,0.0,0.0,0.0,0.0,0.0,0.0,0.0,0.0,0.0,0.0,0.0,0.0,0.0,0.0,0.0,0.0,0.0,0.0,0.0,0.0,0.0,0.0,0.0,0.0,0.0,0.0,0.0,0.0,0.0,0.0,0.0,0.0,0.0,0.0,0.0,0.0,0.0,0.0,0.0,0.0,0.0,0.0,0.0,0.0,0.0,0.0,0.0,0.0,0.0,0.0,0.0,0.0,0.0,0.0,0.0,0.0,0.0,0.0,0.0,0.0,0.0,0.0,0.0,0.0,0.0,0.0,0.0,0.0,0.0,0.0,0.0,0.0,0.0,0.0,0.0,0.0,0.0,0.0,0.0,0.0,0.0,0.0,0.0,0.0,0.0,0.0,0.0,0.0,0.0,0.0,0.0,0.0,1.7003,1.7696,1.7369,1.6884,0.0,0.0,0.0,0.0,0.0,0.0,0.0,0.0,0.0,0.0,0.0,0.0,0.0,0.0,0.0,0.0,0.0,0.0,0.0,0.0,0.0,0.0,0.0,0.0,0.0,0.0,0.0,0.0,0.0,0.0,0.0,0.0,0.0,0.0,0.0,0.0,0.0,0.0,0.0,0.0,0.0,0.0,0.0,0.0,0.0,0.0,0.0,0.0,0.0,0.0,0.0,0.0,0.0,0.0,0.0,0.0,0.0,0.0,0.0,0.0,0.0,0.0,0.0,0.0,0.0,0.0,0.0,0.0,0.0,0.0,0.0,0.0,0.0,0.0,0.0,0.0,0.0,0.0,0.0,0.0,0.0,0.0,0.0,0.0,0.0,0.0,0.0,0.0,0.0,0.0,0.0,0.0,0.0,0.0,0.0,0.0,0.0,0.0,0.0,0.0,0.0,0.0,0.0,0.0,0.0,0.0,0.0,0.0,0.0,0.0,1.733,0.0,1.8321,1.8344,1.7606,1.614,0.0,0.0,0.0,0.0,0.0,0.0,0.0,0.0,0.0,0.0,0.0,0.0,0.0,0.0,0.0,0.0,0.0,0.0,0.0,0.0,0.0,0.0,0.0,0.0,0.0,0.0,0.0,0.0,0.0,0.0,0.0,0.0,0.0,0.0,0.0,0.0,0.0,0.0,0.0,0.0,0.0,0.0,0.0,0.0,0.0,0.0,0.0,0.0,0.0,0.0,0.0,0.0,0.0,0.0,0.0,0.0,0.0,0.0,0.0,0.0,0.0,0.0,0.0,0.0,0.0,0.0,0.0,0.0,0.0,0.0,0.0,0.0,0.0,0.0,0.0,0.0,0.0,0.0,0.0,0.0,0.0,0.0,0.0,0.0,0.0,0.0,0.0,0.0,0.0,0.0,0.0,0.0,0.0,0.0,0.0,0.0,0.0,0.0,0.0,0.0,0.0,0.0,0.0,0.0,0.0,0.0,0.0,0.0,0.0,1.8484,1.8428,1.9953,1.9936,1.8658,0.0,0.0,0.0,0.0,0.0,0.0,0.0,0.0,0.0,0.0,0.0,0.0,0.0,0.0,0.0,0.0,0.0,0.0,0.0,0.0,0.0,0.0,0.0,0.0,0.0,0.0,0.0,0.0,0.0,0.0,0.0,0.0,0.0,0.0,0.0,0.0,0.0,0.0,0.0,0.0,0.0,0.0,0.0,0.0,0.0,0.0,0.0,0.0,0.0,0.0,0.0,0.0,0.0,0.0,0.0,0.0,0.0,0.0,0.0,0.0,0.0,0.0,0.0,0.0,0.0,0.0,0.0,0.0,0.0,0.0,0.0,0.0,0.0,0.0,0.0,0.0,0.0,0.0,0.0,0.0,0.0,0.0,0.0,0.0,0.0,0.0,0.0,0.0,0.0,0.0,0.0,0.0,0.0,0.0,0.0,0.0,0.0,0.0,0.0,0.0,0.0,0.0,0.0,0.0,0.0,0.0,0.0,0.0,0.0,1.6984,1.7446,1.8969,2.1424,1.9106,1.7643,0.0,0.0,0.0,0.0,0.0,0.0,0.0,0.0,0.0,0.0,0.0,0.0,0.0,0.0,0.0,0.0,0.0,0.0,0.0,0.0,0.0,0.0,0.0,0.0,0.0,0.0,0.0,0.0,0.0,0.0,0.0,0.0,0.0,0.0,0.0,0.0,0.0,0.0,0.0,0.0,0.0,0.0,0.0,0.0,0.0,0.0,0.0,0.0,0.0,0.0,0.0,0.0,0.0,0.0,0.0,0.0,0.0,0.0,0.0,0.0,0.0,0.0,0.0,0.0,0.0,0.0,0.0,0.0,0.0,0.0,0.0,0.0,0.0,0.0,0.0,0.0,0.0,0.0,0.0,0.0,0.0,0.0,0.0,0.0,0.0,0.0,0.0,0.0,0.0,0.0,0.0,0.0,0.0,0.0,0.0,0.0,0.0,0.0,0.0,0.0,0.0,0.0,0.0,0.0,0.0,0.0,0.0,0.0,0.0,1.6843,0.0,2.004,0.0,1.8906,1.7206,0.0,0.0,0.0,0.0,0.0,0.0,0.0,0.0,0.0,0.0,0.0,0.0,0.0,0.0,0.0,0.0,0.0,0.0,0.0,0.0,0.0,0.0,0.0,0.0,0.0,0.0,0.0,0.0,0.0,0.0,0.0,0.0,0.0,0.0,0.0,0.0,0.0,0.0,0.0,0.0,0.0,0.0,0.0,0.0,0.0,0.0,0.0,0.0,0.0,0.0,0.0,0.0,0.0,0.0,0.0,0.0,0.0,0.0,0.0,0.0,0.0,0.0,0.0,0.0,0.0,0.0,0.0,0.0,0.0,0.0,0.0,0.0,0.0,0.0,0.0,0.0,0.0,0.0,0.0,0.0,0.0,0.0,0.0,0.0,0.0,0.0,0.0,0.0,0.0,0.0,0.0,0.0,0.0,0.0,0.0,0.0,0.0,0.0,0.0,0.0,0.0,0.0,0.0,0.0,0.0,0.0,0.0,0.0,1.6881,2.0073,2.155,2.1494,2.0012,1.9532,1.7503,0.0,0.0,0.0,0.0,0.0,0.0,0.0,0.0,0.0,0.0,0.0,0.0,0.0,0.0,0.0,0.0,0.0,0.0,0.0,0.0,0.0,0.0,0.0,0.0,0.0,0.0,0.0,0.0,0.0,0.0,0.0,0.0,0.0,0.0,0.0,0.0,0.0,0.0,0.0,0.0,0.0,0.0,0.0,0.0,0.0,0.0,0.0,0.0,0.0,0.0,0.0,0.0,0.0,0.0,0.0,0.0,0.0,0.0,0.0,0.0,0.0,0.0,0.0,0.0,0.0,0.0,0.0,0.0,0.0,0.0,0.0,0.0,0.0,0.0,0.0,0.0,0.0,0.0,0.0,0.0,0.0,0.0,0.0,0.0,0.0,0.0,0.0,0.0,0.0,0.0,0.0,0.0,0.0,0.0,0.0,0.0,0.0,0.0,0.0,0.0,0.0,0.0,0.0,0.0,0.0,0.0,0.0,0.0,0.0,1.8325,1.9793,2.079,2.1148,1.8503,1.6898,0.0,0.0,0.0,0.0,0.0,0.0,0.0,0.0,0.0,0.0,0.0,0.0,0.0,0.0,0.0,0.0,0.0,0.0,0.0,0.0,0.0,0.0,0.0,0.0,0.0,0.0,0.0,0.0,0.0,0.0,0.0,0.0,0.0,0.0,0.0,0.0,0.0,0.0,0.0,0.0,0.0,0.0,0.0,0.0,0.0,0.0,0.0,0.0,0.0,0.0,0.0,0.0,0.0,0.0,0.0,0.0,0.0,0.0,0.0,0.0,0.0,0.0,0.0,0.0,0.0,0.0,0.0,0.0,0.0,0.0,0.0,0.0,0.0,0.0,0.0,0.0,0.0,0.0,0.0,0.0,0.0,0.0,0.0,0.0,0.0,0.0,0.0,0.0,0.0,0.0,0.0,0.0,0.0,0.0,0.0,0.0,0.0,0.0,0.0,0.0,0.0,0.0,0.0,0.0,0.0,0.0,0.0,0.0,0.0,2.0234,2.1191,2.202,2.2659,1.9444,1.7754,1.7749,0.0,0.0,0.0,0.0,0.0,0.0,0.0,0.0,0.0,0.0,0.0,0.0,0.0,0.0,0.0,0.0,0.0,0.0,0.0,0.0,0.0,0.0,0.0,0.0,0.0,0.0,0.0,0.0,0.0,0.0,0.0,0.0,0.0,0.0,0.0,0.0,0.0,0.0,0.0,0.0,0.0,0.0,0.0,0.0,0.0,0.0,0.0,0.0,0.0,0.0,0.0,0.0,0.0,0.0,0.0,0.0,0.0,0.0,0.0,0.0,0.0,0.0,0.0,0.0,0.0,0.0,0.0,0.0,0.0,0.0,0.0,0.0,0.0,0.0,0.0,0.0,0.0,0.0,0.0,0.0,0.0,0.0,0.0,0.0,0.0,0.0,0.0,0.0,0.0,0.0,0.0,0.0,0.0,0.0,0.0,0.0,0.0,0.0,0.0,0.0,0.0,0.0,0.0,0.0,0.0,0.0,0.0,0.0,2.5032,2.5277,2.502,2.4203,2.2067,1.9847,0.0,0.0,0.0,0.0,0.0,0.0,0.0,0.0,0.0,0.0,0.0,0.0,0.0,0.0,0.0,0.0,0.0,0.0,0.0,0.0,0.0,0.0,0.0,0.0,0.0,0.0,0.0,0.0,0.0,0.0,0.0,0.0,0.0,0.0,0.0,0.0,0.0,0.0,0.0,0.0,0.0,0.0,0.0,0.0,0.0,0.0,0.0,0.0,0.0,0.0,0.0,0.0,0.0,0.0,0.0,0.0,0.0,0.0,0.0,0.0,0.0,0.0,0.0,0.0,0.0,0.0,0.0,0.0,0.0,0.0,0.0,0.0,0.0,0.0,0.0,0.0,0.0,0.0,0.0,0.0,0.0,0.0,0.0,0.0,0.0,0.0,0.0,0.0,0.0,0.0,0.0,0.0,0.0,0.0,0.0,0.0,0.0,0.0,0.0,0.0,0.0,0.0,0.0,0.0,0.0,0.0,0.0,0.0,0.0,2.8136,2.8829,2.8328,2.6739,2.3929,2.1638,0.0,0.0,0.0,0.0,0.0,0.0,0.0,0.0,0.0,0.0,0.0,0.0,0.0,0.0,0.0,0.0,0.0,0.0,0.0,0.0,0.0,0.0,0.0,0.0,0.0,0.0,0.0,0.0,0.0,0.0,0.0,0.0,0.0,0.0,0.0,0.0,0.0,0.0,0.0,0.0,0.0,0.0,0.0,0.0,0.0,0.0,0.0,0.0,0.0,0.0,0.0,0.0,0.0,0.0,0.0,0.0,0.0,0.0,0.0,0.0,0.0,0.0,0.0,0.0,0.0,0.0,0.0,0.0,0.0,0.0,0.0,0.0,0.0,0.0,0.0,0.0,0.0,0.0,0.0,0.0,0.0,0.0,0.0,0.0,0.0,0.0,0.0,0.0,0.0,0.0,0.0,0.0,0.0,0.0,0.0,0.0,0.0,0.0,0.0,0.0,0.0,0.0,0.0,0.0,0.0,0.0,0.0,0.0,2.6863,2.9872,3.1272,3.1388,3.011,2.6485,2.3559,0.0,0.0,0.0,0.0,0.0,0.0,0.0,0.0,0.0,0.0,0.0,0.0,0.0,0.0,0.0,0.0,0.0,0.0,0.0,0.0,0.0,0.0,0.0,0.0,0.0,0.0,0.0,0.0,0.0,0.0,0.0,0.0,0.0,0.0,0.0,0.0,0.0,0.0,0.0,0.0,0.0,0.0,0.0,0.0,0.0,0.0,0.0,0.0,0.0,0.0,0.0,0.0,0.0,0.0,0.0,0.0,0.0,0.0,0.0,0.0,0.0,0.0,0.0,0.0,0.0,0.0,0.0,0.0,0.0,0.0,0.0,0.0,0.0,0.0,0.0,0.0,0.0,0.0,0.0,0.0,0.0,0.0,0.0,0.0,0.0,0.0,0.0,0.0,0.0,0.0,0.0,0.0,0.0,0.0,0.0,0.0,0.0,0.0,0.0,0.0,0.0,0.0,0.0,0.0,0.0,0.0,0.0,0.0,2.9094,3.0815,3.3093,3.4048,3.3508,2.9279,2.5592,0.0,0.0,0.0,0.0,0.0,0.0,0.0,0.0,0.0,0.0,0.0,0.0,0.0,0.0,0.0,0.0,0.0,0.0,0.0,0.0,0.0,0.0,0.0,0.0,0.0,0.0,0.0,0.0,0.0,0.0,0.0,0.0,0.0,0.0,0.0,0.0,0.0,0.0,0.0,0.0,0.0,0.0,0.0,0.0,0.0,0.0,0.0,0.0,0.0,0.0,0.0,0.0,0.0,0.0,0.0,0.0,0.0,0.0,0.0,0.0,0.0,0.0,0.0,0.0,0.0,0.0,0.0,0.0,0.0,0.0,0.0,0.0,0.0,0.0,0.0,0.0,0.0,0.0,0.0,0.0,0.0,0.0,0.0,0.0,0.0,0.0,0.0,0.0,0.0,0.0,0.0,0.0,0.0,0.0,0.0,0.0,0.0,0.0,0.0,0.0,0.0,0.0,0.0,0.0,0.0,0.0,0.0,0.0,3.0101,3.3119,3.4567,3.5237,3.5131,3.0835,2.7368,0.0,0.0,0.0,0.0,0.0,0.0,0.0,0.0,0.0,0.0,0.0,0.0,0.0,0.0,0.0,0.0,0.0,0.0,0.0,0.0,0.0,0.0,0.0,0.0,0.0,0.0,0.0,0.0,0.0,0.0,0.0,0.0,0.0,0.0,0.0,0.0,0.0,0.0,0.0,0.0,0.0,0.0,0.0,0.0,0.0,0.0,0.0,0.0,1.992,0.0,0.0,0.0,0.0,0.0,0.0,0.0,0.0,0.0,0.0,0.0,0.0,0.0,0.0,0.0,0.0,0.0,0.0,0.0,0.0,0.0,0.0,0.0,0.0,0.0,0.0,0.0,0.0,0.0,0.0,0.0,0.0,0.0,0.0,0.0,0.0,0.0,0.0,0.0,0.0,0.0,0.0,0.0,0.0,0.0,0.0,0.0,0.0,0.0,0.0,0.0,0.0,0.0,0.0,0.0,0.0,0.0,0.0,0.0,3.1602,3.4106,3.5813,3.6363,3.5579,3.2648,2.9499,0.0,0.0,0.0,0.0,0.0,0.0,0.0,0.0,0.0,0.0,0.0,0.0,0.0,0.0,0.0,0.0,0.0,0.0,0.0,0.0,0.0,0.0,0.0,0.0,0.0,0.0,0.0,0.0,0.0,0.0,0.0,0.0,0.0,0.0,0.0,0.0,0.0,0.0,0.0,0.0,0.0,0.0,0.0,0.0,0.0,0.0,0.0,0.0,0.0,0.0,0.0,0.0,0.0,0.0,0.0,0.0,0.0,0.0,0.0,0.0,0.0,0.0,0.0,0.0,0.0,0.0,0.0,0.0,0.0,0.0,0.0,0.0,0.0,0.0,0.0,0.0,0.0,0.0,0.0,0.0,0.0,0.0,0.0,0.0,0.0,0.0,0.0,0.0,0.0,0.0,0.0,0.0,0.0,0.0,0.0,0.0,0.0,0.0,0.0,0.0,0.0,0.0,0.0,0.0,0.0,0.0,0.0,3.0044,3.2997,3.5142,3.6865,3.7133,3.5877,3.3977,3.1039,2.6974,0.0,0.0,0.0,0.0,0.0,0.0,0.0,0.0,0.0,0.0,0.0,0.0,0.0,0.0,0.0,0.0,0.0,0.0,0.0,0.0,0.0,0.0,0.0,0.0,0.0,0.0,0.0,0.0,0.0,0.0,0.0,0.0,0.0,0.0,0.0,0.0,0.0,0.0,1.7454,2.0607,0.0,0.0,0.0,0.0,0.0,0.0,0.0,0.0,2.0992,0.0,0.0,0.0,0.0,0.0,0.0,0.0,0.0,0.0,0.0,0.0,0.0,0.0,0.0,0.0,0.0,0.0,0.0,0.0,0.0,0.0,0.0,0.0,0.0,0.0,0.0,0.0,0.0,0.0,0.0,0.0,0.0,0.0,0.0,0.0,0.0,0.0,0.0,0.0,0.0,0.0,0.0,0.0,0.0,0.0,0.0,0.0,0.0,0.0,0.0,0.0,0.0,0.0,0.0,0.0,0.0,3.0951,3.0872,3.3208,3.8091,3.7336,3.6819,3.6554,3.3028,2.9815,2.7268,0.0,0.0,0.0,0.0,0.0,0.0,0.0,0.0,0.0,0.0,0.0,0.0,0.0,0.0,0.0,0.0,0.0,0.0,0.0,0.0,0.0,0.0,0.0,0.0,0.0,0.0,0.0,0.0,0.0,0.0,0.0,0.0,0.0,0.0,0.0,0.0,0.0,0.0,0.0,2.4067,2.5332,0.0,0.0,0.0,0.0,0.0,0.0,0.0,0.0,2.1568,0.0,0.0,0.0,0.0,0.0,0.0,0.0,0.0,0.0,0.0,0.0,0.0,0.0,0.0,0.0,0.0,0.0,0.0,0.0,0.0,0.0,0.0,0.0,0.0,0.0,0.0,0.0,0.0,0.0,0.0,0.0,0.0,0.0,0.0,0.0,0.0,0.0,0.0,0.0,0.0,0.0,0.0,0.0,0.0,0.0,0.0,0.0,0.0,0.0,0.0,0.0,0.0,0.0,0.0,0.0,3.0707,3.2567,3.5232,3.8819,3.8251,3.7351,3.6287,3.2958,2.9769,0.0,0.0,0.0,0.0,0.0,0.0,0.0,0.0,0.0,0.0,0.0,0.0,0.0,0.0,0.0,0.0,0.0,0.0,0.0,0.0,0.0,0.0,0.0,0.0,0.0,0.0,0.0,0.0,0.0,0.0,0.0,0.0,0.0,0.0,0.0,0.0,0.0,0.0,0.0,0.0,2.5397,2.6627,2.7196,0.0,0.0,0.0,0.0,0.0,0.0,2.3986,2.2805,0.0,0.0,0.0,0.0,0.0,0.0,0.0,0.0,0.0,0.0,0.0,0.0,0.0,0.0,0.0,0.0,0.0,0.0,0.0,0.0,0.0,0.0,0.0,0.0,0.0,0.0,0.0,0.0,0.0,0.0,0.0,0.0,0.0,0.0,0.0,0.0,0.0,0.0,0.0,0.0,0.0,0.0,0.0,0.0,0.0,0.0,0.0,0.0,0.0,0.0,0.0,0.0,0.0,0.0,0.0,3.0239,3.3978,3.6859,3.8857,3.8805,3.766,3.5584,3.2704,2.9626,0.0,0.0,0.0,0.0,0.0,0.0,0.0,0.0,0.0,0.0,0.0,0.0,0.0,0.0,0.0,0.0,0.0,0.0,0.0,0.0,0.0,0.0,0.0,0.0,0.0,0.0,0.0,0.0,0.0,0.0,0.0,0.0,0.0,0.0,0.0,0.0,0.0,0.0,0.0,0.0,0.0,2.813,2.8967,2.7834,0.0,0.0,0.0,0.0,2.5695,2.5901,0.0,0.0,0.0,0.0,0.0,0.0,0.0,0.0,0.0,0.0,0.0,0.0,0.0,0.0,0.0,0.0,0.0,0.0,0.0,0.0,0.0,0.0,0.0,0.0,0.0,0.0,0.0,0.0,0.0,0.0,0.0,0.0,0.0,0.0,0.0,0.0,0.0,0.0,0.0,0.0,0.0,0.0,0.0,0.0,0.0,0.0,0.0,0.0,0.0,0.0,0.0,0.0,0.0,0.0,0.0,0.0,3.1672,3.3716,3.6068,3.8702,3.827,3.6905,3.4862,3.1579,2.8703,0.0,0.0,0.0,0.0,0.0,0.0,0.0,0.0,0.0,0.0,0.0,0.0,0.0,0.0,0.0,0.0,0.0,0.0,0.0,0.0,0.0,0.0,0.0,0.0,0.0,0.0,0.0,0.0,0.0,0.0,0.0,0.0,0.0,0.0,0.0,0.0,0.0,0.0,0.0,0.0,0.0,3.0805,2.9629,2.8439,2.7981,0.0,0.0,2.8282,3.0239,3.1174,0.0,0.0,0.0,0.0,0.0,0.0,0.0,0.0,0.0,0.0,0.0,0.0,0.0,0.0,0.0,0.0,0.0,0.0,0.0,0.0,0.0,0.0,0.0,0.0,0.0,0.0,0.0,0.0,0.0,0.0,0.0,0.0,0.0,0.0,0.0,0.0,0.0,0.0,0.0,0.0,0.0,0.0,0.0,0.0,0.0,0.0,0.0,0.0,0.0,0.0,0.0,0.0,0.0,0.0,0.0,2.8244,3.2057,3.4933,3.7215,3.8809,3.8189,3.698,3.5248,3.1192,2.8455,0.0,0.0,0.0,0.0,0.0,0.0,0.0,0.0,0.0,0.0,0.0,0.0,0.0,0.0,0.0,0.0,0.0,0.0,0.0,0.0,0.0,0.0,0.0,0.0,0.0,0.0,0.0,0.0,0.0,0.0,0.0,0.0,0.0,0.0,0.0,0.0,0.0,0.0,0.0,0.0,0.0,0.0,3.1974,3.1908,0.0,0.0,0.0,3.1392,3.199,0.0,0.0,0.0,0.0,0.0,0.0,0.0,0.0,0.0,0.0,0.0,0.0,0.0,0.0,0.0,0.0,0.0,0.0,0.0,0.0,0.0,0.0,0.0,0.0,0.0,0.0,0.0,0.0,0.0,0.0,0.0,0.0,0.0,0.0,0.0,0.0,0.0,0.0,0.0,0.0,0.0,0.0,0.0,0.0,0.0,0.0,0.0,0.0,0.0,0.0,0.0,0.0,0.0,0.0,0.0,0.0,0.0,3.2109,3.5902,3.8151,3.8848,3.8178,3.7021,3.5538,3.1369,0.0,0.0,0.0,0.0,0.0,0.0,0.0,0.0,0.0,0.0,0.0,0.0,0.0,0.0,0.0,0.0,0.0,0.0,0.0,0.0,0.0,0.0,0.0,0.0,0.0,0.0,0.0,1.0859,0.0,0.0,0.0,0.0,0.0,0.0,0.0,0.0,0.0,0.0,0.0,0.0,0.0,0.0,3.2949,3.3582,3.4506,3.4997,0.0,0.0,3.4093,3.3757,3.4476,3.3574,0.0,0.0,0.0,0.0,0.0,0.0,0.0,0.0,0.0,0.0,0.0,0.0,0.0,0.0,0.0,0.0,0.0,0.0,0.0,0.0,0.0,0.0,0.0,0.0,0.0,0.0,0.0,0.0,0.0,0.0,0.0,0.0,0.0,0.0,0.0,0.0,0.0,0.0,0.0,0.0,0.0,0.0,0.0,0.0,0.0,0.0,0.0,0.0,0.0,0.0,0.0,0.0,0.0,0.0,0.0,3.2109,3.579,3.8084,3.8793,3.8042,3.6952,3.5529,3.2197,2.9568,0.0,0.0,0.0,0.0,0.0,0.0,0.0,0.0,0.0,0.0,0.0,0.0,0.0,0.0,0.0,0.0,0.0,0.0,0.0,0.0,0.0,0.0,0.0,0.0,0.0,0.0,0.0,0.0,0.0,0.0,0.0,0.0,0.0,0.0,0.0,0.0,0.0,0.0,0.0,0.0,0.0,3.3086,3.3387,3.4559,3.581,0.0,0.0,3.5596,3.6574,3.8596,3.7904,3.147,0.0,0.0,0.0,0.0,0.0,0.0,0.0,0.0,0.0,0.0,0.0,0.0,0.0,0.0,0.0,0.0,0.0,0.0,0.0,0.0,0.0,0.0,0.0,0.0,0.0,0.0,0.0,0.0,0.0,0.0,0.0,0.0,0.0,0.0,0.0,0.0,0.0,0.0,0.0,0.0,0.0,0.0,0.0,0.0,0.0,0.0,0.0,0.0,0.0,0.0,0.0,0.0,0.0,2.9839,3.2755,3.6463,3.8746,3.9422,3.8638,3.7529,3.6118,3.3275,3.0721,0.0,0.0,0.0,0.0,0.0,0.0,0.0,0.0,0.0,0.0,0.0,0.0,0.0,0.0,0.0,0.0,0.0,0.0,0.0,0.0,0.0,0.0,0.0,0.0,0.0,0.0,0.0,0.0,1.7872,1.8306,1.7297,0.0,0.0,0.0,0.0,0.0,0.0,0.0,0.0,0.0,0.0,3.5041,3.6773,3.7916,0.0,0.0,3.8852,3.8554,3.8567,3.8261,3.6538,3.2133,2.9583,0.0,0.0,0.0,0.0,0.0,0.0,0.0,0.0,0.0,0.0,0.0,0.0,0.0,0.0,0.0,0.0,0.0,0.0,0.0,0.0,0.0,0.0,0.0,0.0,0.0,0.0,0.0,0.0,0.0,0.0,0.0,0.0,0.0,0.0,0.0,0.0,0.0,0.0,0.0,0.0,0.0,0.0,0.0,0.0,0.0,0.0,0.0,0.0,0.0,0.0,0.0,0.0,3.0152,3.3174,3.6887,3.9208,4.0174,3.91,3.7983,3.6798,3.4382,3.1925,0.0,0.0,0.0,0.0,0.0,0.0,0.0,0.0,0.0,0.0,0.0,0.0,0.0,0.0,0.0,0.0,0.0,0.0,0.0,0.0,0.0,0.0,0.0,0.0,0.0,0.0,0.0,0.0,1.95,1.9237,1.7895,0.0,0.0,0.0,0.0,0.0,0.0,0.0,0.0,0.0,0.0,3.6302,3.8421,3.9421,3.9994,4.0037,3.9807,3.9443,3.9067,3.8008,3.6093,3.273,0.0,0.0,0.0,0.0,0.0,0.0,0.0,0.0,0.0,0.0,0.0,0.0,0.0,0.0,0.0,0.0,0.0,0.0,0.0,0.0,0.0,0.0,0.0,0.0,0.0,0.0,0.0,0.0,0.0,0.0,1.7201,0.0,0.0,0.0,0.0,0.0,0.0,0.0,0.0,0.0,0.0,0.0,0.0,0.0,0.0,0.0,0.0,0.0,0.0,0.0,0.0,0.0,0.0,0.0,3.3209,3.6793,3.932,4.0784,3.9281,3.8132,3.7389,3.5474,3.3095,3.0216,0.0,0.0,0.0,0.0,0.0,0.0,0.0,0.0,0.0,0.0,0.0,0.0,0.0,0.0,0.0,0.0,0.0,0.0,0.0,0.0,0.0,0.0,0.0,0.0,0.0,0.0,1.8317,1.8188,1.7897,0.0,0.0,0.0,0.0,0.0,0.0,0.0,0.0,0.0,0.0,3.3766,3.6405,3.7396,3.8191,3.8877,3.9105,3.8288,3.7723,3.7967,3.8495,3.7522,0.0,0.0,0.0,0.0,0.0,0.0,0.0,0.0,0.0,0.0,0.0,0.0,0.0,0.0,0.0,0.0,0.0,0.0,0.0,0.0,0.0,0.0,0.0,0.0,0.0,0.0,0.0,2.3787,2.3083,0.0,0.0,0.0,0.0,0.0,0.0,0.0,0.0,0.0,0.0,0.0,3.0613,3.1421,0.0,0.0,0.0,0.0,0.0,0.0,0.0,0.0,0.0,0.0,0.0,0.0,3.1287,3.3601,3.7416,3.9849,4.0689,3.9656,3.8751,3.8063,3.6596,3.3819,2.9545,0.0,0.0,0.0,0.0,0.0,0.0,0.0,0.0,0.0,0.0,0.0,0.0,0.0,0.0,0.0,0.0,0.0,0.0,0.0,0.0,0.0,0.0,0.0,0.0,0.0,2.0225,0.0,0.0,0.0,0.0,0.0,0.0,0.0,0.0,0.0,0.0,0.0,2.9987,3.3634,3.5305,3.6921,3.8904,3.9433,3.9995,0.0,0.0,0.0,0.0,0.0,0.0,0.0,0.0,0.0,0.0,0.0,0.0,0.0,0.0,3.6777,3.0879,2.9564,2.9641,3.0507,0.0,0.0,0.0,0.0,0.0,0.0,0.0,0.0,0.0,0.0,0.0,0.0,0.0,0.0,0.0,0.0,2.7226,0.0,0.0,0.0,0.0,0.0,0.0,0.0,0.0,3.1952,3.39,3.4911,3.5688,3.6019,0.0,3.4379,3.1516,0.0,0.0,0.0,0.0,0.0,0.0,0.0,0.0,3.22,3.416,3.8125,4.0324,4.0613,3.9864,3.9095,3.8377,3.6701,3.4122,3.0588,2.7949,2.5831,0.0,0.0,0.0,0.0,0.0,0.0,0.0,0.0,0.0,0.0,0.0,0.0,0.0,0.0,0.0,0.0,0.0,0.0,0.0,0.0,0.0,0.0,0.0,2.1371,0.0,0.0,0.0,0.0,0.0,0.0,0.0,0.0,0.0,3.0369,3.1476,3.3263,3.6335,3.746,3.8389,3.9545,0.0,0.0,0.0,0.0,0.0,0.0,0.0,3.6898,3.612,3.5428,3.4984,3.5258,3.7784,3.9554,3.872,0.0,0.0,3.5424,3.4317,3.4763,3.6135,3.6482,3.6619,3.6869,3.7978,3.8812,0.0,0.0,0.0,0.0,0.0,0.0,0.0,0.0,3.1783,3.1783,0.0,3.0909,0.0,0.0,0.0,0.0,0.0,0.0,0.0,0.0,3.7261,3.9324,3.9247,3.8556,3.889,4.0073,3.8636,3.7344,3.6135,3.0962,0.0,0.0,0.0,0.0,0.0,0.0,3.3002,3.4911,3.8852,4.0847,4.0659,3.9793,3.9095,3.8377,3.5923,3.4227,3.3315,3.1401,2.955,2.7948,2.5163,0.0,0.0,0.0,0.0,0.0,0.0,0.0,0.0,0.0,0.0,0.0,0.0,0.0,0.0,0.0,0.0,0.0,0.0,0.0,0.0,2.1983,0.0,0.0,0.0,0.0,0.0,0.0,0.0,0.0,0.0,0.0,3.111,3.4392,3.7384,3.8287,0.0,0.0,0.0,0.0,3.9867,3.9299,3.8509,3.8147,3.8171,3.9211,3.9563,3.8278,0.0,0.0,3.9748,4.0656,4.1037,3.8729,4.1492,4.3487,4.2245,4.0817,4.0763,4.286,4.1038,3.9405,3.9992,4.0976,4.1525,3.4409,0.0,0.0,0.0,0.0,3.3984,3.542,3.7061,3.6982,3.6379,3.5437,3.5513,0.0,0.0,0.0,0.0,0.0,0.0,3.5098,3.6653,3.9007,4.0697,4.1762,4.2115,4.2485,4.2843,4.2311,4.1629,4.0745,3.9013,3.4355,2.7117,0.0,0.0,0.0,0.0,3.507,3.6061,3.923,4.0554,3.9778,3.9538,3.9095,3.8392,3.6791,3.5586,3.4785,3.3864,3.2369,3.0266,2.8903,0.0,0.0,0.0,0.0,0.0,0.0,0.0,0.0,0.0,0.0,0.0,0.0,0.0,0.0,0.0,0.0,0.0,0.0,0.0,2.1578,2.2993,2.3463,0.0,0.0,0.0,0.0,0.0,0.0,0.0,0.0,0.0,3.6911,3.7146,3.7801,0.0,0.0,3.8903,3.8988,3.9614,4.0392,4.1257,0.0,0.0,0.0,4.0831,4.0307,4.0933,4.2308,4.3102,4.2334,4.3425,4.4167,4.3415,4.4613,4.5811,4.6298,4.5205,4.462,4.5462,4.5149,4.4782,4.5039,4.5663,4.6176,4.0542,3.8016,3.6312,3.5893,3.6474,3.7509,3.8888,4.0333,4.0516,4.0182,3.9415,3.962,3.8146,3.542,3.4778,0.0,0.0,0.0,3.8093,4.0053,4.1088,4.2272,4.3513,4.3999,4.4356,4.4594,4.4432,4.4229,4.4025,4.3506,3.9726,3.3031,0.0,0.0,3.1629,3.5273,3.7216,3.7377,3.9955,4.0689,3.9394,3.9424,3.908,3.8407,3.7644,3.6812,3.5887,3.5552,3.4578,3.2951,3.1638,2.937,0.0,0.0,0.0,0.0,0.0,0.0,0.0,0.0,0.0,0.0,0.0,1.8669,0.0,0.0,0.0,0.0,2.1575,2.2944,2.4339,2.5065,0.0,0.0,0.0,0.0,0.0,0.0,0.0,3.3922,3.6961,3.9264,3.9951,3.9667,3.9802,4.107,4.0544,4.0138,4.029,0.0,4.1611,4.2223,4.2303,4.2449,4.2884,4.2115,4.183,4.2997,4.3572,4.3855,4.39,4.4852,4.5566,4.5695,4.632,4.6911,4.6806,4.6863,4.7311,4.8117,4.8203,4.8214,4.8485,4.8967,4.9224,4.6397,4.5371,4.0275,3.8781,3.9851,4.1376,4.2155,4.2437,4.2824,4.3156,4.3264,4.3039,4.1683,3.9452,3.7281,0.0,3.8572,3.9524,4.1133,4.3217,4.3435,4.3893,4.457,4.4609,4.4906,4.5425,4.5277,4.5534,4.6043,4.5233,4.3341,4.054,3.8994,3.7842,3.7267,3.8666,3.9242,3.873,4.0768,4.1033,3.9424,3.9424,3.911,3.8497,3.8377,3.7749,3.6596,3.6562,3.6175,3.5522,3.3632,3.1527,2.9218,0.0,0.0,0.0,0.0,0.0,0.0,0.0,0.0,0.0,0.0,0.0,0.0,0.0,0.0,0.0,2.5358,0.0,2.8487,2.7922,0.0,0.0,0.0,3.0717,3.2891,3.5306,3.7102,3.7847,0.0,0.0,4.1043,0.0,4.2658,4.3403,4.3403,4.3098,4.2472,4.2949,4.3237,4.278,4.2706,4.2673,4.3032,4.3389,4.391,4.466,4.4795,4.479,4.484,4.5314,4.5784,4.583,4.6807,4.7124,4.5173,4.6968,4.9052,5.0344,5.0025,4.9721,5.0216,5.0336,5.0159,4.6684,4.6413,4.5089,4.4422,4.4241,4.5145,4.5584,4.5609,4.5213,4.4753,4.4235,4.4026,4.3511,4.2847,4.2256,4.2286,4.2822,4.3057,4.3546,4.4215,4.4326,4.4401,4.457,4.457,4.4665,4.4835,4.5235,4.5503,4.5684,4.5886,4.533,4.4094,4.3195,4.0924,3.7387,3.8755,3.9557,3.9524,3.9974,3.9992,3.9394,3.9424,3.9334,3.917,3.8167,3.7494,3.718,3.6776,3.6055,3.4862,3.4804,3.3557,3.0865,2.7526,0.0,0.0,0.0,0.0,0.0,0.0,0.0,0.0,0.0,2.3048,1.9569,0.0,2.4708,0.0,2.7877,2.9781,3.0466,3.0565,0.0,0.0,3.3475,3.4449,3.7292,3.8711,3.9603,4.0014,4.1544,4.2645,4.2788,4.2983,4.3436,4.4164,4.3301,4.2692,4.3064,4.3803,4.4473,4.4827,4.5275,4.571,4.5618,4.5872,4.5957,4.6225,4.6252,4.6261,4.6244,4.6397,4.6515,4.654,4.6775,4.6903,4.6844,4.7386,4.8424,4.996,4.9667,4.8981,4.9174,4.9258,4.9162,4.8562,4.8257,4.8257,4.7834,4.7158,4.6904,4.6786,4.6752,4.6363,4.5957,4.5608,4.5469,4.5386,4.5251,4.5251,4.5303,4.5412,4.5429,4.5448,4.5551,4.5551,4.5568,4.5568,4.5551,4.5399,4.5134,4.5748,4.584,4.5563,4.6094,4.6058,4.5365,4.5055,4.3251,4.0131,4.0167,4.017,3.9841,3.9392,3.9252,3.9394,3.9424,3.914,3.8527,3.7808,3.6851,3.5714,3.5364,3.486,3.4164,3.4182,3.3466,3.1824,2.9177,2.6725,0.0,0.0,0.0,0.0,0.0,0.0,0.0,0.0,0.0,0.0,0.0,2.7032,0.0,3.0924,3.2889,3.3119,3.3913,3.5189,3.6999,3.7297,3.843,4.1071,4.183,4.2342,4.2867,4.3467,4.3816,4.3931,4.3944,4.4215,4.4976,4.4333,4.3961,4.4384,4.5072,4.5762,4.6146,4.6549,4.6777,4.6767,4.676,4.6786,4.6769,4.6769,4.6786,4.6802,4.709,4.7276,4.7319,4.7513,4.7825,4.8107,4.8152,4.86,4.9313,4.9279,4.9096,4.9632,4.9788,4.9688,5.0828,5.0236,5.0236,4.9881,4.9187,4.7902,4.7259,4.7056,4.6972,4.6887,4.6786,4.6786,4.6786,4.6786,4.6786,4.6786,4.6786,4.6786,4.6786,4.6786,4.6786,4.6786,4.6786,4.6786,4.6464,4.5855,4.6412,4.627,4.5701,4.6108,4.602,4.5407,4.5252,4.4593,4.3267,4.1787,4.0561,3.9579,3.8809,3.8691,3.9275,3.92,3.8556,3.736,3.721,3.6013,3.3634,3.3499,3.3478,3.3455,3.3001,3.2707,3.2563,3.056,2.8484,0.0,2.5115,0.0,0.0,0.0,0.0,0.0,0.0,0.0,0.0,2.9918,3.0368,3.1239,3.4202,3.6129,3.6299,3.7533,3.8809,4.0018,4.0767,4.198,4.38,4.4248,4.4614,4.5312,4.4936,4.457,4.4536,4.457,4.4857,4.5517,4.572,4.5788,4.6024,4.6523,4.6929,4.7022,4.7103,4.7255,4.7217,4.7149,4.7175,4.7106,4.7183,4.7073,4.7158,4.7648,4.8037,4.8081,4.8521,4.8934,4.9001,4.8984,4.8984,4.9046,4.904,4.9316,5.0277,5.0576,5.0647,5.1133,5.1014,5.0997,5.0913,5.0777,5.049,4.9695,4.8545,4.797,4.7361,4.6802,4.6786,4.6786,4.6786,4.6786,4.6786,4.6786,4.6786,4.6786,4.6786,4.6786,4.6786,4.6786,4.6786,4.6718,4.6583,4.6724,4.6697,4.6561,4.6062,4.5465,4.4759,4.413,4.3342,4.2469,0.0,0.0,0.0,3.8241,3.8452,3.8556,3.8063,3.7434,3.6686,3.6148,0.0,3.3604,3.3499,3.3273,3.2843,3.3715,0.0,0.0,0.0,0.0,0.0,0.0,0.0,0.0,0.0,0.0,0.0,3.3587,3.2663,3.1777,3.4132,3.5681,3.5677,3.7293,3.8853,4.0037,4.0392,4.1154,4.2532,4.2855,4.3367,4.4346,4.45,4.4593,4.4732,4.4694,4.4587,4.4604,4.457,4.4891,4.5686,4.6227,4.6819,4.7411,4.7581,4.7929,4.847,4.85,4.8568,4.8562,4.8511,4.8443,4.8612,4.8595,4.8545,4.8528,4.8612,4.8781,4.8748,4.89,4.9018,4.9018,4.9018,4.9018,4.9018,4.9018,4.909,4.9317,4.9428,4.9325,5.2114,0.0,5.1758,5.1539,0.0,5.1234,5.0794,5.0067,4.9695,4.912,4.8426,4.8426,4.8223,4.7885,4.7885,4.7885,4.7885,4.7885,4.7885,4.7885,4.7885,4.7885,4.7885,4.7885,4.7699,4.7361,4.7344,4.7141,4.6786,4.643,4.6041,4.5686,4.528,4.4891,4.4463,4.286,4.0629,3.7898,3.8227,3.8556,3.8871,3.8586,3.7928,3.6985,0.0,0.0,0.0,0.0,0.0,0.0,0.0,0.0,0.0,0.0,0.0,3.4489,3.3888,3.3741,3.414,3.4966,3.6148,3.773,3.8339,3.756,3.517,3.7589,3.9154,3.9023,4.0307,4.1474,4.2202,4.2642,4.3166,4.3914,4.3978,4.4164,4.4502,4.457,4.457,4.4621,4.4919,4.5132,4.5145,4.5483,4.5974,4.6667,4.7107,4.7614,4.8274,4.8419,4.8633,4.8934,4.9018,4.9001,4.9018,4.9018,4.9018,4.9001,4.9018,4.9018,4.9018,4.9018,4.9018,4.9018,4.9018,4.9018,4.9018,4.9018,4.9018,4.9052,4.9289,4.9526,4.9526,4.9255,4.9018,5.3129,5.252,5.2536,5.2181,5.1623,5.1623,5.1623,5.1606,0.0,0.0,0.0,5.0287,4.9949,4.9407,4.939,4.9407,4.939,4.9255,4.9187,4.9187,4.9069,4.9018,4.9018,4.9018,4.8697,4.8122,4.8105,4.7784,4.7192,4.7056,4.6989,4.6989,4.6853,4.6727,4.6514,4.5113,4.2695,3.9564,3.8888,3.8841,3.9394,3.9185,3.8467,3.7285,3.724,3.6118,3.3784,3.3784,3.3949,3.417,3.4254,3.5279,3.7202,3.7364,3.7635,3.8227,3.8413,3.8751,3.9343,3.9631,4.0104,4.0849,4.2142,4.1767,3.9056,4.0682,4.1816,4.1777,4.2912,4.3623,4.3623,4.4316,4.479,4.479,4.4891,4.5015,4.5004,4.4987,4.5072,4.5043,4.5554,4.5883,4.594,4.6363,4.7073,4.7716,4.7834,4.8189,4.8815,4.8951,4.8934,4.9001,4.9018,4.9018,4.9018,4.9018,4.9018,4.9018,4.9018,4.9018,4.9018,4.9018,4.9018,4.9018,4.9018,4.9086,4.9187,4.9227,4.921,4.9373,4.9847,5.0287,5.0236,4.983,4.9475,5.345,5.3348,5.3331,5.3281,5.3179,5.3179,5.3196,5.3078,5.1792,5.115,5.1048,5.1048,5.0997,5.0896,5.0913,5.0896,5.0862,5.0219,4.9949,0.0,4.9289,4.9018,4.9018,4.9018,4.8951,4.8849,4.8849,4.8798,4.8646,4.8054,4.7767,4.7682,4.7124,4.6471,4.5744,4.5415,4.4659,4.3345,4.0613,3.932,3.9409,3.8287,3.7345,3.6656,3.6656,3.5908,3.4427,3.4936,3.5538,3.6294,3.6894,3.7932,3.948,3.9614,3.9665,3.98,4.0375,4.0781,4.0916,4.2066,4.3132,4.3893,4.4759,4.447,4.2844,4.3551,4.4142,4.4113,4.4333,4.4418,4.4468,4.5088,4.5544,4.5595,4.6126,4.6462,4.6408,4.643,4.6363,4.6346,4.6583,4.6625,4.6667,4.6786,4.7175,4.7767,4.8037,4.8223,4.8815,4.9018,4.9018,4.9018,4.9018,4.9018,4.9018,4.9018,4.9018,4.9018,4.9018,4.9018,4.9018,4.9018,4.9018,4.9018,4.9086,4.934,4.9818,4.9944,5.0193,5.0578,5.0913,5.1048,5.1048,5.0947,5.0896,5.4702,5.4651,5.4262,5.4093,5.4059,5.367,5.3518,5.345,5.2756,5.2198,5.1826,5.1809,5.1589,5.1234,5.1234,5.1234,5.12,5.0862,5.0473,5.0084,4.9746,4.9373,4.9018,4.9018,4.9018,4.9018,4.9018,4.9018,4.8968,4.8663,4.8494,4.8477,4.8156,4.7787,4.7412,4.6874,4.6454,4.601,4.2895,4.1286,4.1199,3.9787,3.8901,3.8616,3.8287,3.7614,3.6641,3.74,3.7979,3.8462,3.9233,4.0308,4.1811,4.1897,4.2083,4.2506,4.2844,4.3031,4.3031,4.4045,4.4993,4.572,4.6107,4.5988,4.5297,4.5568,4.5771,4.5771,4.5794,4.576,4.5771,4.6116,4.6278,4.627,4.6616,4.676,4.6816,4.6758,4.6794,4.6817,4.712,4.7393,4.7411,4.775,4.8071,4.846,4.8511,4.8663,4.8951,4.9018,4.9018,4.9018,4.9018,4.9018,4.9018,4.9018,4.9018,4.9018,4.9018,4.9018,4.9018,4.9018,4.9198,4.9514,4.9622,4.9902,5.0578,5.0733,5.0885,5.1068,5.1589,5.1742,5.1826,5.2131,5.23,5.5716,5.5649,5.5091,5.4854,5.4769,5.4076,5.3754,5.3721,5.3568,5.3162,5.2621,5.257,5.2266,5.1758,5.1742,5.1742,5.1708,5.1539,5.115,5.0625,5.0422,4.9965,4.9306,4.9238,4.9154,4.9035,4.9018,4.9018,4.9018,4.9018,4.9018,4.9018,4.9018,4.9018,4.9001,4.8289,4.7933,4.772,4.5239,4.3608,4.3024,4.1425,4.0621,4.0591,4.0127,3.9661,3.942,3.9886,4.0397,4.0884,4.1383,4.2292,4.3567,4.3673,4.3944,4.4519,4.4739,4.4908,4.5094,4.5618,4.6194,4.6735,4.6941,4.7033,4.7065,4.7208,4.7124,4.6836,4.6726,4.6743,4.6735,4.6921,4.7048,4.7039,4.7208,4.7361,4.731,4.7318,4.7315,4.7385,4.7799,4.8124,4.8247,4.8646,4.8934,4.8951,4.9018,4.9018,4.9018,4.9018,4.9035,4.9198,4.9086,4.9018,4.9018,4.9018,4.9018,4.9018,4.9187,4.9306,4.934,4.939,4.9701,5.0266,5.035,5.0632,5.1223,5.1476,5.1577,5.1811,5.2283,5.257,5.2604,5.2993,5.3281,5.5733,5.57,5.5649,5.5632,5.5497,5.4803,5.4499,5.4414,5.3805,5.3467,5.3399,5.3399,5.3348,5.3298,5.3247,5.3213,5.3162,5.252,5.2147,5.1978,5.1403,5.071,5.0033,4.9999,4.9644,4.912,4.9052,4.9069,4.9069,4.9018,4.9018,4.9018,4.9018,4.9018,4.9001,4.894,4.8861,4.8877,4.7736,4.6023,4.3723,4.2107,4.1294,4.1294,4.122,4.1578,4.2175,4.1813,4.2299,4.3752,4.3438,4.3531,4.4356,4.4485,4.4519,4.4637,4.5229,4.5889,4.6498,4.6633,4.6752,4.6802,4.7437,4.7818,4.7817,4.8392,4.8206,4.7225,4.6862,4.6912,4.6853,4.741,4.7798,4.7851,4.8308,4.8798,4.8714,4.8815,4.8771,4.8787,4.8754,4.8917,4.8849,4.8934,4.9001,4.9018,4.9137,4.9171,4.9137,4.9232,4.9402,4.9763,4.9514,4.9137,4.9154,4.9035,4.9238,4.9221,4.9593,4.9915,5.0084,5.0456,5.1011,5.1009,5.1108,5.1408,5.1949,5.2236,5.2472,5.2808,5.3129,5.3348,5.3399,5.345,5.3416,5.7002,5.6968,5.6528,5.6105,5.57,5.5378,5.526,5.5226,5.4955,5.4566,5.4177,5.4143,5.3907,5.3518,5.3518,5.3518,5.3484,5.3145,5.2756,5.23,5.1995,5.1454,5.0811,5.076,5.0591,5.027,4.9864,4.9644,4.9576,4.9221,4.9018,4.9018,4.9018,4.9018,4.9018,4.9018,4.9018,4.8923,4.808,4.7092,4.5918,4.3972,4.259,4.1985,4.1579,4.1864,4.272,4.2934,4.3728,4.497,4.5246,4.5547,4.5889,4.5889,4.5906,4.5906,4.616,4.6667,4.7394,4.7445,4.7648,4.8071,4.8369,4.8538,4.8562,4.8849,4.8714,4.8257,4.8078,4.8095,4.8122,4.8399,4.8568,4.8612,4.8849,4.9018,4.9018,4.9018,4.9018,4.9018,4.9018,4.9018,4.9018,4.9018,4.9018,4.9103,4.9362,4.9637,4.9695,5.0017,5.0385,5.0646,5.0447,5.0332,5.0304,5.0574,5.0557,5.0439,5.0557,5.076,5.0794,5.093,5.1298,5.1758,5.1871,5.2166,5.2909,5.2994,5.3197,5.3501,5.3518,5.3518,5.3518,5.3518,5.3518,5.7881,5.7797,5.7306,5.6799,5.6308,5.6105,5.6021,5.597,5.5818,5.5395,5.4905,5.4702,5.4313,5.3822,5.3602,5.3518,5.3518,5.3518,5.3196,5.2655,5.2638,5.2215,5.1572,5.1505,5.1403,5.1166,5.0659,5.0388,5.0338,4.9898,4.961,4.9593,4.9407,4.9407,4.956,4.9272,4.9103,4.921,4.8406,4.7885,4.7374,4.5816,4.4372,4.3501,4.2997,4.3164,4.4031,4.4561,4.5196,4.6122,4.6555,4.6786,4.6786,4.6786,4.6887,4.7073,4.7107,4.7428,4.8156,4.8223,4.8443,4.8934,4.9182,4.93,4.934,4.9509,4.961,4.961,4.961,4.956,4.9323,4.9492,4.961,4.961,4.961,4.9593,4.9673,4.9622,4.9627,4.9581,4.9746,4.9576,4.9593,4.9656,4.9701,4.9763,5.0075,5.0382,5.0473,5.0815,5.1213,5.1461,5.1494,5.1379,5.1302,5.1285,5.1539,5.1471,5.1285,5.1522,5.1555,5.164,5.1894,5.2584,5.2636,5.2739,5.3146,5.3433,5.3501,5.3501,5.3518,5.3518,5.3518,5.3518,5.3518,5.7881,5.7881,5.7848,5.7763,5.7712,5.7036,5.6765,5.6714,5.6089,5.5733,5.5581,5.4972,5.46,5.4448,5.3839,5.3534,5.3518,5.3518,5.3467,5.3382,5.3399,5.301,5.2283,5.2232,5.1911,5.1437,5.1251,5.115,5.1116,5.1099,5.1133,5.1048,5.0371,5.0405,5.0744,4.9746,4.9373,4.9932,4.9333,4.858,4.7803,4.7556,4.6952,4.6125,4.592,4.6191,4.7077,4.6684,4.6839,4.7747,4.7259,4.687,4.6836,4.6853,4.7192,4.7767,4.7885,4.8206,4.8849,4.9001,4.9052,4.912,4.9729,5.0051,5.0067,5.0527,5.0865,5.1065,5.098,5.0777,5.0287,5.0574,5.093,5.0963,5.1031,5.0963,5.1024,5.0888,5.1112,5.1017,5.0896,5.0841,5.098,5.1128,5.0946,5.0943,5.1051,5.1119,5.12,5.1217,5.1603,5.2075,5.22,5.2051,5.1393,5.1676,5.1572,5.1589,5.208,5.2266,5.2536,5.279,5.3112,5.3331,5.3264,5.3298,5.345,5.3518,5.3501,5.3518,5.3518,5.3518,5.3518,5.3518,5.3518,5.7881,5.7881,5.7881,5.7881,5.7848,5.7611,5.7492,5.7459,5.7239,5.6833,5.6427,5.6105,5.548,5.4583,5.4313,5.394,5.3534,5.3518,5.3518,5.3518,5.3518,5.3348,5.3112,5.3078,5.2959,5.2638,5.2147,5.1674,5.1251,5.1234,5.1234,5.12,5.0963,5.0963,5.1082,5.0693,5.0557,5.076,5.0524,5.0197,4.9871,4.9905,4.9491,4.8679,4.7042,4.6662,4.7589,4.7342,4.7633,4.8551,4.8342,4.8206,4.8206,4.8206,4.8308,4.8612,4.9052,4.9424,4.9712,5.0152,5.0422,5.0422,5.0606,5.0822,5.0828,5.1073,5.1226,5.1305,5.1691,5.1708,5.1539,5.1369,5.1234,5.1234,5.1234,5.1268,5.1183,5.1231,5.12,5.1186,5.12,5.1183,5.1302,5.1248,5.1231,5.1251,5.1594,5.1847,5.2029,5.23,5.2689,5.2975,5.3078,5.2944,5.2791,5.2673,5.2723,5.2756,5.2959,5.301,5.3196,5.3179,5.3399,5.3416,5.3501,5.3518,5.3518,5.3518,5.3518,5.3518,5.3518,5.3518,5.3518,5.3518,5.3518,5.7881,5.7881,5.7881,5.7881,5.7881,5.7881,5.7881,5.7881,5.7881,5.7611,5.7171,5.6917,5.6224,5.5378,5.5074,5.4549,5.3856,5.3636,5.3518,5.3518,5.3518,5.3518,5.3518,5.3518,5.3518,5.3416,5.2959,5.2418,5.2012,5.1961,5.1961,5.1978,5.1708,5.1708,5.1843,5.1488,5.1302,5.1488,5.1352,5.1217,5.1234,5.1234,5.098,5.0328,4.8746,4.7832,4.8065,4.808,4.8289,4.8861,4.9018,4.9103,4.9306,4.9357,4.9475,4.9746,5.0152,5.0456,5.0507,5.093,5.1217,5.1217,5.1439,5.1571,5.1555,5.1782,5.19,5.2065,5.235,5.2689,5.2604,5.2249,5.1961,5.1961,5.1961,5.1961,5.1961,5.1978,5.1995,5.2046,5.2063,5.1995,5.1944,5.1963,5.1997,5.1961,5.2404,5.2657,5.2757,5.3095,5.3518,5.3518,5.345,5.345,5.3298,5.3196,5.3196,5.3247,5.3264,5.3433,5.3518,5.3518,5.3518,5.3518,5.3518,5.3518,5.3518,5.3518,5.3518,5.3518,5.3518,5.3518,5.3518,5.3518,5.3518,5.7881,5.7881,5.7881,5.7881,5.7881,5.7881,5.7881,5.7881,5.7881,5.7831,5.7662,5.7154,5.6799,5.6562,5.597,5.531,5.46,5.4025,5.3636,5.3518,5.3518,5.3518,5.3518,5.3518,5.3518,5.3518,5.3484,5.345,5.3315,5.3264,5.3281,5.3247,5.2621,5.2638,5.3416,5.2131,5.1708,5.2063,5.1758,5.1403,5.1251,5.1403,5.1386,5.1234,5.1003,5.0298,4.9125,4.9058,4.9142,4.9154,4.9154,4.939,4.9999,5.0101,5.0405,5.093,5.1183,5.1217,5.1217,5.1319,5.1488,5.1522,5.1922,5.2326,5.2384,5.2859,5.323,5.3264,5.3331,5.3433,5.3399,5.3331,5.3281,5.3467,5.3247,5.323,5.3331,5.3433,5.3467,5.3348,5.3264,5.345,5.345,5.3264,5.3179,5.3213,5.3315,5.3315,5.3315,5.3416,5.3501,5.3518,5.3518,5.3518,5.3518,5.3501,5.3501,5.3484,5.3467,5.3518,5.3518,5.3518,5.3518,5.3518,5.3518,5.3518,5.3518,5.3518,5.3518,5.3518,5.3518,5.3518,5.3518,5.3518,5.3518,5.7881,5.7881,5.7881,5.7881,5.7881,5.7881,5.7881,5.7881,5.7881,5.7881,5.7831,5.7645,5.7273,5.685,5.6545,5.6072,5.5378,5.5091,5.4499,5.3687,5.3534,5.3518,5.3518,5.3518,5.3518,5.3518,5.3518,5.3518,5.3518,5.3518,5.3518,5.3433,5.3247,5.3247,5.3467,5.3027,5.2942,5.3061,5.2909,5.279,5.279,5.279,5.2536,5.2029,5.1961,5.1488,5.0608,5.0524,5.0524,5.049,5.0524,5.0642,5.0828,5.0862,5.098,5.1234,5.1708,5.1978,5.2046,5.2469,5.2739,5.279,5.3009,5.3128,5.3129,5.3331,5.3518,5.3518,5.3518,5.3518,5.3518,5.3518,5.3534,5.3518,5.3518,5.3518,5.3518,5.3518,5.3518,5.3518,5.3518,5.3518,5.3518,5.3518,5.3518,5.3518,5.3518,5.3518,5.3518,5.3518,5.3518,5.3518,5.3518,5.3518,5.3518,5.3518,5.3518,5.3518,5.3518,5.3518,5.3518,5.3518,5.3518,5.3518,5.3518,5.3518,5.3518,5.3518,5.3518,5.3518,5.3518,5.3518,5.3518,5.3518,5.3518,5.7881,5.7881,5.7881,5.7881,5.7881,5.7881,5.7881,5.7881,5.7881,5.7881,5.7881,5.7881,5.7645,5.7273,5.7205,5.6799,5.6173,5.6122,5.548,5.4397,5.3991,5.3788,5.3568,5.3518,5.3518,5.3518,5.3518,5.3518,5.3518,5.3518,5.3518,5.3518,5.3518,5.3501,5.3518,5.3518,5.3518,5.3518,5.3484,5.3518,5.3501,5.3518,5.3264,5.2824,5.2756,5.252,5.2097,5.2063,5.1809,5.1352,5.1234,5.1319,5.1572,5.1623,5.1742,5.2097,5.2452,5.2756,5.2807,5.3179,5.3518,5.3518,5.3518,5.3501,5.3501,5.3518,5.3518,5.3518,5.3518,5.3518,5.3534,5.3788,5.3873,5.3923,5.367,5.3534,5.3518,5.3518,5.3518,5.3518,5.3518,5.3518,5.3518,5.3518,5.3518,5.3518,5.3518,5.3518,5.3518,5.3518,5.3518,5.3518,5.3518,5.3518,5.3518,5.3518,5.3518,5.3518,5.3518,5.3518,5.3518,5.3518,5.3518,5.3518,5.3518,5.3518,5.3518,5.3518,5.3518,5.3518,5.3518,5.3518,5.3518,5.3518,5.3518,5.7881,5.7881,5.7881,5.7881,5.7881,5.7881,5.7881,5.7881,5.7881,5.7881,5.7881,5.7881,5.7865,5.7848,5.7763,5.748,5.7006,5.7046,5.6622,5.5927,5.5315,5.477,5.3839,5.3704,5.3636,5.3518,5.3518,5.3518,5.3518,5.3518,5.3518,5.3518,5.3518,5.3518,5.3518,5.3518,5.3518,5.3518,5.3518,5.3518,5.3518,5.3518,5.3484,5.3416,5.3416,5.3365,5.3298,5.3247,5.2739,5.1606,5.1555,5.1826,5.2249,5.235,5.2706,5.3247,5.345,5.3433,5.3467,5.345,5.3518,5.3518,5.3518,5.3518,5.3518,5.3518,5.3568,5.367,5.367,5.3687,5.3856,5.4279,5.4617,5.4566,5.411,5.3704,5.3534,5.3518,5.3518,5.3518,5.3518,5.3518,5.3518,5.3518,5.3518,5.3518,5.3518,5.3518,5.3518,5.3518,5.3518,5.3518,5.3518,5.3518,5.3518,5.3518,5.3518,5.3518,5.3518,5.3518,5.3518,5.3518,5.3518,5.3518,5.3518,5.3518,5.3518,5.3518,5.3518,5.3518,5.3518,5.3518,5.3551,5.3585,5.3805,5.7881,5.7881,5.7881,5.7881,5.7881,5.7881,5.7881,5.7881,5.7881,5.7881,5.7881,5.7881,5.7881,5.7881,5.7881,5.8072,5.8342,5.8462,5.8152,5.7613,5.7921,5.6539,5.4754,5.4296,5.4025,5.3636,5.3653,5.3518,5.3518,5.3636,5.3602,5.3518,5.3585,5.3534,5.3518,5.3534,5.3518,5.3518,5.3518,5.3518,5.3518,5.3518,5.3518,5.3518,5.3518,5.3518,5.3518,5.3518,5.3382,5.2993,5.2892,5.2959,5.3129,5.3145,5.3247,5.3433,5.3518,5.3518,5.3518,5.3534,5.3534,5.3518,5.3653,5.3518,5.3518,5.3518,5.3771,5.4126,5.4313,5.4515,5.4989,5.5294,5.5412,5.5344,5.4803,5.416,5.3704,5.3518,5.3518,5.3518,5.3518,5.3518,5.3518,5.3518,5.3518,5.3518,5.3518,5.3518,5.3518,5.3518,5.3518,5.3518,5.3518,5.3518,5.3518,5.3518,5.3518,5.3518,5.3518,5.3518,5.3518,5.3518,5.3518,5.3518,5.3518,5.3518,5.3518,5.3518,5.3518,5.3585,5.3636,5.3687,5.3805,5.3873,5.4262,5.7881,5.7881,5.7881,5.7881,5.7881,5.7881,5.7881,5.7881,5.7881,5.7881,5.7881,5.7881,5.7881,5.7881,5.7881,5.8317,5.9061,5.9145,5.9102,5.9144,5.9461,5.8118,5.6125,5.5568,5.5161,5.4482,5.4414,5.4448,5.4465,5.4448,5.4431,5.4397,5.411,5.3957,5.3957,5.3619,5.3518,5.3518,5.3518,5.3518,5.3518,5.3518,5.3518,5.3518,5.3518,5.3518,5.3518,5.3518,5.3501,5.3501,5.3501,5.3518,5.3518,5.3518,5.3518,5.3518,5.3518,5.3518,5.3568,5.3754,5.3957,5.4042,5.4194,5.4414,5.4482,5.4448,5.4702,5.4989,5.5074,5.5294,5.5649,5.597,5.6156,5.6122,5.5767,5.5211,5.4517,5.4161,5.3822,5.3636,5.3518,5.3518,5.3518,5.3534,5.3534,5.3518,5.3518,5.3518,5.3518,5.3534,5.3585,5.372,5.367,5.3687,5.3687,5.367,5.3788,5.3771,5.3822,5.3754,5.3704,5.367,5.3534,5.3534,5.3518,5.3534,5.3602,5.367,5.3754,5.3822,5.3856,5.411,5.4398,5.4568,5.4907,5.7881,5.7881,5.801,5.801,5.8065,5.8137,5.8334,5.8192,5.8334,5.8334,5.8263,5.8137,5.8246,5.8137,5.8317,5.8564,5.9426,5.9621,6.0051,6.0395,6.0445,5.932,5.7585,5.6984,5.6434,5.5809,5.5719,5.5598,5.5463,5.5547,5.5632,5.5395,5.4921,5.4752,5.4583,5.4042,5.3653,5.3653,5.3551,5.3619,5.3721,5.3754,5.3754,5.3737,5.3551,5.3518,5.3534,5.3602,5.3687,5.3653,5.3568,5.3518,5.3518,5.3534,5.367,5.3771,5.3873,5.3923,5.389,5.4448,5.4702,5.4803,5.5294,5.5716,5.553,5.5463,5.5564,5.5801,5.5835,5.5936,5.619,5.6596,5.6867,5.69,5.6867,5.6551,5.5979,5.5213,5.4448,5.3788,5.3703,5.3754,5.3771,5.3754,5.3788,5.433,5.4194,5.4262,5.4262,5.4296,5.4245,5.4127,5.4042,5.3907,5.389,5.394,5.4059,5.411,5.4194,5.4228,5.411,5.3991,5.3721,5.3619,5.3856,5.3907,5.389,5.3974,5.4143,5.4313,5.4515,5.4972,5.5395,5.5551,5.5824,5.7881,5.7954,5.8564,5.8875,5.8943,5.9591,5.985,5.9786,5.985,5.9721,5.9656,5.9128,5.9195,5.9786,5.9195,5.9621,6.0843,6.0979,6.153,6.2148,6.1604,6.0813,5.9461,5.841,5.74,5.6642,5.5961,5.575,5.5784,5.5886,5.575,5.575,5.5666,5.5463,5.5378,5.4752,5.4363,5.4262,5.3856,5.3907,5.4313,5.4363,5.4363,5.4313,5.389,5.3568,5.3653,5.4042,5.4329,5.4228,5.389,5.3687,5.3754,5.411,5.4346,5.4465,5.4888,5.5175,5.526,5.531,5.548,5.5497,5.5716,5.5716,5.5716,5.5801,5.6055,5.6393,5.6579,5.6782,5.7188,5.7509,5.7577,5.756,5.756,5.7509,5.7209,5.6261,5.5272,5.4875,5.4932,5.5327,5.56,5.5192,5.5108,5.5229,5.516,5.5175,5.5124,5.5023,5.4906,5.472,5.4736,5.4702,5.4683,5.4702,5.4669,5.4652,5.4735,5.4732,5.4683,5.4414,5.4245,5.4262,5.4381,5.4432,5.4346,5.4804,5.5074,5.5141,5.5209,5.5632,5.6004,5.6297,5.6588,5.8424,5.8564,5.9377,5.9704,5.9751,6.0229,6.0414,6.0414,6.0414,6.0414,6.0291,5.9896,5.996,6.0335,5.996,6.044,6.1456,6.2023,6.2394,6.2515,6.1969,6.1361,6.0802,5.94,5.8181,5.7398,5.6998,5.6731,5.6731,5.6697,5.6816,5.6681,5.641,5.6241,5.6122,5.5497,5.5141,5.5074,5.4786,5.4752,5.5057,5.5124,5.5124,5.5091,5.4752,5.4532,5.4634,5.4905,5.5091,5.5023,5.4752,5.4532,5.4566,5.4888,5.5091,5.5209,5.5429,5.5716,5.5716,5.6021,5.6224,5.6224,5.6511,5.6697,5.6731,5.6731,5.6867,5.7205,5.734,5.7509,5.7831,5.7865,5.7881,5.7881,5.7881,5.7881,5.7695,5.69,5.6132,5.5833,5.569,5.5778,5.5845,5.5984,5.5829,5.5576,5.5566,5.5564,5.5497,5.5412,5.5446,5.5414,5.5549,5.5528,5.5559,5.5491,5.5429,5.5412,5.5359,5.537,5.5333,5.5019,5.4753,5.4958,5.5128,5.492,5.4949,5.5441,5.5902,5.5902,5.6021,5.6325,5.663,5.704,5.7226,5.9178,5.936,6.0211,6.0598,6.0598,6.076,6.0897,6.0838,6.0778,6.0938,6.07,6.064,6.07,6.0778,6.064,6.1055,6.1788,6.2376,6.2755,6.2686,6.2219,6.1604,6.1037,5.9953,5.8788,5.801,5.7729,5.7729,5.7746,5.7865,5.7594,5.7695,5.7289,5.6985,5.6816,5.6292,5.5886,5.5852,5.5615,5.5666,5.5835,5.5886,5.5886,5.5852,5.5598,5.5497,5.553,5.5716,5.5869,5.5902,5.5987,5.6038,5.6038,5.5902,5.5886,5.5902,5.6089,5.6275,5.6393,5.6664,5.7023,5.7111,5.7624,5.8035,5.8018,5.7933,5.7878,5.7802,5.7797,5.7797,5.7881,5.7881,5.7881,5.7881,5.7881,5.7881,5.7763,5.7323,5.7031,5.6908,5.6638,5.6592,5.6436,5.6436,5.6174,5.5984,5.598,5.5987,5.5953,5.6021,5.6173,5.6396,5.6511,5.6579,5.6592,5.6487,5.6427,5.6308,5.6132,5.6145,5.6135,5.6183,5.6024,5.5773,5.5807,5.568,5.5753,5.6263,5.6609,5.6592,5.6782,5.7036,5.7408,5.7814,5.7814,5.9491,6.0273,6.1055,6.1418,6.1474,6.2094,6.2342,6.2394,6.2271,6.2394,6.2271,6.1715,6.1788,6.2023,6.1659,6.1879,6.2446,6.2755,6.2823,6.2755,6.2446,6.1915,6.0718,6.0149,5.923,5.8263,5.7881,5.7881,5.7881,5.7881,5.7881,5.7865,5.7729,5.7628,5.7425,5.7036,5.663,5.6562,5.6224,5.619,5.6511,5.6613,5.663,5.6579,5.6207,5.5953,5.5987,5.6325,5.6613,5.6681,5.7205,5.7425,5.7273,5.6867,5.6647,5.6714,5.7053,5.7239,5.7323,5.7582,5.8041,5.8531,5.8806,5.8857,5.8925,5.8857,5.8633,5.812,5.801,5.7954,5.7881,5.7881,5.7881,5.7881,5.7881,5.7881,5.7831,5.7729,5.7611,5.7504,5.7476,5.7374,5.715,5.7082,5.701,5.6976,5.6981,5.7002,5.7036,5.7137,5.7323,5.7459,5.7611,5.7628,5.7662,5.756,5.7442,5.7306,5.7256,5.7256,5.7319,5.7487,5.7412,5.71,5.6845,5.6718,5.6913,5.7161,5.7302,5.7306,5.7509,5.7712,5.7797,5.7881,5.7881,6.0605,6.1113,6.1897,6.2219,6.2253,6.2636,6.2823,6.2823,6.2823,6.2823,6.2686,6.2394,6.2394,6.2636,6.2446,6.2446,6.2686,6.2823,6.2823,6.2755,6.2324,6.1622,6.0414,6.0023,5.9011,5.8209,5.7881,5.7881,5.7881,5.7881,5.7881,5.7881,5.7881,5.7881,5.7831,5.756,5.7357,5.7239,5.7019,5.6951,5.7306,5.734,5.734,5.7222,5.7053,5.6867,5.69,5.7103,5.7357,5.7425,5.7679,5.7848,5.7763,5.7666,5.734,5.748,5.7679,5.7881,5.801,5.8192,5.872,5.9044,5.9509,5.9768,5.9768,5.9704,5.9377,5.8755,5.8511,5.8317,5.7954,5.7881,5.7881,5.7881,5.7881,5.7881,5.7881,5.7881,5.7881,5.7881,5.7746,5.7662,5.7746,5.7729,5.7831,5.7881,5.7881,5.7881,5.7881,5.7881,5.7881,5.7937,5.792,5.8014,5.8174,5.8246,5.8302,5.8232,5.8192,5.8192,5.8174,5.8336,5.8382,5.8171,5.8035,5.7752,5.7548,5.7572,5.7797,5.7881,5.7831,5.7797,5.7848,5.7881,5.7881,6.1715,6.1897,6.2515,6.2823,6.2823,6.2823,6.2823,6.2823,6.2823,6.2823,6.2823,6.2755,6.2755,6.2823,6.2805,6.2805,6.2823,6.2823,6.2823,6.2686,6.2271,6.1436,6.0397,5.9704,5.8943,5.8082,5.7881,5.7881,5.7881,5.7881,5.7881,5.7881,5.7881,5.7881,5.7848,5.7797,5.7881,5.7881,5.7881,5.7881,5.7881,5.7881,5.7881,5.7881,5.7881,5.7797,5.7712,5.7746,5.778,5.7797,5.7848,5.7881,5.7954,5.8082,5.8137,5.8137,5.8027,5.7937,5.8317,5.8616,5.9178,5.9861,6.0318,6.0537,6.0519,6.0361,5.9945,5.9342,5.9061,5.8686,5.8082,5.7881,5.7881,5.7881,5.7881,5.7881,5.7881,5.7881,5.7881,5.7881,5.7881,5.7881,5.7881,5.7881,5.7881,5.7881,5.7881,5.7881,5.7881,5.7881,5.7954,5.8027,5.8065,5.8266,5.8443,5.8806,5.8922,5.9033,5.9024,5.9028,5.9011,5.9061,5.9098,5.9184,5.8996,5.877,5.8424,5.7937,5.7881,5.7881,5.7881,5.7881,5.7881,5.7881,5.7881,6.2023,6.2654,6.2755,6.2823,6.2823,6.2823,6.2823,6.2823,6.2823,6.2823,6.2823,6.2823,6.2823,6.2823,6.2823,6.2823,6.2823,6.2823,6.2823,6.2755,6.2585,6.1733,6.058,6.0353,5.9212,5.8137,5.7881,5.7881,5.7881,5.7881,5.7881,5.7881,5.7881,5.7881,5.7881,5.7881,5.7881,5.7881,5.7881,5.7881,5.7881,5.7881,5.7881,5.7881,5.7881,5.7881,5.7937,5.7937,5.801,5.801,5.7937,5.7954,5.801,5.8633,5.8875,5.8755,5.8441,5.8192,5.8875,5.9294,5.9843,6.0725,6.1343,6.1451,6.1376,6.0952,6.032,5.9227,5.9178,5.8875,5.8263,5.7937,5.7881,5.7881,5.7881,5.7881,5.7881,5.7881,5.7881,5.7881,5.7881,5.7881,5.7881,5.7881,5.7881,5.7881,5.7881,5.7881,5.7881,5.7881,5.8129,5.8254,5.8461,5.8634,5.9009,5.9294,5.9469,5.9734,5.9749,5.9721,5.9768,5.9797,6.0079,6.015,5.9935,5.9704,5.9311,5.8806,5.8192,5.801,5.8209,5.8082,5.7898,5.7954,5.8065,6.2515,6.2823,6.2823,6.2823,6.2823,6.2823,6.2823,6.2823,6.2823,6.2823,6.2823,6.2823,6.2823,6.2823,6.2823,6.2823,6.2823,6.2823,6.2823,6.2823,6.2686,6.1915,6.07,6.0291,5.9526,5.8263,5.7881,5.7881,5.7881,5.7881,5.7881,5.7881,5.7881,5.7881,5.7881,5.7881,5.7881,5.7881,5.7881,5.7881,5.7881,5.7881,5.7881,5.7881,5.7937,5.7937,5.8065,5.837,5.8581,5.8633,5.8703,5.9028,5.9212,5.9394,5.946,5.9832,5.9591,5.9526,5.9832,6.0238,6.0843,6.1474,6.1969,6.2255,6.2202,6.1932,6.1333,6.0647,6.0068,5.9443,5.8703,5.812,5.7937,5.7881,5.7937,5.7881,5.7881,5.7881,5.7881,5.7881,5.7881,5.7881,5.7881,5.7881,5.7881,5.7881,5.7898,5.7915,5.7898,5.7881,5.822,5.8685,5.8894,5.9168,5.9599,6.0005,6.0068,6.0237,6.0237,6.0273,6.0397,6.0527,6.0894,6.1085,6.0997,6.0658,6.03,5.9556,5.8823,5.8633,5.8581,5.8667,5.8735,5.8668,5.8737,6.2218,6.2236,6.264,6.2823,6.2823,6.2823,6.2823,6.2823,6.2823,6.2823,6.2823,6.2823,6.2823,6.2823,6.2823,6.2823,6.2823,6.2823,6.2823,6.2823,6.2636,6.1842,6.0838,6.0291,5.9526,5.7881,5.7881,5.7881,5.7881,5.7881,5.7881,5.7881,5.7881,5.7881,5.7881,5.7881,5.7881,5.7881,5.7881,5.7881,5.7881,5.7881,5.8082,5.8137,5.8192,5.8334,5.8581,5.9078,5.9377,5.946,5.9591,5.985,6.0104,6.0211,6.0318,6.07,6.076,6.0997,6.1113,6.1286,6.1641,6.2023,6.2324,6.2705,6.2705,6.2755,6.2446,6.1474,6.1055,6.0318,5.9509,5.8686,5.8373,5.8195,5.8103,5.7993,5.7915,5.8073,5.8039,5.7881,5.7881,5.7881,5.7881,5.7881,5.7881,5.7881,5.7898,5.8005,5.8145,5.8252,5.8754,5.9295,5.9858,6.0167,6.044,6.0772,6.0814,6.0897,6.082,6.0997,6.1247,6.151,6.1806,6.1879,6.1805,6.1824,6.1568,6.0484,5.9443,5.9639,5.9803,5.9722,5.9708,5.96,5.9478,6.0566,6.0694,6.2181,6.275,6.2787,6.2823,6.2823,6.2823,6.2823,6.2823,6.2823,6.2823,6.2823,6.2823,6.2823,6.2823,6.2823,6.2823,6.2823,6.2823,6.2636,6.1806,6.0897,6.0166,5.9526,5.8137,5.7881,5.7881,5.7881,5.7881,5.7881,5.7881,5.7881,5.7881,5.7881,5.7881,5.7881,5.7881,5.7881,5.7881,5.7954,5.801,5.8317,5.8806,5.9061,5.9394,6.0166,6.0211,6.0256,6.0335,6.0519,6.058,6.0897,6.1131,6.1418,6.1548,6.1969,6.2166,6.2271,6.1969,6.2023,6.2446,6.2755,6.2823,6.2823,6.2823,6.2394,6.1842,6.1474,6.1073,6.0318,5.9621,5.9108,5.8974,5.8772,5.859,5.8532,5.84,5.8332,5.8039,5.8065,5.8458,5.8511,5.8651,5.837,5.83,5.8667,5.8771,5.8917,5.911,5.9554,6.0176,6.0879,6.1297,6.1501,6.1672,6.1842,6.1915,6.1915,6.2148,6.2394,6.2585,6.2412,6.2482,6.2412,6.2636,6.2618,6.14,6.0683,6.0938,6.095,6.0591,6.0538,6.06,6.0432,6.0401,6.0474,6.1098,6.1612,6.2108,6.2622,6.2823,6.2823,6.2823,6.2823,6.2823,6.2823,6.2823,6.2823,6.2823,6.2823,6.2823,6.2823,6.2823,6.2823,6.2636,6.1806,6.0897,6.0166,5.9543,5.8192,5.7881,5.7881,5.7881,5.7881,5.7881,5.7881,5.7881,5.7881,5.7881,5.7881,5.7881,5.7881,5.7881,5.7881,5.801,5.8441,5.8806,5.9044,5.9768,6.0023,6.0414,6.0897,6.1055,6.1247,6.1566,6.1677,6.1677,6.2094,6.2219,6.2271,6.2636,6.2755,6.2823,6.2515,6.2515,6.2636,6.2805,6.2823,6.2823,6.2823,6.2705,6.2324,6.1879,6.1474,6.1171,6.044,5.9861,5.9808,5.9644,5.9323,5.9202,5.9098,5.9115,5.9001,5.9255,5.9591,5.9591,5.9526,5.9128,5.8806,5.9165,5.954,5.9702,5.9976,6.0403,6.0826,6.1532,6.1951,6.2132,6.2449,6.2805,6.2823,6.2823,6.2823,6.2823,6.2805,6.2705,6.2805,6.2823,6.2805,6.2567,6.2094,6.1842,6.1915,6.1622,6.1109,6.1203,6.1487,6.1376,5.9685,5.9722,5.9942,6.0511,6.1263,6.1851,6.2236,6.2438,6.2438,6.2622,6.2805,6.2823,6.2823,6.2823,6.2823,6.2823,6.2823,6.2823,6.2823,6.2823,6.2636,6.1806,6.0897,6.0166,5.9526,5.8263,5.7881,5.7881,5.7881,5.7881,5.7881,5.7881,5.7881,5.7881,5.7881,5.7881,5.7881,5.7881,5.8137,5.8263,5.837,5.9078,5.9733,5.9925,6.0501,6.0938,6.1304,6.1733,6.1915,6.2094,6.2394,6.2705,6.2755,6.2823,6.2823,6.2823,6.2823,6.2823,6.2823,6.2823,6.2823,6.2823,6.2823,6.2823,6.2823,6.2823,6.2755,6.2705,6.2253,6.1951,6.1897,6.1229,6.0764,6.0697,6.0247,5.9961,5.9995,5.9953,6.0043,6.0101,6.0273,6.022,6.0335,6.0273,6.0131,5.9751,5.9756,6.0165,6.0644,6.0843,6.1135,6.1588,6.2029,6.2398,6.2663,6.2768,6.2823,6.2823,6.2823,6.2823,6.2823,6.2823,6.2823,6.2823,6.2823,6.2823,6.2636,6.2342,6.2464,6.2705,6.2271,6.1806,6.1933,6.2149,6.2184,5.8107,5.8143,5.8933,5.9685,6.0346,6.0474,6.0988,6.1722,6.1832,6.2199,6.2787,6.2823,6.2823,6.2823,6.2823,6.2823,6.2823,6.2823,6.2823,6.2823,6.2755,6.1788,6.0938,6.0273,5.9656,5.8334,5.7881,5.7881,5.7881,5.7881,5.7881,5.7881,5.7881,5.7881,5.7881,5.7881,5.7881,5.801,5.8633,5.8875,5.9128,5.9832,6.0622,6.1037,6.1418,6.1842,6.22,6.2394,6.2515,6.2636,6.2636,6.2823,6.2823,6.2823,6.2823,6.2823,6.2823,6.2823,6.2823,6.2823,6.2823,6.2823,6.2823,6.2823,6.2823,6.2823,6.2823,6.2755,6.2636,6.2636,6.2446,6.2111,6.1749,6.1462,6.1024,6.0843,6.0952,6.0956,6.106,6.1136,6.0747,6.0532,6.0759,6.0938,6.0997,6.076,6.0476,6.0751,6.137,6.1652,6.1896,6.2075,6.2443,6.2535,6.2768,6.2787,6.2823,6.2823,6.2823,6.2823,6.2823,6.2823,6.2823,6.2823,6.2823,6.2823,6.2823,6.2755,6.2823,6.2823,6.2823,6.2585,6.2686,6.2686,6.2636,5.7978,5.8015,5.829,5.8565,5.9024,6.0548,6.1355,6.1667,6.2144,6.2567,6.275,6.2823,6.2823,6.2823,6.2823,6.2823,6.2823,6.2823,6.2823,6.2823,6.2823,6.2148,6.1304,6.0519,5.9786,5.8823,5.8317,5.7881,5.7881,5.7881,5.7881,5.7881,5.7881,5.7881,5.7881,5.7881,5.7881,5.801,5.8633,5.9128,5.9311,6.044,6.1361,6.1659,6.2076,6.2497,6.2755,6.2805,6.2823,6.2823,6.2823,6.2823,6.2823,6.2823,6.2823,6.2823,6.2823,6.2823,6.2823,6.2823,6.2823,6.2823,6.2823,6.2823,6.2823,6.2823,6.2823,6.2823,6.2823,6.2823,6.2636,6.2567,6.2402,6.2402,6.2129,6.2164,6.2144,6.2162,6.2193,6.2245,6.2,6.1858,6.1968,6.1788,6.1733,6.186,6.1622,6.1677,6.2186,6.2332,6.2515,6.2534,6.2732,6.2768,6.2823,6.2823,6.2823,6.2823,6.2823,6.2823,6.2823,6.2823,6.2823,6.2823,6.2823,6.2823,6.2823,6.2823,6.2823,6.2823,6.2823,6.2823,6.2755,6.2755,6.2755,5.7978,5.7978,5.7978,5.7978,5.829,5.9997,6.1025,6.1649,6.2438,6.2823,6.2823,6.2823,6.2823,6.2823,6.2823,6.2823,6.2823,6.2823,6.2823,6.2823,6.2823,6.2271,6.1548,6.076,5.9896,5.9128,5.837,5.7881,5.7881,5.7881,5.7881,5.7881,5.7954,5.7881,5.7881,5.7881,5.8065,5.8441,5.9195,5.9815,6.0361,6.1229,6.2023,6.22,6.2446,6.2823,6.2823,6.2823,6.2823,6.2823,6.2823,6.2823,6.2823,6.2823,6.2823,6.2823,6.2823,6.2823,6.2823,6.2823,6.2823,6.2823,6.2823,6.2823,6.2823,6.2823,6.2823,6.2823,6.2823,6.2823,6.2823,6.2823,6.2805,6.2805,6.2737,6.27,6.27,6.265,6.265,6.2718,6.2787,6.2805,6.2823,6.2755,6.2515,6.2636,6.2755,6.2823,6.2823,6.2823,6.2823,6.2823,6.2823,6.2823,6.2823,6.2823,6.2823,6.2823,6.2823,6.2823,6.2823,6.2823,6.2823,6.2823,6.2823,6.2823,6.2823,6.2823,6.2823,6.2823,6.2823,6.2823,6.2823,6.2823,6.2823,5.7978,5.7978,5.7978,5.7978,5.8143,5.9024,6.0181,6.1575,6.2383,6.2713,6.2732,6.275,6.2823,6.2823,6.2823,6.2823,6.2823,6.2823,6.2823,6.2823,6.2823,6.2271,6.1659,6.082,6.0086,5.9195,5.8441,5.7881,5.7881,5.8137,5.8137,5.8065,5.8334,5.8246,5.8263,5.8388,5.8581,5.9078,5.9879,6.0544,6.1229,6.2094,6.2515,6.2636,6.2755,6.2823,6.2823,6.2823,6.2823,6.2823,6.2823,6.2823,6.2823,6.2823,6.2823,6.2823,6.2823,6.2823,6.2823,6.2823,6.2823,6.2823,6.2823,6.2823,6.2823,6.2823,6.2823,6.2823,6.2823,6.2823,6.2823,6.2823,6.2823,6.2805,6.2805,6.2805,6.2805,6.2755,6.2755,6.2805,6.2805,6.2823,6.2823,6.2823,6.2823,6.2823,6.2823,6.2823,6.2823,6.2823,6.2823,6.2823,6.2823,6.2823,6.2823,6.2823,6.2823,6.2823,6.2823,6.2823,6.2823,6.2823,6.2823,6.2823,6.2823,6.2823,6.2823,6.2823,6.2823,6.2823,6.2823,6.2823,6.2823,6.2823,6.2823,5.7978,5.7978,5.7978,5.7978,5.8107,5.8859,5.9813,6.0805,6.1594,6.1942,6.1961,6.2567,6.2805,6.2823,6.2823,6.2823,6.2823,6.2823,6.2823,6.2823,6.2823,6.2636,6.2023,6.1131,6.0397,5.9591,5.8772,5.7881,5.8082,5.8317,5.8686,5.8806,5.9212,5.9128,5.9128,5.9346,5.9377,5.9621,6.0544,6.1229,6.1715,6.2446,6.2705,6.2823,6.2823,6.2823,6.2823,6.2823,6.2823,6.2823,6.2823,6.2823,6.2823,6.2823,6.2823,6.2823,6.2823,6.2823,6.2823,6.2823,6.2823,6.2823,6.2823,6.2823,6.2823,6.2823,6.2823,6.2823,6.2823,6.2823,6.2823,6.2823,6.2823,6.2823,6.2823,6.2823,6.2823,6.2823,6.2823,6.2823,6.2823,6.2823,6.2823,6.2823,6.2823,6.2823,6.2823,6.2823,6.2823,6.2823,6.2823,6.2823,6.2823,6.2823,6.2823,6.2823,6.2823,6.2823,6.2823,6.2823,6.2823,6.2823,6.2823,6.2823,6.2823,6.2823,6.2823,6.2823,6.2823,6.2823,6.2823,6.2823,6.2823,6.2823,6.2823,5.7978,5.7978,5.7978,5.7978,5.807,5.8529,5.9024,5.9648,6.0951,6.1575,6.1686,6.2475,6.2823,6.2823,6.2823,6.2823,6.2823,6.2823,6.2823,6.2823,6.2823,6.2755,6.2271,6.1304,6.0537,5.9786,5.896,5.7881,5.8192,5.8686,5.9111,5.9639,6.0273,6.0023,5.996,6.0318,6.0501,6.0665,6.1037,6.1659,6.2148,6.2515,6.2705,6.2823,6.2823,6.2823,6.2823,6.2823,6.2823,6.2823,6.2823,6.2823,6.2823,6.2823,6.2823,6.2823,6.2823,6.2823,6.2823,6.2823,6.2823,6.2823,6.2823,6.2823,6.2823,6.2823,6.2823,6.2823,6.2823,6.2823,6.2823,6.2823,6.2823,6.2823,6.2823,6.2823,6.2823,6.2823,6.2823,6.2823,6.2823,6.2823,6.2823,6.2823,6.2823,6.2823,6.2823,6.2823,6.2823,6.2823,6.2823,6.2823,6.2823,6.2823,6.2823,6.2823,6.2823,6.2823,6.2823,6.2823,6.2823,6.2823,6.2823,6.2823,6.2823,6.2823,6.2823,6.2823,6.2823,6.2823,6.2823,6.2823,6.2823,6.2823,6.2823,5.7978,5.7978,5.7978,5.7978,5.7978,5.8033,5.807,5.8235,6.0346,6.141,6.1575,6.231,6.2695,6.2768,6.2823,6.2823,6.2823,6.2823,6.2823,6.2823,6.2823,6.2823,6.2342,6.1361,6.082,6.0023,5.9346,5.8703,5.8616,5.9245,6.0068,6.0458,6.07,6.07,6.07,6.1304,6.153,6.1586,6.1715,6.2094,6.2515,6.2755,6.2823,6.2823,6.2823,6.2823,6.2823,6.2823,6.2823,6.2823,6.2823,6.2823,6.2823,6.2823,6.2823,6.2823,6.2823,6.2823,6.2823,6.2823,6.2823,6.2823,6.2823,6.2823,6.2823,6.2823,6.2823,6.2823,6.2823,6.2823,6.2823,6.2823,6.2823,6.2823,6.2823,6.2823,6.2823,6.2823,6.2823,6.2823,6.2823,6.2823,6.2823,6.2823,6.2823,6.2823,6.2823,6.2823,6.2823,6.2823,6.2823,6.2823,6.2823,6.2823,6.2823,6.2823,6.2823,6.2823,6.2823,6.2823,6.2823,6.2823,6.2823,6.2823,6.2823,6.2823,6.2823,6.2823,6.2823,6.2823,6.2823,6.2823,6.2823,6.2823,6.2823,5.7978,5.7978,5.7978,5.7978,5.7978,5.7978,5.7978,5.8088,5.9208,6.0144,6.0768,6.1539,6.2291,6.2768,6.2805,6.2823,6.2823,6.2823,6.2823,6.2823,6.2823,6.2823,6.2636,6.1715,6.1286,6.0979,6.044,5.9896,6.03,6.0725,6.1037,6.1361,6.1659,6.1788,6.1361,6.2076,6.2394,6.2376,6.2394,6.2446,6.2705,6.2823,6.2823,6.2823,6.2823,6.2823,6.2823,6.2823,6.2823,6.2823,6.2823,6.2823,6.2823,6.2823,6.2823,6.2823,6.2823,6.2823,6.2823,6.2823,6.2823,6.2823,6.2823,6.2823,6.2823,6.2823,6.2823,6.2823,6.2823,6.2823,6.2823,6.2823,6.2823,6.2823,6.2823,6.2823,6.2823,6.2823,6.2823,6.2823,6.2823,6.2823,6.2823,6.2823,6.2823,6.2823,6.2823,6.2823,6.2823,6.2823,6.2823,6.2823,6.2823,6.2823,6.2823,6.2823,6.2823,6.2823,6.2823,6.2823,6.2823,6.2823,6.2823,6.2823,6.2823,6.2823,6.2823,6.2823,6.2823,6.2823,6.2823,6.2823,6.2823,6.2823,6.2823,5.7978,5.7978,5.7978,5.7978,5.7978,5.7978,5.7978,5.807,5.8474,5.9116,6.0015,6.1062,6.2053,6.2713,6.2805,6.2823,6.2823,6.2823,6.2823,6.2823,6.2823,6.2823,6.2446,6.2004,6.1641,6.1343,6.082,6.07,6.153,6.1586,6.1586,6.2076,6.2567,6.2567,6.2148,6.2585,6.2823,6.2755,6.2823,6.2823,6.2823,6.2823,6.2823,6.2823,6.2823,6.2823,6.2823,6.2823,6.2823,6.2823,6.2823,6.2823,6.2823,6.2823,6.2823,6.2823,6.2823,6.2823,6.2823,6.2823,6.2823,6.2823,6.2823,6.2823,6.2823,6.2823,6.2823,6.2823,6.2823,6.2823,6.2823,6.2823,6.2823,6.2823,6.2823,6.2823,6.2823,6.2823,6.2823,6.2823,6.2823,6.2823,6.2823,6.2823,6.2823,6.2823,6.2823,6.2823,6.2823,6.2823,6.2823,6.2823,6.2823,6.2823,6.2823,6.2823,6.2823,6.2823,6.2823,6.2823,6.2823,6.2823,6.2823,6.2823,6.2823,6.2823,6.2823,6.2823,6.2823,6.2823,6.2823,6.2823,6.2823,6.2823,6.2823,5.7978,5.7978,5.7978,5.7978,5.7978,5.7978,5.7978,5.7997,5.8015,5.8492,5.9391,6.0786,6.1851,6.2438,6.2805,6.2823,6.2823,6.2823,6.2823,6.2823,6.2823,6.2823,6.2567,6.2148,6.2023,6.1715,6.1304,6.1418,6.1897,6.1951,6.22,6.2705,6.2823,6.2805,6.2823,6.2823,6.2823,6.2823,6.2823,6.2823,6.2823,6.2823,6.2823,6.2823,6.2823,6.2823,6.2823,6.2823,6.2823,6.2823,6.2823,6.2823,6.2823,6.2823,6.2823,6.2823,6.2823,6.2823,6.2823,6.2823,6.2823,6.2823,6.2823,6.2823,6.2823,6.2823,6.2823,6.2823,6.2823,6.2823,6.2823,6.2823,6.2823,6.2823,6.2823,6.2823,6.2823,6.2823,6.2823,6.2823,6.2823,6.2823,6.2823,6.2823,6.2823,6.2823,6.2823,6.2823,6.2823,6.2823,6.2823,6.2823,6.2823,6.2823,6.2823,6.2823,6.2823,6.2823,6.2823,6.2823,6.2823,6.2823,6.2823,6.2823,6.2823,6.2823,6.2823,6.2823,6.2823,6.2823,6.2823,6.2823,6.2823,6.2823,6.2823,5.7978,5.7978,5.7978,5.7978,5.7978,5.7978,5.7978,5.7978,5.7997,5.8455,5.9245,6.0126,6.108,6.1869,6.2585,6.2805,6.2823,6.2823,6.2823,6.2823,6.2823,6.2823,6.2755,6.2515,6.2585,6.2394,6.22,6.2446,6.2342,6.2446,6.2567,6.2805,6.2823,6.2823,6.2823,6.2823,6.2823,6.2823,6.2823,6.2823,6.2823,6.2823,6.2823,6.2823,6.2823,6.2823,6.2823,6.2823,6.2823,6.2823,6.2823,6.2823,6.2823,6.2823,6.2823,6.2823,6.2823,6.2823,6.2823,6.2823,6.2823,6.2823,6.2823,6.2823,6.2823,6.2823,6.2823,6.2823,6.2823,6.2823,6.2823,6.2823,6.2823,6.2823,6.2823,6.2823,6.2823,6.2823,6.2823,6.2823,6.2823,6.2823,6.2823,6.2823,6.2823,6.2823,6.2823,6.2823,6.2823,6.2823,6.2823,6.2823,6.2823,6.2823,6.2823,6.2823,6.2823,6.2823,6.2823,6.2823,6.2823,6.2823,6.2823,6.2823,6.2823,6.2823,6.2823,6.2823,6.2823,6.2823,6.2823,6.2823,6.2823,6.2823,6.2823]},{"header":{"parameterUnit":"m.s-1","parameterCategory":1,"la1":31.0,"la2":29.5877,"lo1":-88.7671,"lo2":-86.6584,"dy":0.0162,"dx":0.0185,"nx":115,"ny":88,"refTime":"2025-04-08T00:00:00:Z","depth":0,"parameterNumber":3,"parameterNumberName":"V-component_of_WINDS"},"data":[0.0,0.0,0.0,0.0,0.0,0.0,0.0,0.0,0.0,0.0,0.0,0.0,0.0,0.0,0.0,0.0,0.0,0.0,0.0,0.0,0.0,0.0,0.0,0.0,0.0,0.0,0.0,0.0,0.0,0.0,0.0,0.0,0.0,0.0,0.0,0.0,0.0,0.0,0.0,0.0,0.0,0.0,0.0,0.0,0.0,0.0,0.0,0.0,0.0,0.0,0.0,0.0,0.0,0.0,0.0,0.0,0.0,0.0,0.0,0.0,0.0,0.0,0.0,0.0,0.0,0.0,0.0,0.0,0.0,0.0,0.0,0.0,0.0,0.0,0.0,0.0,0.0,0.0,0.0,0.0,0.0,0.0,0.0,0.0,0.0,0.0,0.0,0.0,0.0,0.0,0.0,0.0,0.0,0.0,0.0,0.0,0.0,0.0,0.0,0.0,0.0,0.0,0.0,0.0,0.0,0.0,0.0,0.0,0.0,0.0,0.0,0.0,0.0,0.0,0.0,0.0,0.0,0.0,0.0,0.0,0.0,0.0,0.0,0.0,0.0,0.0,0.0,0.0,0.0,0.0,0.0,0.0,0.0,0.0,0.0,0.0,0.0,0.0,0.0,0.0,0.0,0.0,0.0,0.0,0.0,0.0,0.0,0.0,0.0,0.0,0.0,0.0,0.0,0.0,0.0,0.0,0.0,0.0,0.0,0.0,0.0,0.0,0.0,0.0,0.0,0.0,0.0,0.0,0.0,0.0,0.0,0.0,0.0,0.0,0.0,0.0,0.0,0.0,0.0,0.0,0.0,0.0,0.0,0.0,0.0,0.0,0.0,0.0,0.0,0.0,0.0,0.0,0.0,0.0,0.0,0.0,0.0,0.0,0.0,0.0,0.0,0.0,0.0,0.0,0.0,0.0,0.0,0.0,0.0,0.0,0.0,0.0,0.0,0.0,0.0,0.0,0.0,0.0,0.0,0.0,0.0,0.0,0.0,0.0,0.0,0.0,0.0,0.0,0.0,0.0,0.0,0.0,0.0,0.0,0.0,0.0,0.0,0.0,0.0,0.0,0.0,0.0,0.0,0.0,0.0,0.0,0.0,0.0,0.0,0.0,0.0,0.0,0.0,0.0,0.0,0.0,0.0,0.0,0.0,0.0,0.0,0.0,0.0,0.0,0.0,0.0,0.0,0.0,0.0,0.0,0.0,0.0,0.0,0.0,0.0,0.0,0.0,0.0,0.0,0.0,0.0,0.0,0.0,0.0,0.0,0.0,0.0,0.0,0.0,0.0,0.0,0.0,0.0,0.0,0.0,0.0,0.0,0.0,0.0,0.0,0.0,0.0,0.0,0.0,0.0,0.0,0.0,0.0,0.0,0.0,0.0,0.0,0.0,0.0,0.0,0.0,0.0,0.0,0.0,0.0,0.0,0.0,0.0,0.0,0.0,0.0,0.0,0.0,0.0,0.0,0.0,0.0,0.0,0.0,0.0,0.0,0.0,0.0,0.0,0.0,0.0,0.0,0.0,0.0,0.0,0.0,0.0,0.0,0.0,0.0,0.0,0.0,0.0,0.0,0.0,0.0,0.0,0.0,0.0,0.0,0.0,0.0,0.0,0.0,0.0,0.0,0.0,0.0,0.0,0.0,0.0,0.0,0.0,0.0,0.0,0.0,0.0,0.0,0.0,0.0,0.0,0.0,0.0,0.0,0.0,0.0,0.0,0.0,0.0,0.0,0.0,0.0,0.0,0.0,0.0,0.0,0.0,0.0,0.0,0.0,0.0,0.0,0.0,0.0,0.0,0.0,0.0,0.0,0.0,0.0,0.0,0.0,0.0,0.0,0.0,0.0,0.0,0.0,0.0,0.0,0.0,0.0,0.0,0.0,0.0,0.0,0.0,0.0,0.0,0.0,0.0,0.0,0.0,0.0,0.0,0.0,0.0,0.0,0.0,0.0,0.0,0.0,0.0,0.0,0.0,0.0,0.0,0.0,0.0,0.0,0.0,0.0,0.0,0.0,0.0,0.0,0.0,0.0,0.0,0.0,0.0,0.0,0.0,0.0,0.0,0.0,0.0,0.0,0.0,0.0,0.0,0.0,0.0,0.0,0.0,0.0,0.0,0.0,0.0,0.0,0.0,0.0,0.0,0.0,0.0,0.0,0.0,0.0,0.0,0.0,0.0,0.0,0.0,0.0,0.0,0.0,0.0,0.0,0.0,0.0,0.0,0.0,0.0,0.0,0.0,0.0,0.0,0.0,0.0,0.0,0.0,0.0,0.0,0.0,0.0,0.0,0.0,0.0,0.0,0.0,0.0,0.0,0.0,0.0,0.0,0.0,0.0,0.0,0.0,0.0,0.0,0.0,0.0,0.0,0.0,0.0,0.0,0.0,0.0,0.0,0.0,0.0,0.0,0.0,0.0,0.0,0.0,0.0,0.0,0.0,0.0,0.0,0.0,0.0,0.0,0.0,0.0,0.0,0.0,0.0,0.0,0.0,0.0,0.0,0.0,0.0,0.0,0.0,0.0,0.0,0.0,0.0,0.0,0.0,0.0,0.0,0.0,0.0,0.0,0.0,0.0,0.0,0.0,0.0,0.0,0.0,0.0,0.0,0.0,0.0,0.0,0.0,0.0,0.0,0.0,0.0,0.0,0.0,0.0,0.0,0.0,0.0,0.0,0.0,0.0,0.0,0.0,0.0,0.0,0.0,0.0,0.0,0.0,0.0,0.0,0.0,0.0,0.0,0.0,0.0,0.0,0.0,0.0,0.0,0.0,0.0,0.0,0.0,0.0,0.0,0.0,0.0,0.0,0.0,0.0,0.0,0.0,0.0,0.0,0.0,0.0,0.0,0.0,0.0,0.0,0.0,0.0,0.0,0.0,0.0,0.0,0.0,0.0,0.0,0.0,0.0,0.0,0.0,0.0,0.0,0.0,0.0,0.0,0.0,0.0,0.0,0.0,0.0,0.0,0.0,0.0,0.0,0.0,0.0,0.0,0.0,0.0,0.0,0.0,0.0,0.0,0.0,0.0,0.0,0.0,0.0,0.0,0.0,0.0,0.0,0.0,0.0,0.0,0.0,0.0,0.0,0.0,0.0,0.0,0.0,0.0,0.0,0.0,0.0,0.0,0.0,0.0,0.0,0.0,0.0,0.0,0.0,0.0,0.0,0.0,0.0,0.0,0.0,0.0,0.0,0.0,0.0,0.0,0.0,0.0,0.0,0.0,0.0,0.0,0.0,0.0,0.0,0.0,0.0,0.0,0.0,0.0,0.0,0.0,0.0,0.0,0.0,0.0,0.0,0.0,0.0,0.0,0.0,0.0,0.0,0.0,0.0,0.0,0.0,0.0,0.0,0.0,0.0,0.0,0.0,0.0,0.0,0.0,0.0,0.0,0.0,0.0,0.0,0.0,0.0,0.0,0.0,0.0,0.0,0.0,0.0,0.0,0.0,0.0,0.0,0.0,0.0,0.0,0.0,0.0,0.0,0.0,0.0,0.0,0.0,0.0,0.0,0.0,0.0,0.0,0.0,0.0,0.0,0.0,0.0,0.0,0.0,0.0,0.0,0.0,0.0,0.0,0.0,0.0,0.0,0.0,0.0,0.0,0.0,0.0,0.0,0.0,0.0,0.0,0.0,0.0,0.0,0.0,0.0,0.0,0.0,0.0,0.0,0.0,0.0,0.0,0.0,0.0,0.0,0.0,0.0,0.0,0.0,0.0,0.0,0.0,0.0,0.0,0.0,0.0,0.0,0.0,0.0,0.0,0.0,0.0,0.0,0.0,0.0,0.0,0.0,0.0,0.0,0.0,0.0,0.0,0.0,0.0,0.0,0.0,0.0,0.0,0.0,0.0,0.0,0.0,0.0,0.0,0.0,0.0,0.0,0.0,0.0,0.0,0.0,0.0,0.0,0.0,0.0,0.0,0.0,0.0,0.0,0.0,0.0,0.0,0.0,0.0,0.0,0.0,0.0,0.0,0.0,0.0,0.0,0.0,0.0,0.0,0.0,0.0,0.0,0.0,0.0,0.0,0.0,0.0,0.0,0.0,0.0,0.0,0.0,0.0,0.0,0.0,0.0,0.0,0.0,0.0,0.0,0.0,0.0,0.0,0.0,0.0,0.0,0.0,0.0,0.0,0.0,0.0,0.0,0.0,0.0,0.0,0.0,0.0,0.0,0.0,0.0,0.0,0.0,0.0,0.0,0.0,0.0,0.0,0.0,0.0,0.0,0.0,0.0,0.0,0.0,0.0,0.0,0.0,0.0,0.0,0.0,0.0,0.0,0.2018,0.0,0.0,0.0,0.0,0.0,0.0,0.0,0.0,0.0,0.0,0.0,0.0,0.0,0.0,0.0,0.0,0.0,0.0,0.0,0.0,0.0,0.0,0.0,0.0,0.0,0.0,0.0,0.0,0.0,0.0,0.0,0.0,0.0,0.0,0.0,0.0,0.0,0.0,0.0,0.0,0.0,0.0,0.0,0.0,0.0,0.0,0.0,0.0,0.0,0.0,0.0,0.0,0.0,0.0,0.0,0.0,0.0,0.0,0.0,0.0,0.0,0.0,0.0,0.0,0.0,0.0,0.0,0.0,0.0,0.0,0.0,0.0,0.0,0.0,0.0,0.0,0.0,0.0,0.0,0.0,0.0,0.0,0.0,0.0,0.0,0.0,0.0,0.0,0.0,0.0,0.0,0.0,0.0,0.0,0.0,0.0,0.0,0.0,0.0,0.0,0.0,0.0,0.0,0.0,0.0,0.0,0.0,0.0,0.0,0.0,0.2645,0.2609,0.2357,0.2214,0.2276,0.0,0.0,0.0,0.0,0.0,0.0,0.0,0.0,0.0,0.0,0.0,0.0,0.0,0.0,0.0,0.0,0.0,0.0,0.0,0.0,0.0,0.0,0.0,0.0,0.0,0.0,0.0,0.0,0.0,0.0,0.0,0.0,0.0,0.0,0.0,0.0,0.0,0.0,0.0,0.0,0.0,0.0,0.0,0.0,0.0,0.0,0.0,0.0,0.0,0.0,0.0,0.0,0.0,0.0,0.0,0.0,0.0,0.0,0.0,0.0,0.0,0.0,0.0,0.0,0.0,0.0,0.0,0.0,0.0,0.0,0.0,0.0,0.0,0.0,0.0,0.0,0.0,0.0,0.0,0.0,0.0,0.0,0.0,0.0,0.0,0.0,0.0,0.0,0.0,0.0,0.0,0.0,0.0,0.0,0.0,0.0,0.0,0.0,0.0,0.0,0.0,0.0,0.0,0.0,0.0,0.0,0.0,0.0,0.0,0.0,0.0,0.0,0.2495,0.2499,0.2736,0.0,0.0,0.0,0.0,0.0,0.0,0.0,0.0,0.0,0.0,0.0,0.0,0.0,0.0,0.0,0.0,0.0,0.0,0.0,0.0,0.0,0.0,0.0,0.0,0.0,0.0,0.0,0.0,0.0,0.0,0.0,0.0,0.0,0.0,0.0,0.0,0.0,0.0,0.0,0.0,0.0,0.0,0.0,0.0,0.0,0.0,0.0,0.0,0.0,0.0,0.0,0.0,0.0,0.0,0.0,0.0,0.0,0.0,0.0,0.0,0.0,0.0,0.0,0.0,0.0,0.0,0.0,0.0,0.0,0.0,0.0,0.0,0.0,0.0,0.0,0.0,0.0,0.0,0.0,0.0,0.0,0.0,0.0,0.0,0.0,0.0,0.0,0.0,0.0,0.0,0.0,0.0,0.0,0.0,0.0,0.0,0.0,0.0,0.0,0.0,0.0,0.0,0.0,0.0,0.0,0.0,0.0,0.0,0.0,0.0,0.2808,0.3069,0.2927,0.0,0.3489,0.0,0.0,0.0,0.0,0.0,0.0,0.0,0.0,0.0,0.0,0.0,0.0,0.0,0.0,0.0,0.0,0.0,0.0,0.0,0.0,0.0,0.0,0.0,0.0,0.0,0.0,0.0,0.0,0.0,0.0,0.0,0.0,0.0,0.0,0.0,0.0,0.0,0.0,0.0,0.0,0.0,0.0,0.0,0.0,0.0,0.0,0.0,0.0,0.0,0.0,0.0,0.0,0.0,0.0,0.0,0.0,0.0,0.0,0.0,0.0,0.0,0.0,0.0,0.0,0.0,0.0,0.0,0.0,0.0,0.0,0.0,0.0,0.0,0.0,0.0,0.0,0.0,0.0,0.0,0.0,0.0,0.0,0.0,0.0,0.0,0.0,0.0,0.0,0.0,0.0,0.0,0.0,0.0,0.0,0.0,0.0,0.0,0.0,0.0,0.0,0.0,0.0,0.0,0.0,0.0,0.0,0.0,0.0,0.0,0.0,0.2998,0.312,0.3063,0.332,0.0,0.0,0.0,0.0,0.0,0.0,0.0,0.0,0.0,0.0,0.0,0.0,0.0,0.0,0.0,0.0,0.0,0.0,0.0,0.0,0.0,0.0,0.0,0.0,0.0,0.0,0.0,0.0,0.0,0.0,0.0,0.0,0.0,0.0,0.0,0.0,0.0,0.0,0.0,0.0,0.0,0.0,0.0,0.0,0.0,0.0,0.0,0.0,0.0,0.0,0.0,0.0,0.0,0.0,0.0,0.0,0.0,0.0,0.0,0.0,0.0,0.0,0.0,0.0,0.0,0.0,0.0,0.0,0.0,0.0,0.0,0.0,0.0,0.0,0.0,0.0,0.0,0.0,0.0,0.0,0.0,0.0,0.0,0.0,0.0,0.0,0.0,0.0,0.0,0.0,0.0,0.0,0.0,0.0,0.0,0.0,0.0,0.0,0.0,0.0,0.0,0.0,0.0,0.0,0.0,0.0,0.0,0.0,0.0,0.0,0.3056,0.0,0.3396,0.3483,0.3782,0.4287,0.0,0.0,0.0,0.0,0.0,0.0,0.0,0.0,0.0,0.0,0.0,0.0,0.0,0.0,0.0,0.0,0.0,0.0,0.0,0.0,0.0,0.0,0.0,0.0,0.0,0.0,0.0,0.0,0.0,0.0,0.0,0.0,0.0,0.0,0.0,0.0,0.0,0.0,0.0,0.0,0.0,0.0,0.0,0.0,0.0,0.0,0.0,0.0,0.0,0.0,0.0,0.0,0.0,0.0,0.0,0.0,0.0,0.0,0.0,0.0,0.0,0.0,0.0,0.0,0.0,0.0,0.0,0.0,0.0,0.0,0.0,0.0,0.0,0.0,0.0,0.0,0.0,0.0,0.0,0.0,0.0,0.0,0.0,0.0,0.0,0.0,0.0,0.0,0.0,0.0,0.0,0.0,0.0,0.0,0.0,0.0,0.0,0.0,0.0,0.0,0.0,0.0,0.0,0.0,0.0,0.0,0.0,0.0,0.0,0.3259,0.3457,0.4105,0.4465,0.4609,0.0,0.0,0.0,0.0,0.0,0.0,0.0,0.0,0.0,0.0,0.0,0.0,0.0,0.0,0.0,0.0,0.0,0.0,0.0,0.0,0.0,0.0,0.0,0.0,0.0,0.0,0.0,0.0,0.0,0.0,0.0,0.0,0.0,0.0,0.0,0.0,0.0,0.0,0.0,0.0,0.0,0.0,0.0,0.0,0.0,0.0,0.0,0.0,0.0,0.0,0.0,0.0,0.0,0.0,0.0,0.0,0.0,0.0,0.0,0.0,0.0,0.0,0.0,0.0,0.0,0.0,0.0,0.0,0.0,0.0,0.0,0.0,0.0,0.0,0.0,0.0,0.0,0.0,0.0,0.0,0.0,0.0,0.0,0.0,0.0,0.0,0.0,0.0,0.0,0.0,0.0,0.0,0.0,0.0,0.0,0.0,0.0,0.0,0.0,0.0,0.0,0.0,0.0,0.0,0.0,0.0,0.0,0.0,0.0,0.2995,0.3076,0.3644,0.4701,0.4148,0.4236,0.0,0.0,0.0,0.0,0.0,0.0,0.0,0.0,0.0,0.0,0.0,0.0,0.0,0.0,0.0,0.0,0.0,0.0,0.0,0.0,0.0,0.0,0.0,0.0,0.0,0.0,0.0,0.0,0.0,0.0,0.0,0.0,0.0,0.0,0.0,0.0,0.0,0.0,0.0,0.0,0.0,0.0,0.0,0.0,0.0,0.0,0.0,0.0,0.0,0.0,0.0,0.0,0.0,0.0,0.0,0.0,0.0,0.0,0.0,0.0,0.0,0.0,0.0,0.0,0.0,0.0,0.0,0.0,0.0,0.0,0.0,0.0,0.0,0.0,0.0,0.0,0.0,0.0,0.0,0.0,0.0,0.0,0.0,0.0,0.0,0.0,0.0,0.0,0.0,0.0,0.0,0.0,0.0,0.0,0.0,0.0,0.0,0.0,0.0,0.0,0.0,0.0,0.0,0.0,0.0,0.0,0.0,0.0,0.0,0.3008,0.0,0.4168,0.0,0.4582,0.461,0.0,0.0,0.0,0.0,0.0,0.0,0.0,0.0,0.0,0.0,0.0,0.0,0.0,0.0,0.0,0.0,0.0,0.0,0.0,0.0,0.0,0.0,0.0,0.0,0.0,0.0,0.0,0.0,0.0,0.0,0.0,0.0,0.0,0.0,0.0,0.0,0.0,0.0,0.0,0.0,0.0,0.0,0.0,0.0,0.0,0.0,0.0,0.0,0.0,0.0,0.0,0.0,0.0,0.0,0.0,0.0,0.0,0.0,0.0,0.0,0.0,0.0,0.0,0.0,0.0,0.0,0.0,0.0,0.0,0.0,0.0,0.0,0.0,0.0,0.0,0.0,0.0,0.0,0.0,0.0,0.0,0.0,0.0,0.0,0.0,0.0,0.0,0.0,0.0,0.0,0.0,0.0,0.0,0.0,0.0,0.0,0.0,0.0,0.0,0.0,0.0,0.0,0.0,0.0,0.0,0.0,0.0,0.0,0.3015,0.3585,0.4581,0.5012,0.499,0.5786,0.5856,0.0,0.0,0.0,0.0,0.0,0.0,0.0,0.0,0.0,0.0,0.0,0.0,0.0,0.0,0.0,0.0,0.0,0.0,0.0,0.0,0.0,0.0,0.0,0.0,0.0,0.0,0.0,0.0,0.0,0.0,0.0,0.0,0.0,0.0,0.0,0.0,0.0,0.0,0.0,0.0,0.0,0.0,0.0,0.0,0.0,0.0,0.0,0.0,0.0,0.0,0.0,0.0,0.0,0.0,0.0,0.0,0.0,0.0,0.0,0.0,0.0,0.0,0.0,0.0,0.0,0.0,0.0,0.0,0.0,0.0,0.0,0.0,0.0,0.0,0.0,0.0,0.0,0.0,0.0,0.0,0.0,0.0,0.0,0.0,0.0,0.0,0.0,0.0,0.0,0.0,0.0,0.0,0.0,0.0,0.0,0.0,0.0,0.0,0.0,0.0,0.0,0.0,0.0,0.0,0.0,0.0,0.0,0.0,0.0,0.4062,0.4981,0.5864,0.6516,0.5878,0.5695,0.0,0.0,0.0,0.0,0.0,0.0,0.0,0.0,0.0,0.0,0.0,0.0,0.0,0.0,0.0,0.0,0.0,0.0,0.0,0.0,0.0,0.0,0.0,0.0,0.0,0.0,0.0,0.0,0.0,0.0,0.0,0.0,0.0,0.0,0.0,0.0,0.0,0.0,0.0,0.0,0.0,0.0,0.0,0.0,0.0,0.0,0.0,0.0,0.0,0.0,0.0,0.0,0.0,0.0,0.0,0.0,0.0,0.0,0.0,0.0,0.0,0.0,0.0,0.0,0.0,0.0,0.0,0.0,0.0,0.0,0.0,0.0,0.0,0.0,0.0,0.0,0.0,0.0,0.0,0.0,0.0,0.0,0.0,0.0,0.0,0.0,0.0,0.0,0.0,0.0,0.0,0.0,0.0,0.0,0.0,0.0,0.0,0.0,0.0,0.0,0.0,0.0,0.0,0.0,0.0,0.0,0.0,0.0,0.0,0.6428,0.6834,0.7314,0.7802,0.7222,0.6994,0.7216,0.0,0.0,0.0,0.0,0.0,0.0,0.0,0.0,0.0,0.0,0.0,0.0,0.0,0.0,0.0,0.0,0.0,0.0,0.0,0.0,0.0,0.0,0.0,0.0,0.0,0.0,0.0,0.0,0.0,0.0,0.0,0.0,0.0,0.0,0.0,0.0,0.0,0.0,0.0,0.0,0.0,0.0,0.0,0.0,0.0,0.0,0.0,0.0,0.0,0.0,0.0,0.0,0.0,0.0,0.0,0.0,0.0,0.0,0.0,0.0,0.0,0.0,0.0,0.0,0.0,0.0,0.0,0.0,0.0,0.0,0.0,0.0,0.0,0.0,0.0,0.0,0.0,0.0,0.0,0.0,0.0,0.0,0.0,0.0,0.0,0.0,0.0,0.0,0.0,0.0,0.0,0.0,0.0,0.0,0.0,0.0,0.0,0.0,0.0,0.0,0.0,0.0,0.0,0.0,0.0,0.0,0.0,0.0,1.0305,0.9957,0.9542,0.9049,0.9595,0.952,0.0,0.0,0.0,0.0,0.0,0.0,0.0,0.0,0.0,0.0,0.0,0.0,0.0,0.0,0.0,0.0,0.0,0.0,0.0,0.0,0.0,0.0,0.0,0.0,0.0,0.0,0.0,0.0,0.0,0.0,0.0,0.0,0.0,0.0,0.0,0.0,0.0,0.0,0.0,0.0,0.0,0.0,0.0,0.0,0.0,0.0,0.0,0.0,0.0,0.0,0.0,0.0,0.0,0.0,0.0,0.0,0.0,0.0,0.0,0.0,0.0,0.0,0.0,0.0,0.0,0.0,0.0,0.0,0.0,0.0,0.0,0.0,0.0,0.0,0.0,0.0,0.0,0.0,0.0,0.0,0.0,0.0,0.0,0.0,0.0,0.0,0.0,0.0,0.0,0.0,0.0,0.0,0.0,0.0,0.0,0.0,0.0,0.0,0.0,0.0,0.0,0.0,0.0,0.0,0.0,0.0,0.0,0.0,0.0,1.1943,1.3597,1.374,1.2256,1.135,1.0437,0.0,0.0,0.0,0.0,0.0,0.0,0.0,0.0,0.0,0.0,0.0,0.0,0.0,0.0,0.0,0.0,0.0,0.0,0.0,0.0,0.0,0.0,0.0,0.0,0.0,0.0,0.0,0.0,0.0,0.0,0.0,0.0,0.0,0.0,0.0,0.0,0.0,0.0,0.0,0.0,0.0,0.0,0.0,0.0,0.0,0.0,0.0,0.0,0.0,0.0,0.0,0.0,0.0,0.0,0.0,0.0,0.0,0.0,0.0,0.0,0.0,0.0,0.0,0.0,0.0,0.0,0.0,0.0,0.0,0.0,0.0,0.0,0.0,0.0,0.0,0.0,0.0,0.0,0.0,0.0,0.0,0.0,0.0,0.0,0.0,0.0,0.0,0.0,0.0,0.0,0.0,0.0,0.0,0.0,0.0,0.0,0.0,0.0,0.0,0.0,0.0,0.0,0.0,0.0,0.0,0.0,0.0,0.0,1.2172,1.4088,1.602,1.6601,1.5926,1.4008,1.2395,0.0,0.0,0.0,0.0,0.0,0.0,0.0,0.0,0.0,0.0,0.0,0.0,0.0,0.0,0.0,0.0,0.0,0.0,0.0,0.0,0.0,0.0,0.0,0.0,0.0,0.0,0.0,0.0,0.0,0.0,0.0,0.0,0.0,0.0,0.0,0.0,0.0,0.0,0.0,0.0,0.0,0.0,0.0,0.0,0.0,0.0,0.0,0.0,0.0,0.0,0.0,0.0,0.0,0.0,0.0,0.0,0.0,0.0,0.0,0.0,0.0,0.0,0.0,0.0,0.0,0.0,0.0,0.0,0.0,0.0,0.0,0.0,0.0,0.0,0.0,0.0,0.0,0.0,0.0,0.0,0.0,0.0,0.0,0.0,0.0,0.0,0.0,0.0,0.0,0.0,0.0,0.0,0.0,0.0,0.0,0.0,0.0,0.0,0.0,0.0,0.0,0.0,0.0,0.0,0.0,0.0,0.0,0.0,1.3722,1.6471,1.7596,1.8583,1.9346,1.6904,1.4775,0.0,0.0,0.0,0.0,0.0,0.0,0.0,0.0,0.0,0.0,0.0,0.0,0.0,0.0,0.0,0.0,0.0,0.0,0.0,0.0,0.0,0.0,0.0,0.0,0.0,0.0,0.0,0.0,0.0,0.0,0.0,0.0,0.0,0.0,0.0,0.0,0.0,0.0,0.0,0.0,0.0,0.0,0.0,0.0,0.0,0.0,0.0,0.0,0.0,0.0,0.0,0.0,0.0,0.0,0.0,0.0,0.0,0.0,0.0,0.0,0.0,0.0,0.0,0.0,0.0,0.0,0.0,0.0,0.0,0.0,0.0,0.0,0.0,0.0,0.0,0.0,0.0,0.0,0.0,0.0,0.0,0.0,0.0,0.0,0.0,0.0,0.0,0.0,0.0,0.0,0.0,0.0,0.0,0.0,0.0,0.0,0.0,0.0,0.0,0.0,0.0,0.0,0.0,0.0,0.0,0.0,0.0,0.0,1.509,1.7796,1.9259,2.0139,2.0283,1.7803,1.5801,0.0,0.0,0.0,0.0,0.0,0.0,0.0,0.0,0.0,0.0,0.0,0.0,0.0,0.0,0.0,0.0,0.0,0.0,0.0,0.0,0.0,0.0,0.0,0.0,0.0,0.0,0.0,0.0,0.0,0.0,0.0,0.0,0.0,0.0,0.0,0.0,0.0,0.0,0.0,0.0,0.0,0.0,0.0,0.0,0.0,0.0,0.0,0.0,0.3872,0.0,0.0,0.0,0.0,0.0,0.0,0.0,0.0,0.0,0.0,0.0,0.0,0.0,0.0,0.0,0.0,0.0,0.0,0.0,0.0,0.0,0.0,0.0,0.0,0.0,0.0,0.0,0.0,0.0,0.0,0.0,0.0,0.0,0.0,0.0,0.0,0.0,0.0,0.0,0.0,0.0,0.0,0.0,0.0,0.0,0.0,0.0,0.0,0.0,0.0,0.0,0.0,0.0,0.0,0.0,0.0,0.0,0.0,0.0,1.6276,1.9003,2.0469,2.1313,2.1484,1.9231,1.7031,0.0,0.0,0.0,0.0,0.0,0.0,0.0,0.0,0.0,0.0,0.0,0.0,0.0,0.0,0.0,0.0,0.0,0.0,0.0,0.0,0.0,0.0,0.0,0.0,0.0,0.0,0.0,0.0,0.0,0.0,0.0,0.0,0.0,0.0,0.0,0.0,0.0,0.0,0.0,0.0,0.0,0.0,0.0,0.0,0.0,0.0,0.0,0.0,0.0,0.0,0.0,0.0,0.0,0.0,0.0,0.0,0.0,0.0,0.0,0.0,0.0,0.0,0.0,0.0,0.0,0.0,0.0,0.0,0.0,0.0,0.0,0.0,0.0,0.0,0.0,0.0,0.0,0.0,0.0,0.0,0.0,0.0,0.0,0.0,0.0,0.0,0.0,0.0,0.0,0.0,0.0,0.0,0.0,0.0,0.0,0.0,0.0,0.0,0.0,0.0,0.0,0.0,0.0,0.0,0.0,0.0,0.0,1.4898,1.736,2.0187,2.1499,2.2312,2.2746,2.0923,1.865,1.6048,0.0,0.0,0.0,0.0,0.0,0.0,0.0,0.0,0.0,0.0,0.0,0.0,0.0,0.0,0.0,0.0,0.0,0.0,0.0,0.0,0.0,0.0,0.0,0.0,0.0,0.0,0.0,0.0,0.0,0.0,0.0,0.0,0.0,0.0,0.0,0.0,0.0,0.0,0.6353,0.8065,0.0,0.0,0.0,0.0,0.0,0.0,0.0,0.0,0.5723,0.0,0.0,0.0,0.0,0.0,0.0,0.0,0.0,0.0,0.0,0.0,0.0,0.0,0.0,0.0,0.0,0.0,0.0,0.0,0.0,0.0,0.0,0.0,0.0,0.0,0.0,0.0,0.0,0.0,0.0,0.0,0.0,0.0,0.0,0.0,0.0,0.0,0.0,0.0,0.0,0.0,0.0,0.0,0.0,0.0,0.0,0.0,0.0,0.0,0.0,0.0,0.0,0.0,0.0,0.0,0.0,1.5179,1.59,1.8124,2.1992,2.288,2.3231,2.3175,2.2806,2.1365,1.8566,0.0,0.0,0.0,0.0,0.0,0.0,0.0,0.0,0.0,0.0,0.0,0.0,0.0,0.0,0.0,0.0,0.0,0.0,0.0,0.0,0.0,0.0,0.0,0.0,0.0,0.0,0.0,0.0,0.0,0.0,0.0,0.0,0.0,0.0,0.0,0.0,0.0,0.0,0.0,0.9299,0.9979,0.0,0.0,0.0,0.0,0.0,0.0,0.0,0.0,0.6543,0.0,0.0,0.0,0.0,0.0,0.0,0.0,0.0,0.0,0.0,0.0,0.0,0.0,0.0,0.0,0.0,0.0,0.0,0.0,0.0,0.0,0.0,0.0,0.0,0.0,0.0,0.0,0.0,0.0,0.0,0.0,0.0,0.0,0.0,0.0,0.0,0.0,0.0,0.0,0.0,0.0,0.0,0.0,0.0,0.0,0.0,0.0,0.0,0.0,0.0,0.0,0.0,0.0,0.0,0.0,1.5143,1.7044,1.9429,2.2412,2.3555,2.414,2.4018,2.3077,2.1728,0.0,0.0,0.0,0.0,0.0,0.0,0.0,0.0,0.0,0.0,0.0,0.0,0.0,0.0,0.0,0.0,0.0,0.0,0.0,0.0,0.0,0.0,0.0,0.0,0.0,0.0,0.0,0.0,0.0,0.0,0.0,0.0,0.0,0.0,0.0,0.0,0.0,0.0,0.0,0.0,0.9369,1.0422,0.9966,0.0,0.0,0.0,0.0,0.0,0.0,0.8026,0.73,0.0,0.0,0.0,0.0,0.0,0.0,0.0,0.0,0.0,0.0,0.0,0.0,0.0,0.0,0.0,0.0,0.0,0.0,0.0,0.0,0.0,0.0,0.0,0.0,0.0,0.0,0.0,0.0,0.0,0.0,0.0,0.0,0.0,0.0,0.0,0.0,0.0,0.0,0.0,0.0,0.0,0.0,0.0,0.0,0.0,0.0,0.0,0.0,0.0,0.0,0.0,0.0,0.0,0.0,0.0,1.5077,1.7971,2.0642,2.2889,2.4366,2.5163,2.5149,2.3436,2.1922,0.0,0.0,0.0,0.0,0.0,0.0,0.0,0.0,0.0,0.0,0.0,0.0,0.0,0.0,0.0,0.0,0.0,0.0,0.0,0.0,0.0,0.0,0.0,0.0,0.0,0.0,0.0,0.0,0.0,0.0,0.0,0.0,0.0,0.0,0.0,0.0,0.0,0.0,0.0,0.0,0.0,1.0868,1.0975,0.9925,0.0,0.0,0.0,0.0,1.0122,0.9299,0.0,0.0,0.0,0.0,0.0,0.0,0.0,0.0,0.0,0.0,0.0,0.0,0.0,0.0,0.0,0.0,0.0,0.0,0.0,0.0,0.0,0.0,0.0,0.0,0.0,0.0,0.0,0.0,0.0,0.0,0.0,0.0,0.0,0.0,0.0,0.0,0.0,0.0,0.0,0.0,0.0,0.0,0.0,0.0,0.0,0.0,0.0,0.0,0.0,0.0,0.0,0.0,0.0,0.0,0.0,0.0,1.5791,1.8497,2.1352,2.4419,2.5692,2.6324,2.6271,2.5119,2.3243,0.0,0.0,0.0,0.0,0.0,0.0,0.0,0.0,0.0,0.0,0.0,0.0,0.0,0.0,0.0,0.0,0.0,0.0,0.0,0.0,0.0,0.0,0.0,0.0,0.0,0.0,0.0,0.0,0.0,0.0,0.0,0.0,0.0,0.0,0.0,0.0,0.0,0.0,0.0,0.0,0.0,1.1748,1.2273,1.1203,0.9977,0.0,0.0,1.1069,1.1911,1.1655,0.0,0.0,0.0,0.0,0.0,0.0,0.0,0.0,0.0,0.0,0.0,0.0,0.0,0.0,0.0,0.0,0.0,0.0,0.0,0.0,0.0,0.0,0.0,0.0,0.0,0.0,0.0,0.0,0.0,0.0,0.0,0.0,0.0,0.0,0.0,0.0,0.0,0.0,0.0,0.0,0.0,0.0,0.0,0.0,0.0,0.0,0.0,0.0,0.0,0.0,0.0,0.0,0.0,0.0,0.0,1.3096,1.5983,1.9364,2.2251,2.4724,2.588,2.6622,2.6925,2.5259,2.3145,0.0,0.0,0.0,0.0,0.0,0.0,0.0,0.0,0.0,0.0,0.0,0.0,0.0,0.0,0.0,0.0,0.0,0.0,0.0,0.0,0.0,0.0,0.0,0.0,0.0,0.0,0.0,0.0,0.0,0.0,0.0,0.0,0.0,0.0,0.0,0.0,0.0,0.0,0.0,0.0,0.0,0.0,1.2354,1.2089,0.0,0.0,0.0,1.2287,1.3661,0.0,0.0,0.0,0.0,0.0,0.0,0.0,0.0,0.0,0.0,0.0,0.0,0.0,0.0,0.0,0.0,0.0,0.0,0.0,0.0,0.0,0.0,0.0,0.0,0.0,0.0,0.0,0.0,0.0,0.0,0.0,0.0,0.0,0.0,0.0,0.0,0.0,0.0,0.0,0.0,0.0,0.0,0.0,0.0,0.0,0.0,0.0,0.0,0.0,0.0,0.0,0.0,0.0,0.0,0.0,0.0,0.0,1.6009,2.0312,2.3494,2.5349,2.6485,2.7394,2.7891,2.5629,0.0,0.0,0.0,0.0,0.0,0.0,0.0,0.0,0.0,0.0,0.0,0.0,0.0,0.0,0.0,0.0,0.0,0.0,0.0,0.0,0.0,0.0,0.0,0.0,0.0,0.0,0.0,0.3554,0.0,0.0,0.0,0.0,0.0,0.0,0.0,0.0,0.0,0.0,0.0,0.0,0.0,0.0,1.2648,1.3228,1.3332,1.3085,0.0,0.0,1.3688,1.5831,1.553,1.4079,0.0,0.0,0.0,0.0,0.0,0.0,0.0,0.0,0.0,0.0,0.0,0.0,0.0,0.0,0.0,0.0,0.0,0.0,0.0,0.0,0.0,0.0,0.0,0.0,0.0,0.0,0.0,0.0,0.0,0.0,0.0,0.0,0.0,0.0,0.0,0.0,0.0,0.0,0.0,0.0,0.0,0.0,0.0,0.0,0.0,0.0,0.0,0.0,0.0,0.0,0.0,0.0,0.0,0.0,0.0,1.6097,2.1399,2.5088,2.7037,2.8149,2.9,2.9549,2.6897,2.3944,0.0,0.0,0.0,0.0,0.0,0.0,0.0,0.0,0.0,0.0,0.0,0.0,0.0,0.0,0.0,0.0,0.0,0.0,0.0,0.0,0.0,0.0,0.0,0.0,0.0,0.0,0.0,0.0,0.0,0.0,0.0,0.0,0.0,0.0,0.0,0.0,0.0,0.0,0.0,0.0,0.0,1.4472,1.5746,1.5296,1.5108,0.0,0.0,1.5848,1.8736,1.8929,1.7474,1.3684,0.0,0.0,0.0,0.0,0.0,0.0,0.0,0.0,0.0,0.0,0.0,0.0,0.0,0.0,0.0,0.0,0.0,0.0,0.0,0.0,0.0,0.0,0.0,0.0,0.0,0.0,0.0,0.0,0.0,0.0,0.0,0.0,0.0,0.0,0.0,0.0,0.0,0.0,0.0,0.0,0.0,0.0,0.0,0.0,0.0,0.0,0.0,0.0,0.0,0.0,0.0,0.0,0.0,1.4473,1.642,2.1909,2.5646,2.7603,2.8853,2.9719,3.0306,2.7921,2.4878,0.0,0.0,0.0,0.0,0.0,0.0,0.0,0.0,0.0,0.0,0.0,0.0,0.0,0.0,0.0,0.0,0.0,0.0,0.0,0.0,0.0,0.0,0.0,0.0,0.0,0.0,0.0,0.0,0.6285,0.6753,0.7032,0.0,0.0,0.0,0.0,0.0,0.0,0.0,0.0,0.0,0.0,1.551,1.754,1.7681,0.0,0.0,1.6492,1.8389,2.0614,1.9811,1.7624,1.3972,1.3171,0.0,0.0,0.0,0.0,0.0,0.0,0.0,0.0,0.0,0.0,0.0,0.0,0.0,0.0,0.0,0.0,0.0,0.0,0.0,0.0,0.0,0.0,0.0,0.0,0.0,0.0,0.0,0.0,0.0,0.0,0.0,0.0,0.0,0.0,0.0,0.0,0.0,0.0,0.0,0.0,0.0,0.0,0.0,0.0,0.0,0.0,0.0,0.0,0.0,0.0,0.0,0.0,1.5033,1.663,2.2604,2.6571,2.813,2.9733,3.0621,3.0741,2.885,2.5968,0.0,0.0,0.0,0.0,0.0,0.0,0.0,0.0,0.0,0.0,0.0,0.0,0.0,0.0,0.0,0.0,0.0,0.0,0.0,0.0,0.0,0.0,0.0,0.0,0.0,0.0,0.0,0.0,0.6953,0.7384,0.7874,0.0,0.0,0.0,0.0,0.0,0.0,0.0,0.0,0.0,0.0,1.7121,1.8843,1.9333,1.8862,1.7098,1.8246,1.9989,2.1655,2.0744,1.8689,1.5262,0.0,0.0,0.0,0.0,0.0,0.0,0.0,0.0,0.0,0.0,0.0,0.0,0.0,0.0,0.0,0.0,0.0,0.0,0.0,0.0,0.0,0.0,0.0,0.0,0.0,0.0,0.0,0.0,0.0,0.0,0.5589,0.0,0.0,0.0,0.0,0.0,0.0,0.0,0.0,0.0,0.0,0.0,0.0,0.0,0.0,0.0,0.0,0.0,0.0,0.0,0.0,0.0,0.0,0.0,1.6648,2.378,2.7917,2.8823,3.0967,3.1855,3.1373,2.9767,2.7282,2.3821,0.0,0.0,0.0,0.0,0.0,0.0,0.0,0.0,0.0,0.0,0.0,0.0,0.0,0.0,0.0,0.0,0.0,0.0,0.0,0.0,0.0,0.0,0.0,0.0,0.0,0.0,0.6667,0.662,0.7005,0.0,0.0,0.0,0.0,0.0,0.0,0.0,0.0,0.0,0.0,1.7019,1.9561,1.9779,1.9987,2.078,2.2464,2.1006,2.0163,2.17,2.2113,2.1337,0.0,0.0,0.0,0.0,0.0,0.0,0.0,0.0,0.0,0.0,0.0,0.0,0.0,0.0,0.0,0.0,0.0,0.0,0.0,0.0,0.0,0.0,0.0,0.0,0.0,0.0,0.0,0.8307,0.7892,0.0,0.0,0.0,0.0,0.0,0.0,0.0,0.0,0.0,0.0,0.0,1.1142,1.1436,0.0,0.0,0.0,0.0,0.0,0.0,0.0,0.0,0.0,0.0,0.0,0.0,1.6374,1.9497,2.5001,2.8688,3.0384,3.1969,3.2516,3.1938,3.0708,2.7508,2.2163,0.0,0.0,0.0,0.0,0.0,0.0,0.0,0.0,0.0,0.0,0.0,0.0,0.0,0.0,0.0,0.0,0.0,0.0,0.0,0.0,0.0,0.0,0.0,0.0,0.0,0.7361,0.0,0.0,0.0,0.0,0.0,0.0,0.0,0.0,0.0,0.0,0.0,1.3273,1.5863,1.8086,2.0046,2.1787,2.2083,2.2398,0.0,0.0,0.0,0.0,0.0,0.0,0.0,0.0,0.0,0.0,0.0,0.0,0.0,0.0,1.2753,1.3427,1.202,1.0788,1.0803,0.0,0.0,0.0,0.0,0.0,0.0,0.0,0.0,0.0,0.0,0.0,0.0,0.0,0.0,0.0,0.0,1.0112,0.0,0.0,0.0,0.0,0.0,0.0,0.0,0.0,1.2991,1.3955,1.4372,1.4691,1.4553,0.0,1.3283,1.2019,0.0,0.0,0.0,0.0,0.0,0.0,0.0,0.0,1.7483,2.1036,2.5837,2.9297,3.1163,3.2426,3.2805,3.2202,3.0796,2.7755,2.305,1.9844,1.7097,0.0,0.0,0.0,0.0,0.0,0.0,0.0,0.0,0.0,0.0,0.0,0.0,0.0,0.0,0.0,0.0,0.0,0.0,0.0,0.0,0.0,0.0,0.0,0.8311,0.0,0.0,0.0,0.0,0.0,0.0,0.0,0.0,0.0,1.227,1.3523,1.5688,1.932,2.0445,2.1389,2.2716,0.0,0.0,0.0,0.0,0.0,0.0,0.0,2.1089,2.0125,1.9841,1.9793,1.9745,1.8633,1.6485,1.2675,0.0,0.0,1.5219,1.4478,1.3694,1.3331,1.2829,1.2431,1.2605,1.2984,1.3081,0.0,0.0,0.0,0.0,0.0,0.0,0.0,0.0,1.236,1.252,0.0,1.202,0.0,0.0,0.0,0.0,0.0,0.0,0.0,0.0,1.7375,1.8862,1.8931,1.8701,1.8135,1.7113,1.64,1.5183,1.3331,1.1269,0.0,0.0,0.0,0.0,0.0,0.0,1.8012,2.1603,2.633,2.9541,3.1199,3.2513,3.2805,3.2202,3.0143,2.8089,2.6263,2.3235,2.0691,1.8498,1.5345,0.0,0.0,0.0,0.0,0.0,0.0,0.0,0.0,0.0,0.0,0.0,0.0,0.0,0.0,0.0,0.0,0.0,0.0,0.0,0.0,0.9445,0.0,0.0,0.0,0.0,0.0,0.0,0.0,0.0,0.0,0.0,1.8417,1.819,1.9254,2.3347,0.0,0.0,0.0,0.0,2.2901,2.2121,2.201,2.2247,2.3049,2.3097,2.2842,2.21,0.0,0.0,2.5322,2.2536,1.8702,1.448,1.5513,1.6476,1.6005,1.6284,1.6366,1.5812,1.4937,1.4342,1.4556,1.5218,1.5422,1.8199,0.0,0.0,0.0,0.0,1.5667,1.6517,1.7479,1.7049,1.6771,1.6619,1.5258,0.0,0.0,0.0,0.0,0.0,0.0,1.5718,1.7384,1.871,1.9521,1.992,2.0088,2.0037,1.9638,1.8288,1.7243,1.6462,1.4781,1.2166,0.9008,0.0,0.0,0.0,0.0,1.964,2.4668,2.7469,3.0008,3.25,3.2884,3.2805,3.2215,3.0871,2.9204,2.73,2.483,2.2351,1.9843,1.7539,0.0,0.0,0.0,0.0,0.0,0.0,0.0,0.0,0.0,0.0,0.0,0.0,0.0,0.0,0.0,0.0,0.0,0.0,0.0,1.0062,1.0539,1.0446,0.0,0.0,0.0,0.0,0.0,0.0,0.0,0.0,0.0,2.0145,1.9751,2.0099,0.0,0.0,2.2461,2.251,2.2871,2.3203,2.3342,0.0,0.0,0.0,2.3693,2.3271,2.3633,2.4181,2.4759,2.5563,2.3947,2.2504,2.2002,2.1519,2.0277,1.7656,1.7014,1.6905,1.6659,1.6433,1.6299,1.6393,1.6846,1.7035,2.2821,2.032,1.8903,1.8092,1.7888,1.8396,1.9177,2.0219,1.9761,1.9598,1.9652,1.837,1.7084,1.5955,1.4942,0.0,0.0,0.0,1.8579,2.0298,2.1275,2.2005,2.2411,2.2661,2.2479,2.187,2.0249,1.9117,1.8348,1.6592,1.4656,1.2432,0.0,0.0,1.4665,1.7586,2.1595,2.6538,2.8237,3.0384,3.3056,3.3081,3.2792,3.2227,3.1587,3.048,2.8802,2.6912,2.4778,2.233,2.0059,1.756,0.0,0.0,0.0,0.0,0.0,0.0,0.0,0.0,0.0,0.0,0.0,0.6611,0.0,0.0,0.0,0.0,0.9549,1.119,1.2202,1.2497,0.0,0.0,0.0,0.0,0.0,0.0,0.0,1.8323,1.8227,1.8623,2.1131,2.1537,2.2063,2.3236,2.329,2.3174,2.3262,0.0,2.3903,2.4132,2.4424,2.4756,2.5135,2.4438,2.415,2.4824,2.5156,2.5447,2.5602,2.5118,2.4998,2.5329,2.4629,2.3134,2.1208,2.0013,1.8875,1.7871,1.8142,1.8387,1.7887,1.7822,1.7916,2.6787,2.6063,2.2095,2.0081,1.9652,2.018,2.1248,2.2446,2.1351,2.1517,2.2762,2.1225,1.9994,1.9135,1.8284,0.0,1.9022,2.0685,2.1986,2.31,2.4449,2.5342,2.5732,2.5625,2.502,2.3773,2.2206,2.0751,1.9544,1.7704,1.6964,1.7313,1.6854,1.7046,1.7775,2.0343,2.3579,2.7499,2.8812,3.0641,3.3081,3.3081,3.2817,3.2303,3.2202,3.1675,3.0708,2.9083,2.7384,2.5338,2.2578,1.9796,1.7125,0.0,0.0,0.0,0.0,0.0,0.0,0.0,0.0,0.0,0.0,0.0,0.0,0.0,0.0,0.0,1.23,0.0,1.5067,1.4924,0.0,0.0,0.0,1.1868,0.9509,1.1301,1.4896,2.0549,0.0,0.0,2.1823,0.0,2.4629,2.5059,2.5059,2.4883,2.4521,2.4672,2.4837,2.4575,2.4781,2.5262,2.5728,2.5431,2.5352,2.5655,2.5732,2.5859,2.5889,2.6162,2.6168,2.5929,2.5414,2.5321,2.5819,2.432,2.2355,1.9704,2.0085,2.0468,1.9276,1.9071,1.8878,2.6953,2.6797,2.577,2.5005,2.4649,2.5153,2.5528,2.5804,2.5191,2.4935,2.49,2.3286,2.1812,2.0322,2.0155,2.0853,2.2173,2.2653,2.3644,2.5015,2.5334,2.5635,2.5732,2.5732,2.5528,2.5109,2.3799,2.2936,2.2529,2.1154,2.0301,2.0095,2.0951,2.0739,1.967,2.1815,2.4598,2.7933,2.9445,3.1105,3.3056,3.3081,3.3006,3.2867,3.2026,3.1461,3.1198,2.9253,2.7542,2.6271,2.3808,2.1481,1.938,1.6457,0.0,0.0,0.0,0.0,0.0,0.0,0.0,0.0,0.0,0.7992,0.5936,0.0,0.9857,0.0,1.3371,1.6086,1.7149,1.6769,0.0,0.0,1.6508,1.5158,1.3114,1.486,1.8362,2.3924,2.3028,2.2555,2.4085,2.4691,2.5078,2.5498,2.5,2.4648,2.4863,2.4909,2.5034,2.5362,2.5877,2.6258,2.6338,2.6484,2.6533,2.642,2.6569,2.6709,2.6699,2.6787,2.6855,2.6734,2.6599,2.6807,2.7456,2.6946,2.5748,2.4098,2.3028,2.2322,2.1894,2.1802,2.1632,2.8037,2.7861,2.7861,2.7617,2.7226,2.708,2.7012,2.6992,2.6768,2.6533,2.6199,2.5334,2.4387,2.3556,2.3556,2.4088,2.4914,2.4923,2.5452,2.6299,2.6299,2.6309,2.6309,2.6299,2.6211,2.5927,2.4581,2.3863,2.3592,2.2357,2.1845,2.2249,2.2957,2.2997,2.2475,2.3897,2.5714,2.8026,3.0091,3.1786,3.3056,3.3081,3.2842,3.2328,3.1725,3.0922,2.9967,2.8765,2.7236,2.528,2.3713,2.1837,1.9502,1.7272,1.543,0.0,0.0,0.0,0.0,0.0,0.0,0.0,0.0,0.0,0.0,0.0,1.2177,0.0,1.6098,1.8419,1.9121,1.9187,1.9305,1.9569,1.9209,1.833,1.6802,1.7972,2.0651,2.5125,2.4592,2.4288,2.5236,2.5371,2.5527,2.5967,2.5596,2.5381,2.5625,2.5761,2.5891,2.6241,2.6875,2.7143,2.673,2.6861,2.7012,2.7002,2.7002,2.7012,2.7021,2.7187,2.7295,2.7182,2.7432,2.7751,2.8196,2.8081,2.7497,2.6775,2.5927,2.4747,2.3012,2.2953,2.317,2.9346,2.9004,2.9004,2.8799,2.8398,2.7656,2.7285,2.7168,2.7119,2.707,2.7012,2.7012,2.7012,2.7012,2.7012,2.7012,2.7012,2.7012,2.7012,2.7012,2.7012,2.7012,2.7012,2.7012,2.6826,2.6475,2.52,2.4473,2.4045,2.2863,2.282,2.389,2.3934,2.4212,2.498,2.5858,2.6974,2.8362,3.087,3.2466,3.2955,3.2893,3.2353,3.1348,3.1223,3.0218,2.8222,2.8109,2.6749,2.3863,2.3322,2.1854,1.9181,1.7733,1.6445,0.0,1.3993,0.0,0.0,0.0,0.0,0.0,0.0,0.0,0.0,1.2392,1.5557,1.6961,1.9351,2.0859,2.0957,2.167,2.1957,2.1503,2.1676,2.1505,2.0774,2.1105,2.2487,2.5376,2.5683,2.5732,2.5713,2.5732,2.5898,2.6279,2.6396,2.6435,2.6572,2.6725,2.6958,2.7148,2.7746,2.7835,2.7124,2.7085,2.7236,2.7471,2.7378,2.7178,2.7226,2.751,2.7734,2.762,2.7873,2.8252,2.8291,2.8281,2.8281,2.8174,2.8028,2.7056,2.4386,2.3988,2.4293,2.9521,2.9453,2.9443,2.9394,2.9316,2.915,2.8691,2.8027,2.7695,2.7344,2.7021,2.7012,2.7012,2.7012,2.7012,2.7012,2.7012,2.7012,2.7012,2.7012,2.7012,2.7012,2.7012,2.7012,2.6973,2.6894,2.657,2.642,2.6343,2.5796,2.5462,2.5323,2.4967,2.4772,2.4643,0.0,0.0,0.0,3.1664,3.2265,3.2353,3.1938,3.1411,3.0783,3.0331,0.0,2.8197,2.8109,2.7065,2.4861,2.4271,0.0,0.0,0.0,0.0,0.0,0.0,0.0,0.0,0.0,0.0,0.0,1.7113,1.5405,1.1253,1.7204,2.1123,2.0391,2.1423,2.2432,2.3115,2.332,2.3641,2.4063,2.4246,2.4411,2.4581,2.4667,2.5101,2.5567,2.5674,2.5742,2.5752,2.5732,2.5918,2.6377,2.6689,2.7031,2.7373,2.7195,2.7255,2.7843,2.8143,2.8182,2.8037,2.8008,2.7969,2.8066,2.8057,2.8027,2.8018,2.8066,2.8164,2.8144,2.8232,2.8301,2.8301,2.8301,2.8301,2.8301,2.8301,2.8057,2.7337,2.7257,2.7482,3.0088,0.0,2.9883,2.9756,0.0,2.958,2.9326,2.8906,2.8691,2.8359,2.7959,2.7959,2.7842,2.7646,2.7646,2.7646,2.7646,2.7646,2.7646,2.7646,2.7646,2.7646,2.7646,2.7646,2.7539,2.7344,2.7334,2.7217,2.7012,2.6807,2.6582,2.6377,2.6143,2.5918,2.58,2.81,3.0202,3.18,3.2077,3.2353,3.2616,3.2378,3.1825,3.1035,0.0,0.0,0.0,0.0,0.0,0.0,0.0,0.0,0.0,0.0,0.0,1.9912,1.9271,1.8896,1.9022,1.9183,1.9627,2.0273,2.0708,1.9761,1.6681,2.1375,2.3876,2.2644,2.3271,2.3945,2.4365,2.4619,2.4922,2.5226,2.5391,2.5498,2.5693,2.5732,2.5732,2.5762,2.6065,2.632,2.6064,2.626,2.6543,2.6943,2.7197,2.749,2.7871,2.7814,2.7796,2.8252,2.8301,2.8291,2.8301,2.8301,2.8301,2.8291,2.8301,2.8301,2.8301,2.8301,2.8301,2.8301,2.8301,2.8301,2.8301,2.8301,2.8301,2.832,2.8457,2.8594,2.8594,2.8437,2.8301,3.0674,3.0322,3.0332,3.0127,2.9805,2.9805,2.9805,2.9795,0.0,0.0,0.0,2.9033,2.8838,2.8525,2.8516,2.8525,2.8516,2.8437,2.8398,2.8398,2.833,2.8301,2.8301,2.8301,2.8115,2.7783,2.7773,2.7588,2.7246,2.7168,2.7129,2.7129,2.7051,2.7114,2.7399,2.9437,3.1019,3.1896,3.2199,3.2591,3.3056,3.288,3.2277,3.1286,3.1248,3.0306,2.8348,2.8348,2.7004,2.4037,2.3985,2.324,2.1696,2.1572,2.1728,2.207,2.2178,2.2373,2.2715,2.2881,2.3154,2.3584,2.3601,2.3271,2.2549,2.4444,2.525,2.4242,2.4775,2.5185,2.5185,2.5586,2.5859,2.5859,2.5918,2.5859,2.5722,2.5712,2.5761,2.6006,2.6566,2.6893,2.6523,2.6768,2.7178,2.7549,2.7617,2.7822,2.8184,2.8262,2.8252,2.8291,2.8301,2.8301,2.8301,2.8301,2.8301,2.8301,2.8301,2.8301,2.8301,2.8301,2.8301,2.8301,2.8301,2.834,2.8398,2.8564,2.8555,2.8506,2.8779,2.9033,2.9004,2.8769,2.8564,3.0859,3.0801,3.0791,3.0762,3.0703,3.0703,3.0713,3.0644,2.9902,2.9531,2.9473,2.9473,2.9443,2.9385,2.9394,2.9385,2.9365,2.8994,2.8838,0.0,2.8457,2.8301,2.8301,2.8301,2.8262,2.8203,2.8203,2.8174,2.8086,2.7744,2.7578,2.7529,2.7207,2.751,2.8445,2.8932,2.9699,3.0918,3.2305,3.2993,3.3068,3.2127,3.1336,3.0758,3.0758,3.0131,2.8888,2.9315,2.8268,2.5532,2.5833,2.5107,2.3024,2.2871,2.29,2.2978,2.331,2.3545,2.3623,2.4287,2.4902,2.5342,2.5323,2.516,2.4736,2.5271,2.5614,2.5469,2.5596,2.5644,2.5674,2.6163,2.6427,2.6457,2.6631,2.6555,2.5857,2.5737,2.6097,2.6758,2.6894,2.7055,2.6943,2.7012,2.7236,2.7578,2.7734,2.7842,2.8184,2.8301,2.8301,2.8301,2.8301,2.8301,2.8301,2.8301,2.8301,2.8301,2.8301,2.8301,2.8301,2.8301,2.8301,2.8301,2.834,2.8486,2.8908,2.9273,2.9272,2.9349,2.9394,2.9473,2.9473,2.9414,2.9385,3.1582,3.1553,3.1328,3.123,3.1211,3.0986,3.0898,3.0859,3.0459,3.0137,2.9922,2.9912,2.9785,2.958,2.958,2.958,2.956,2.9365,2.9141,2.8916,2.8721,2.8506,2.8301,2.8301,2.8301,2.8301,2.8301,2.8301,2.8271,2.8096,2.7998,2.7988,2.7803,2.8009,2.8488,2.929,2.988,3.0453,3.2031,3.284,3.2918,3.2798,3.2641,3.2403,3.2127,3.1562,3.0746,3.0286,2.9142,2.6931,2.6463,2.5679,2.4261,2.4189,2.4297,2.4541,2.4736,2.4844,2.4844,2.543,2.5977,2.6396,2.5954,2.5887,2.6152,2.6309,2.6426,2.6426,2.6306,2.6287,2.6426,2.6491,2.6719,2.6849,2.6914,2.6861,2.6487,2.6589,2.688,2.7578,2.7756,2.7639,2.7373,2.7568,2.7754,2.7978,2.8008,2.8096,2.8262,2.8301,2.8301,2.8301,2.8301,2.8301,2.8301,2.8301,2.8301,2.8301,2.8301,2.8301,2.8301,2.8301,2.8262,2.83,2.8505,2.8957,2.9349,2.9587,2.9675,2.9633,2.9785,2.9873,2.9922,3.0098,3.0195,3.2168,3.2129,3.1807,3.167,3.1621,3.1221,3.1035,3.1016,3.0928,3.0693,3.0381,3.0351,3.0176,2.9883,2.9873,2.9873,2.9853,2.9756,2.9531,2.9228,2.9111,2.8848,2.8467,2.8428,2.8379,2.831,2.8301,2.8301,2.8301,2.8301,2.8301,2.8301,2.8301,2.8301,2.8291,2.9303,2.9807,2.9964,3.1383,3.2415,3.2865,3.3695,3.4085,3.406,3.3671,3.3133,3.2352,3.1303,2.9892,2.8099,2.7003,2.6044,2.5281,2.5215,2.5371,2.5703,2.583,2.5928,2.6035,2.6338,2.667,2.6982,2.6423,2.634,2.7036,2.7256,2.7207,2.7041,2.6841,2.6851,2.6982,2.709,2.7026,2.7158,2.7256,2.7344,2.7314,2.7457,2.7732,2.8191,2.8296,2.8206,2.7996,2.8086,2.8252,2.8262,2.8301,2.8301,2.8301,2.8301,2.831,2.8262,2.834,2.8301,2.8301,2.8301,2.8301,2.8301,2.8398,2.8467,2.8486,2.8516,2.8406,2.8439,2.8923,2.9528,2.9872,3.002,3.0079,3.0064,3.0185,3.0351,3.0371,3.0596,3.0762,3.2178,3.2158,3.2129,3.2119,3.2041,3.1641,3.1465,3.1416,3.1064,3.0869,3.083,3.083,3.0801,3.0771,3.0742,3.0723,3.0693,3.0322,3.0107,3.001,2.9678,2.9277,2.8887,2.8867,2.8662,2.8359,2.832,2.833,2.833,2.8301,2.8301,2.8301,2.8301,2.8301,2.8291,2.8398,2.8495,2.8504,2.9829,3.1483,3.3398,3.425,3.465,3.465,3.4587,3.3971,3.2655,3.223,3.0732,2.8413,2.7673,2.6938,2.5868,2.5684,2.5703,2.5771,2.6113,2.6494,2.6846,2.6924,2.6992,2.7021,2.6975,2.7054,2.7607,2.7939,2.7832,2.7266,2.7192,2.7221,2.7051,2.7648,2.7875,2.7627,2.7891,2.8174,2.8125,2.8184,2.83,2.831,2.829,2.8242,2.8203,2.8252,2.8291,2.8301,2.8369,2.8389,2.8369,2.8281,2.8379,2.8298,2.83,2.8369,2.8379,2.831,2.8428,2.8418,2.8633,2.8818,2.8916,2.9131,2.9303,2.8713,2.9211,2.998,3.0448,3.0769,3.0754,3.0643,3.0674,3.0801,3.083,3.0859,3.084,3.291,3.2891,3.2637,3.2393,3.2158,3.1973,3.1904,3.1885,3.1728,3.1504,3.1279,3.126,3.1123,3.0898,3.0898,3.0898,3.0879,3.0684,3.0459,3.0195,3.0019,2.9707,2.9336,2.9307,2.9209,2.9023,2.8789,2.8662,2.8623,2.8418,2.8301,2.8301,2.8301,2.8301,2.8301,2.8301,2.8301,2.8388,2.9608,3.0728,3.1706,3.3135,3.4335,3.5073,3.4889,3.4053,3.278,3.1914,3.0477,2.8649,2.7727,2.6963,2.6494,2.6494,2.6504,2.6504,2.665,2.6943,2.7363,2.7393,2.751,2.7754,2.7785,2.7882,2.8037,2.8203,2.8125,2.7861,2.7898,2.7908,2.7783,2.8084,2.8182,2.8066,2.8203,2.8301,2.8301,2.8301,2.8301,2.8301,2.8301,2.8301,2.8301,2.8301,2.8301,2.835,2.8643,2.8947,2.8691,2.8443,2.8507,2.88,2.942,2.95,2.9043,2.9199,2.9189,2.9121,2.9189,2.9307,2.9326,2.9404,2.9468,2.9134,2.9647,3.027,3.0701,3.0905,3.0868,3.0889,3.0898,3.0898,3.0898,3.0898,3.0898,3.3418,3.3369,3.3086,3.2793,3.251,3.2393,3.2344,3.2314,3.2226,3.1982,3.1699,3.1582,3.1357,3.1074,3.0947,3.0898,3.0898,3.0898,3.0713,3.04,3.0391,3.0146,2.9775,2.9736,2.9678,2.9541,2.9248,2.9092,2.9062,2.8809,2.8643,2.8633,2.8525,2.8525,2.8613,2.8447,2.835,2.8555,2.9373,2.9922,3.0472,3.1784,3.3285,3.4447,3.4202,3.3421,3.2137,3.1057,2.9914,2.8541,2.756,2.7012,2.7012,2.7012,2.707,2.7178,2.7197,2.7383,2.7803,2.7842,2.7969,2.8252,2.8252,2.832,2.8486,2.8584,2.8643,2.8643,2.8643,2.8613,2.8476,2.8574,2.8643,2.8643,2.8643,2.8633,2.8534,2.8505,2.8652,2.877,2.8721,2.8623,2.8633,2.8524,2.8406,2.873,2.9203,2.953,2.9141,2.8896,2.8828,2.9263,3.0181,3.0416,2.9619,2.9609,2.9756,2.9717,2.9609,2.9746,2.9766,2.9814,2.9961,3.0054,3.0237,3.0449,3.0839,3.085,3.0889,3.0889,3.0898,3.0898,3.0898,3.0898,3.0898,3.3418,3.3418,3.3398,3.335,3.332,3.293,3.2773,3.2744,3.2383,3.2178,3.209,3.1738,3.1523,3.1435,3.1084,3.0908,3.0898,3.0898,3.0869,3.082,3.083,3.0605,3.0185,3.0156,2.9971,2.9697,2.959,2.9531,2.9512,2.9502,2.9521,2.9473,2.9082,2.9101,2.9297,2.8721,2.8506,2.8828,2.877,2.9046,3.0162,3.0442,3.1224,3.2297,3.2453,3.1895,3.0572,3.0028,2.9126,2.7845,2.7285,2.706,2.7041,2.7051,2.7246,2.7578,2.7646,2.7832,2.8203,2.8291,2.832,2.8359,2.8279,2.8462,2.8906,2.9319,2.9515,2.9482,2.9434,2.9316,2.9033,2.9199,2.9404,2.9424,2.9463,2.9424,2.9162,2.9085,2.9361,2.9603,2.9385,2.9205,2.9434,2.878,2.8824,2.9264,2.9623,2.9662,2.956,2.957,2.9643,2.9763,3.029,3.066,3.0122,2.9986,2.9775,2.9785,3.0068,3.0176,3.0332,3.0478,3.0664,3.0791,3.0752,3.0771,3.0859,3.0898,3.0889,3.0898,3.0898,3.0898,3.0898,3.0898,3.0898,3.3418,3.3418,3.3418,3.3418,3.3398,3.3262,3.3193,3.3174,3.3047,3.2812,3.2578,3.2393,3.2031,3.1514,3.1357,3.1143,3.0908,3.0898,3.0898,3.0898,3.0898,3.0801,3.0664,3.0644,3.0576,3.0391,3.0107,2.9834,2.959,2.958,2.958,2.956,2.9424,2.9424,2.9492,2.9268,2.9189,2.9307,2.917,2.9421,2.9818,2.9838,3.0032,3.0124,3.1581,3.1622,3.0317,3.016,2.9476,2.8172,2.791,2.7832,2.7832,2.7832,2.7891,2.8066,2.832,2.8535,2.8701,2.8955,2.9111,2.9111,2.8632,2.8607,2.9346,2.9934,3.0175,2.977,2.9844,2.9853,2.9756,2.9658,2.958,2.958,2.958,2.96,2.9551,2.9429,2.956,2.9702,2.956,2.9551,2.9619,2.9439,2.9429,2.959,3.0089,3.0236,3.0039,3.0195,3.042,3.0431,3.0644,3.0876,3.0633,3.0564,3.0439,3.0459,3.0576,3.0605,3.0713,3.0703,3.083,3.084,3.0889,3.0898,3.0898,3.0898,3.0898,3.0898,3.0898,3.0898,3.0898,3.0898,3.0898,3.3418,3.3418,3.3418,3.3418,3.3418,3.3418,3.3418,3.3418,3.3418,3.3262,3.3008,3.2861,3.2461,3.1973,3.1797,3.1494,3.1094,3.0967,3.0898,3.0898,3.0898,3.0898,3.0898,3.0898,3.0898,3.084,3.0576,3.0264,3.0029,3.0,3.0,3.001,2.9853,2.9853,2.9932,2.9726,2.9619,2.9726,2.9648,2.957,2.958,2.958,2.9434,2.9351,3.0608,3.0915,2.9743,2.9608,2.9303,2.8495,2.8301,2.835,2.8467,2.8496,2.8564,2.8721,2.8955,2.9131,2.916,2.9404,2.957,2.957,2.9103,2.9029,2.9766,3.0502,3.0571,3.0211,3.0225,3.042,3.0371,3.0166,3.0,3.0,3.0,3.0,3.0,3.001,3.0019,3.0049,3.0059,3.0019,2.999,3.0152,3.0172,3.0,3.0561,3.0708,3.0613,3.0654,3.0898,3.0898,3.0859,3.0859,3.0771,3.0713,3.0713,3.0742,3.0752,3.085,3.0898,3.0898,3.0898,3.0898,3.0898,3.0898,3.0898,3.0898,3.0898,3.0898,3.0898,3.0898,3.0898,3.0898,3.0898,3.3418,3.3418,3.3418,3.3418,3.3418,3.3418,3.3418,3.3418,3.3418,3.3389,3.3291,3.2998,3.2793,3.2656,3.2314,3.1934,3.1523,3.1191,3.0967,3.0898,3.0898,3.0898,3.0898,3.0898,3.0898,3.0898,3.0879,3.0859,3.0781,3.0752,3.0762,3.0742,3.0381,3.0391,3.084,3.0098,2.9853,3.0059,2.9883,2.9678,2.959,2.9678,2.9668,2.958,2.9744,2.948,2.8506,2.8466,2.8515,2.8379,2.8379,2.8516,2.8867,2.8926,2.9101,2.9404,2.9551,2.957,2.957,2.9629,2.9726,2.9746,2.9676,2.9756,3.0244,3.0672,3.0888,3.0752,3.0791,3.085,3.083,3.0791,3.0762,3.0869,3.0742,3.0732,3.0791,3.085,3.0869,3.0801,3.0752,3.0859,3.0859,3.0752,3.0703,3.0723,3.0781,3.0937,3.0781,3.084,3.0889,3.0898,3.0898,3.0898,3.0898,3.0889,3.0889,3.0879,3.0869,3.0898,3.0898,3.0898,3.0898,3.0898,3.0898,3.0898,3.0898,3.0898,3.0898,3.0898,3.0898,3.0898,3.0898,3.0898,3.0898,3.3418,3.3418,3.3418,3.3418,3.3418,3.3418,3.3418,3.3418,3.3418,3.3418,3.3389,3.3281,3.3066,3.2822,3.2646,3.2373,3.1973,3.1807,3.1465,3.0996,3.0908,3.0898,3.0898,3.0898,3.0898,3.0898,3.0898,3.0898,3.0898,3.0898,3.0898,3.085,3.0742,3.0742,3.0869,3.0615,3.0566,3.0635,3.0547,3.0478,3.0478,3.0478,3.0332,3.0039,3.0,2.9726,2.9219,2.917,2.917,2.915,2.917,2.9238,2.9346,2.9365,2.9434,2.958,2.9853,3.001,3.0049,3.0293,3.0449,3.0478,3.0451,3.0519,3.0674,3.0791,3.0898,3.0898,3.0898,3.0898,3.0898,3.0898,3.0908,3.0898,3.0898,3.0898,3.0898,3.0898,3.0898,3.0898,3.0898,3.0898,3.0898,3.0898,3.0898,3.0898,3.0898,3.0898,3.0898,3.0898,3.0898,3.0898,3.0898,3.0898,3.0898,3.0898,3.0898,3.0898,3.0898,3.0898,3.0898,3.0898,3.0898,3.0898,3.0898,3.0898,3.0898,3.0898,3.0898,3.0898,3.0898,3.0898,3.0898,3.0898,3.0898,3.3418,3.3418,3.3418,3.3418,3.3418,3.3418,3.3418,3.3418,3.3418,3.3418,3.3418,3.3418,3.3281,3.3066,3.3027,3.2793,3.2432,3.2402,3.2031,3.1406,3.1172,3.1055,3.0928,3.0898,3.0898,3.0898,3.0898,3.0898,3.0898,3.0898,3.0898,3.0898,3.0898,3.0889,3.0898,3.0898,3.0898,3.0898,3.0879,3.0898,3.0889,3.0898,3.0752,3.0498,3.0459,3.0322,3.0078,3.0059,2.9912,2.9648,2.958,2.9629,2.9775,2.9805,2.9873,3.0078,3.0283,3.0459,3.0488,3.0703,3.0898,3.0898,3.0898,3.0889,3.0889,3.0898,3.0898,3.0898,3.0898,3.0898,3.0908,3.1055,3.1103,3.1133,3.0986,3.0908,3.0898,3.0898,3.0898,3.0898,3.0898,3.0898,3.0898,3.0898,3.0898,3.0898,3.0898,3.0898,3.0898,3.0898,3.0898,3.0898,3.0898,3.0898,3.0898,3.0898,3.0898,3.0898,3.0898,3.0898,3.0898,3.0898,3.0898,3.0898,3.0898,3.0898,3.0898,3.0898,3.0898,3.0898,3.0898,3.0898,3.0898,3.0898,3.0898,3.3418,3.3418,3.3418,3.3418,3.3418,3.3418,3.3418,3.3418,3.3418,3.3418,3.3418,3.3418,3.3408,3.3398,3.335,3.3019,3.2747,3.244,3.2198,3.1642,3.1296,3.083,3.0927,3.1006,3.0967,3.0898,3.0898,3.0898,3.0898,3.0898,3.0898,3.0898,3.0898,3.0898,3.0898,3.0898,3.0898,3.0898,3.0898,3.0898,3.0898,3.0898,3.0879,3.084,3.084,3.081,3.0771,3.0742,3.0449,2.9795,2.9766,2.9922,3.0166,3.0225,3.043,3.0742,3.0859,3.085,3.0869,3.0859,3.0898,3.0898,3.0898,3.0898,3.0898,3.0898,3.0928,3.0986,3.0986,3.0996,3.1094,3.1338,3.1533,3.1504,3.124,3.1006,3.0908,3.0898,3.0898,3.0898,3.0898,3.0898,3.0898,3.0898,3.0898,3.0898,3.0898,3.0898,3.0898,3.0898,3.0898,3.0898,3.0898,3.0898,3.0898,3.0898,3.0898,3.0898,3.0898,3.0898,3.0898,3.0898,3.0898,3.0898,3.0898,3.0898,3.0898,3.0898,3.0898,3.0898,3.0898,3.0898,3.0918,3.0937,3.1064,3.3418,3.3418,3.3418,3.3418,3.3418,3.3418,3.3418,3.3418,3.3418,3.3418,3.3418,3.3418,3.3418,3.3418,3.3418,3.2689,3.1677,3.1413,3.1083,3.0472,2.9195,2.9747,3.0978,3.1348,3.1191,3.0967,3.0976,3.0898,3.0898,3.0967,3.0947,3.0898,3.0937,3.0908,3.0898,3.0908,3.0898,3.0898,3.0898,3.0898,3.0898,3.0898,3.0898,3.0898,3.0898,3.0898,3.0898,3.0898,3.082,3.0596,3.0537,3.0576,3.0674,3.0684,3.0742,3.085,3.0898,3.0898,3.0898,3.0908,3.0908,3.0898,3.0976,3.0898,3.0898,3.0898,3.1045,3.125,3.1357,3.1475,3.1748,3.1924,3.1992,3.1953,3.1641,3.1269,3.1006,3.0898,3.0898,3.0898,3.0898,3.0898,3.0898,3.0898,3.0898,3.0898,3.0898,3.0898,3.0898,3.0898,3.0898,3.0898,3.0898,3.0898,3.0898,3.0898,3.0898,3.0898,3.0898,3.0898,3.0898,3.0898,3.0898,3.0898,3.0898,3.0898,3.0898,3.0898,3.0898,3.0937,3.0967,3.0996,3.0908,3.0947,3.1171,3.3418,3.3418,3.3418,3.3418,3.3418,3.3418,3.3418,3.3418,3.3418,3.3418,3.3418,3.3418,3.3418,3.3418,3.3418,3.2492,3.0909,3.0789,3.0277,2.9327,2.8362,2.8977,3.0315,3.0643,3.0892,3.1455,3.1416,3.1435,3.1445,3.1435,3.1426,3.1406,3.124,3.1152,3.1152,3.0957,3.0898,3.0898,3.0898,3.0898,3.0898,3.0898,3.0898,3.0898,3.0898,3.0898,3.0898,3.0898,3.0889,3.0889,3.0889,3.0898,3.0898,3.0898,3.0898,3.0898,3.0898,3.0898,3.0928,3.1035,3.1152,3.1201,3.1289,3.1416,3.1455,3.1435,3.1582,3.1748,3.1797,3.1924,3.2129,3.2314,3.2422,3.2402,3.2197,3.1715,3.1001,3.1112,3.1074,3.0967,3.0898,3.0898,3.0898,3.0908,3.0908,3.0898,3.0898,3.0898,3.0898,3.0908,3.0937,3.0859,3.0986,3.0996,3.0996,3.0986,3.0898,3.0889,3.1074,3.1035,3.1006,3.0986,3.0908,3.0908,3.0898,3.0908,3.0947,3.0986,3.1035,3.1074,3.1094,3.124,3.1249,3.1188,3.1382,3.3418,3.3418,3.3155,3.3155,3.3019,3.2892,3.2502,3.2756,3.2502,3.2502,3.2629,3.2892,3.2619,3.2892,3.2492,3.1963,3.0116,2.9726,2.8804,2.7842,2.7546,2.8294,2.9341,2.9822,3.0482,3.1415,3.2007,3.21,3.2021,3.207,3.2119,3.1982,3.1709,3.1611,3.1514,3.1201,3.0976,3.0976,3.0918,3.0957,3.1016,3.1035,3.1035,3.1025,3.0918,3.0898,3.0908,3.0947,3.0996,3.0976,3.0928,3.0898,3.0898,3.0908,3.0986,3.1045,3.1103,3.1133,3.1113,3.1435,3.1582,3.1641,3.1924,3.2168,3.206,3.2021,3.208,3.2217,3.2236,3.2295,3.2441,3.2676,3.2832,3.2851,3.2832,3.2322,3.151,3.1397,3.1435,3.1211,3.1162,3.1035,3.1045,3.1035,3.1055,3.121,3.1289,3.1328,3.1328,3.1348,3.1161,3.0936,3.1044,3.1123,3.1113,3.0986,3.0897,3.0926,3.1289,3.1309,3.124,3.1172,3.1016,3.0957,3.0937,3.0966,3.0957,3.1005,3.126,3.1357,3.1475,3.1738,3.1982,3.175,3.1745,3.3418,3.3292,3.1963,3.1304,3.1176,2.9874,2.9352,2.9483,2.9352,2.9613,2.9744,3.078,3.0651,2.9483,3.0651,2.9726,2.7089,2.6831,2.5644,2.4324,2.5517,2.6917,2.8362,2.9441,3.004,3.0754,3.1661,3.2187,3.2207,3.2266,3.2187,3.2187,3.2139,3.2021,3.1973,3.1611,3.1387,3.1328,3.1094,3.1123,3.1357,3.1387,3.1387,3.1357,3.1113,3.0928,3.0976,3.1201,3.1367,3.1309,3.1113,3.0996,3.1035,3.124,3.1377,3.1445,3.1689,3.1855,3.1904,3.1934,3.2031,3.2041,3.2168,3.2168,3.2168,3.2217,3.2363,3.2559,3.2666,3.2783,3.3018,3.3203,3.3242,3.3232,3.3232,3.3203,3.2863,3.2319,3.2234,3.2485,3.2196,3.1943,3.1939,3.1865,3.1816,3.1566,3.1686,3.1855,3.1826,3.1768,3.154,3.1275,3.1443,3.1582,3.1731,3.1582,3.1404,3.1394,3.1601,3.1919,3.1731,3.1416,3.1161,3.1013,3.0924,3.0953,3.1377,3.1482,3.1797,3.1836,3.1875,3.2119,3.2334,3.2176,3.2179,3.2218,3.1963,3.0254,2.9605,2.9466,2.8567,2.8172,2.8172,2.8172,2.8172,2.8435,2.9213,2.9083,2.8295,2.9083,2.8023,2.5771,2.4588,2.3795,2.3529,2.4723,2.6046,2.723,2.9293,3.061,3.1327,3.2248,3.2754,3.2754,3.2734,3.2803,3.2725,3.2568,3.2471,3.2402,3.2041,3.1836,3.1797,3.1631,3.1611,3.1787,3.1826,3.1826,3.1807,3.1611,3.1484,3.1543,3.1699,3.1807,3.1768,3.1611,3.1484,3.1504,3.1689,3.1807,3.1875,3.2002,3.2168,3.2168,3.2344,3.2461,3.2461,3.2627,3.2734,3.2754,3.2754,3.2832,3.3027,3.3105,3.3203,3.3389,3.3408,3.3418,3.3418,3.3418,3.3418,3.331,3.2851,3.2735,3.3052,3.2641,3.2529,3.2568,3.2485,3.2558,3.2411,3.192,3.208,3.2041,3.1992,3.2012,3.1832,3.191,3.2221,3.2401,3.2361,3.2002,3.1992,3.2123,3.2453,3.2593,3.2086,3.1453,3.1252,3.119,3.1868,3.2206,3.2332,3.2275,3.2275,3.2344,3.2519,3.2695,3.2766,3.2873,3.0642,3.0245,2.8558,2.7776,2.7776,2.737,2.7113,2.7246,2.7379,2.6972,2.7503,2.7635,2.7503,2.7379,2.7635,2.6706,2.5121,2.3788,2.2996,2.3126,2.4196,2.5517,2.6698,2.8918,3.1258,3.3155,3.333,3.333,3.334,3.3408,3.3252,3.331,3.3076,3.29,3.2803,3.25,3.2266,3.2246,3.2109,3.2139,3.2236,3.2266,3.2266,3.2246,3.21,3.2041,3.206,3.2168,3.2256,3.2275,3.2324,3.2353,3.2353,3.2275,3.2266,3.2275,3.2383,3.249,3.2559,3.2715,3.2756,3.2642,3.2768,3.2835,3.2825,3.2777,3.2913,3.3204,3.3369,3.3369,3.3418,3.3418,3.3418,3.3418,3.3418,3.3418,3.335,3.3096,3.3093,3.3188,3.3031,3.2838,3.2913,3.2913,3.3089,3.3142,3.2647,3.2324,3.2305,3.2344,3.2432,3.2396,3.2627,3.2666,3.2838,3.2942,3.2578,3.251,3.2735,3.2907,3.3231,3.2765,3.2182,3.1716,3.1735,3.2309,3.2841,3.2976,3.2848,3.2838,3.2783,3.293,3.3144,3.3379,3.3379,2.9986,2.8427,2.6706,2.5912,2.5778,2.446,2.3931,2.3795,2.406,2.3795,2.406,2.5248,2.5121,2.4588,2.5383,2.4844,2.3659,2.2996,2.2866,2.2996,2.3659,2.4858,2.7511,2.8689,3.0669,3.2629,3.3418,3.3418,3.3418,3.3418,3.3418,3.3408,3.333,3.3271,3.3154,3.293,3.2695,3.2656,3.2461,3.2441,3.2627,3.2685,3.2695,3.2666,3.2451,3.2305,3.2324,3.2519,3.2685,3.2725,3.3027,3.3154,3.3066,3.2832,3.2705,3.2744,3.2939,3.3047,3.3096,3.3078,3.2505,3.1615,3.1267,3.1295,3.1166,3.1295,3.1835,3.2883,3.3155,3.3292,3.3418,3.3418,3.3418,3.3418,3.3418,3.3418,3.3389,3.333,3.3262,3.3368,3.3184,3.3125,3.3162,3.3123,3.3247,3.3227,3.3064,3.291,3.293,3.2988,3.3096,3.3174,3.3262,3.3271,3.3291,3.3232,3.3164,3.3086,3.3057,3.3057,3.326,3.3358,3.298,3.2306,3.2161,3.2581,3.3025,3.3336,3.325,3.3086,3.3203,3.332,3.3369,3.3418,3.3418,2.7619,2.6573,2.4851,2.4196,2.4053,2.3263,2.2866,2.2866,2.2866,2.2866,2.3126,2.3795,2.3795,2.3263,2.3659,2.3659,2.3126,2.2866,2.2866,2.2996,2.3924,2.5525,2.8172,2.8952,3.1047,3.2765,3.3418,3.3418,3.3418,3.3418,3.3418,3.3418,3.3418,3.3418,3.3389,3.3232,3.3115,3.3047,3.292,3.2881,3.3086,3.3105,3.3105,3.3037,3.2939,3.2832,3.2851,3.2969,3.3115,3.3154,3.3301,3.3398,3.335,3.3126,3.3105,3.3019,3.3301,3.3418,3.3155,3.2756,3.1551,3.09,2.9995,2.9474,2.9474,2.9605,3.0254,3.157,3.21,3.2492,3.3292,3.3418,3.3418,3.3418,3.3418,3.3418,3.3418,3.3418,3.3418,3.3418,3.334,3.3291,3.334,3.333,3.3389,3.3418,3.3418,3.3418,3.3418,3.3418,3.3418,3.3282,3.3272,3.299,3.2746,3.2619,3.2317,3.2445,3.2756,3.2756,3.2746,3.2336,3.2696,3.2912,3.2835,3.2342,3.3058,3.3407,3.3369,3.3418,3.3389,3.3369,3.3398,3.3418,3.3418,2.5248,2.4851,2.3529,2.2866,2.2866,2.2866,2.2866,2.2866,2.2866,2.2866,2.2866,2.2996,2.2996,2.2866,2.2859,2.2859,2.2866,2.2866,2.2866,2.3126,2.406,2.592,2.8163,2.9605,3.1176,3.3029,3.3418,3.3418,3.3418,3.3418,3.3418,3.3418,3.3418,3.3418,3.3398,3.3369,3.3418,3.3418,3.3418,3.3418,3.3418,3.3418,3.3418,3.3418,3.3418,3.3369,3.332,3.334,3.3359,3.3369,3.3398,3.3418,3.3292,3.3029,3.2892,3.2892,3.3165,3.3282,3.2492,3.1826,3.0642,2.9196,2.8287,2.7908,2.79,2.8147,2.8753,3.0236,3.0909,3.1698,3.3029,3.3418,3.3418,3.3418,3.3418,3.3418,3.3418,3.3418,3.3418,3.3418,3.3418,3.3418,3.3418,3.3418,3.3418,3.3418,3.3418,3.3418,3.3418,3.3418,3.3292,3.3165,3.3019,3.2464,3.2063,3.1433,3.0837,3.0241,3.0726,3.1056,3.1047,3.0909,3.1258,3.1303,3.1534,3.1084,3.2218,3.3282,3.3418,3.3418,3.3418,3.3418,3.3418,3.3418,3.3418,2.4588,2.327,2.2996,2.2866,2.2866,2.2866,2.2866,2.2866,2.2866,2.2866,2.2866,2.2866,2.2866,2.2866,2.2866,2.2866,2.2866,2.2866,2.2866,2.2996,2.34,2.5256,2.7768,2.8303,3.066,3.2892,3.3418,3.3418,3.3418,3.3418,3.3418,3.3418,3.3418,3.3418,3.3418,3.3418,3.3418,3.3418,3.3418,3.3418,3.3418,3.3418,3.3418,3.3418,3.3418,3.3418,3.3282,3.3282,3.3155,3.3155,3.3282,3.3292,3.3155,3.1835,3.1304,3.157,3.2228,3.2756,3.1304,3.0375,2.9188,2.7354,2.6039,2.6084,2.6211,2.6503,2.749,3.0504,3.0642,3.1304,3.2629,3.3282,3.3418,3.3418,3.3418,3.3418,3.3418,3.3418,3.3418,3.3418,3.3418,3.3418,3.3418,3.3418,3.3418,3.3418,3.3418,3.3418,3.3418,3.3418,3.2387,3.1959,3.1907,3.1505,3.0882,3.0375,2.9812,2.8652,2.898,2.9613,2.9474,2.9327,2.8335,2.8368,2.8909,2.9605,3.0384,3.1433,3.2756,3.3155,3.2765,3.3029,3.3428,3.3292,3.3019,2.3529,2.2866,2.2866,2.2866,2.2866,2.2866,2.2866,2.2866,2.2866,2.2866,2.2866,2.2866,2.2866,2.2866,2.2866,2.2866,2.2866,2.2866,2.2866,2.2866,2.3126,2.4858,2.7503,2.8435,3.0004,3.2629,3.3418,3.3418,3.3418,3.3418,3.3418,3.3418,3.3418,3.3418,3.3418,3.3418,3.3418,3.3418,3.3418,3.3418,3.3418,3.3418,3.3418,3.3418,3.3282,3.3282,3.3019,3.2355,3.1973,3.1835,3.1707,3.1056,3.066,3.0263,3.0133,2.9344,2.9874,3.0004,2.9344,2.841,2.7089,2.5778,2.4723,2.421,2.4345,2.4552,2.5405,2.7479,2.8812,3.0125,3.1707,3.2883,3.3282,3.3418,3.3282,3.3418,3.3418,3.3418,3.3418,3.3418,3.3418,3.3418,3.3418,3.3418,3.3418,3.3418,3.3428,3.3437,3.3428,3.3418,3.1941,3.0063,3.017,3.0148,2.9553,2.8943,2.8812,2.8089,2.8089,2.8427,2.8163,2.7743,2.6636,2.6244,2.6839,2.7643,2.8279,2.9856,3.1442,3.1835,3.1973,3.2019,3.2057,3.1854,3.1726,2.2645,2.2652,2.2799,2.2866,2.2866,2.2866,2.2866,2.2866,2.2866,2.2866,2.2866,2.2866,2.2866,2.2866,2.2866,2.2866,2.2866,2.2866,2.2866,2.2866,2.3263,2.4986,2.7246,2.8435,3.0004,3.3418,3.3418,3.3418,3.3418,3.3418,3.3418,3.3418,3.3418,3.3418,3.3418,3.3418,3.3418,3.3418,3.3418,3.3418,3.3418,3.3418,3.3029,3.2892,3.2756,3.2502,3.1973,3.0918,3.0254,3.0133,2.9874,2.9352,2.8829,2.8558,2.8287,2.7503,2.737,2.6839,2.6573,2.6172,2.5375,2.4588,2.3924,2.3133,2.3133,2.2996,2.3659,2.5778,2.6706,2.8287,2.9995,3.1698,3.219,3.2591,3.2873,3.3146,3.3437,3.336,3.334,3.3418,3.3418,3.3418,3.3418,3.3418,3.3418,3.3418,3.3428,3.3321,3.3233,3.3125,3.124,2.9241,2.8391,2.8377,2.8023,2.7535,2.7395,2.7113,2.7238,2.6839,2.6314,2.5793,2.4971,2.5001,2.5285,2.5135,2.5502,2.7883,3.0125,2.9735,2.9492,3.0266,3.0423,3.0204,3.0142,2.2044,2.2091,2.2632,2.2839,2.2853,2.2866,2.2866,2.2866,2.2866,2.2866,2.2866,2.2866,2.2866,2.2866,2.2866,2.2866,2.2866,2.2866,2.2866,2.2866,2.3263,2.5128,2.7113,2.8698,3.0004,3.2892,3.3418,3.3418,3.3418,3.3418,3.3418,3.3418,3.3418,3.3418,3.3418,3.3418,3.3418,3.3418,3.3418,3.3418,3.3292,3.3155,3.2492,3.1433,3.0909,3.0263,2.8698,2.8558,2.8418,2.8295,2.79,2.7768,2.7113,2.6581,2.5912,2.5651,2.4723,2.4331,2.406,2.4723,2.4588,2.3659,2.2996,2.2866,2.2866,2.2866,2.3795,2.4986,2.5778,2.6714,2.8287,2.9726,3.0606,3.0864,3.1579,3.2644,3.2947,3.3378,3.3339,3.334,3.3019,3.2237,3.21,3.1845,3.2355,3.2483,3.2019,3.191,3.2658,3.2429,3.0508,2.8541,2.7105,2.6494,2.6264,2.5861,2.5143,2.4858,2.4858,2.4324,2.3795,2.34,2.3802,2.3672,2.3802,2.3263,2.3256,2.5905,2.7495,2.6972,2.7137,2.8254,2.8552,2.8097,2.818,2.1984,2.2011,2.2238,2.2425,2.2605,2.2792,2.2866,2.2866,2.2866,2.2866,2.2866,2.2866,2.2866,2.2866,2.2866,2.2866,2.2866,2.2866,2.2866,2.2866,2.3263,2.5128,2.7113,2.8698,3.0012,3.2756,3.3418,3.3418,3.3418,3.3418,3.3418,3.3418,3.3418,3.3418,3.3418,3.3418,3.3418,3.3418,3.3418,3.3418,3.3155,3.2228,3.1433,3.09,2.9474,2.8952,2.8172,2.7113,2.6706,2.6314,2.5659,2.539,2.539,2.446,2.4196,2.406,2.3263,2.2996,2.2866,2.3529,2.3529,2.3263,2.2859,2.2866,2.2866,2.2866,2.3133,2.3924,2.4844,2.5778,2.6439,2.8023,2.9196,2.917,2.99,3.1377,3.181,3.1921,3.1267,3.0388,3.0192,2.9874,2.9874,3.0004,3.078,3.1433,3.0963,3.0665,3.1411,3.1055,2.8973,2.7081,2.5487,2.4873,2.4631,2.3816,2.2859,2.2866,2.2866,2.2866,2.2866,2.2859,2.3133,2.2859,2.2866,2.2859,2.3393,2.446,2.4986,2.4858,2.5525,2.673,2.6612,2.61,2.6211,2.1724,2.1737,2.1817,2.2024,2.2298,2.2512,2.2652,2.2726,2.2726,2.2792,2.2859,2.2866,2.2866,2.2866,2.2866,2.2866,2.2866,2.2866,2.2866,2.2866,2.3263,2.5128,2.7113,2.8698,3.0004,3.2629,3.3418,3.3418,3.3418,3.3418,3.3418,3.3418,3.3418,3.3418,3.3418,3.3418,3.3418,3.3418,3.2892,3.2629,3.2355,3.0918,2.9457,2.9065,2.7892,2.6972,2.618,2.5256,2.4858,2.446,2.3795,2.3133,2.2996,2.2866,2.2866,2.2866,2.2866,2.2866,2.2866,2.2866,2.2866,2.2866,2.2866,2.2866,2.2866,2.2866,2.2996,2.3133,2.4053,2.4716,2.4851,2.6306,2.6737,2.655,2.8254,2.9569,2.91,2.8918,2.7998,2.7074,2.731,2.8081,2.8295,2.8427,2.8681,2.9466,2.9631,2.9507,2.9906,2.9184,2.7059,2.5196,2.3656,2.3175,2.2963,2.2846,2.2866,2.2866,2.2866,2.2866,2.2866,2.2866,2.2866,2.2866,2.2866,2.2866,2.3263,2.3931,2.3665,2.3133,2.406,2.5128,2.4865,2.4481,2.4338,2.1149,2.1162,2.145,2.1724,2.1964,2.2011,2.2198,2.2465,2.2505,2.2639,2.2853,2.2866,2.2866,2.2866,2.2866,2.2866,2.2866,2.2866,2.2866,2.2866,2.2996,2.5121,2.6972,2.8427,2.9744,3.2502,3.3418,3.3418,3.3418,3.3418,3.3418,3.3418,3.3418,3.3418,3.3418,3.3418,3.3418,3.3155,3.1835,3.1304,3.078,2.9344,2.7627,2.6698,2.5912,2.4986,2.4188,2.3795,2.3529,2.3263,2.3263,2.2866,2.2866,2.2866,2.2866,2.2866,2.2866,2.2866,2.2866,2.2866,2.2866,2.2866,2.2866,2.2866,2.2866,2.2866,2.2866,2.2996,2.3263,2.3263,2.3659,2.431,2.4324,2.4832,2.6534,2.7089,2.6503,2.6346,2.5604,2.5167,2.5942,2.6635,2.6893,2.6972,2.6839,2.737,2.804,2.8329,2.8292,2.7288,2.5165,2.4296,2.2882,2.2916,2.2846,2.2853,2.2866,2.2866,2.2866,2.2866,2.2866,2.2866,2.2866,2.2866,2.2866,2.2866,2.2866,2.2996,2.2866,2.2866,2.2866,2.34,2.3126,2.3126,2.3263,2.1102,2.1116,2.1216,2.1316,2.1483,2.2038,2.2331,2.2445,2.2619,2.2772,2.2839,2.2866,2.2866,2.2866,2.2866,2.2866,2.2866,2.2866,2.2866,2.2866,2.2866,2.4324,2.618,2.79,2.9483,3.1442,3.2492,3.3418,3.3418,3.3418,3.3418,3.3418,3.3418,3.3418,3.3418,3.3418,3.3418,3.3155,3.1835,3.078,3.0384,2.8023,2.6046,2.5383,2.4452,2.3522,2.2996,2.2859,2.2866,2.2866,2.2866,2.2866,2.2866,2.2866,2.2866,2.2866,2.2866,2.2866,2.2866,2.2866,2.2866,2.2866,2.2866,2.2866,2.2866,2.2866,2.2866,2.2866,2.2866,2.2866,2.3263,2.3393,2.3331,2.3331,2.4317,2.4174,2.401,2.4017,2.3718,2.3582,2.4111,2.4367,2.4566,2.5121,2.5256,2.4993,2.5525,2.539,2.5283,2.4868,2.3529,2.3536,2.2832,2.2846,2.2866,2.2866,2.2866,2.2866,2.2866,2.2866,2.2866,2.2866,2.2866,2.2866,2.2866,2.2866,2.2866,2.2866,2.2866,2.2866,2.2866,2.2866,2.2996,2.2996,2.2996,2.1102,2.1102,2.1102,2.1102,2.1216,2.1837,2.2211,2.2438,2.2726,2.2866,2.2866,2.2866,2.2866,2.2866,2.2866,2.2866,2.2866,2.2866,2.2866,2.2866,2.2866,2.406,2.5651,2.737,2.9213,3.078,3.2355,3.3418,3.3418,3.3418,3.3418,3.3418,3.3292,3.3418,3.3418,3.3418,3.3019,3.2228,3.0651,2.9335,2.8147,2.6306,2.4588,2.4188,2.3659,2.2866,2.2866,2.2866,2.2866,2.2866,2.2866,2.2866,2.2866,2.2866,2.2866,2.2866,2.2866,2.2866,2.2866,2.2866,2.2866,2.2866,2.2866,2.2866,2.2866,2.2866,2.2866,2.2866,2.2866,2.2866,2.2866,2.2866,2.2859,2.2859,2.2989,2.2976,2.2976,2.3113,2.3113,2.2983,2.2853,2.2859,2.2866,2.2996,2.3529,2.3263,2.2996,2.2866,2.2866,2.2866,2.2866,2.2866,2.2866,2.2866,2.2866,2.2866,2.2866,2.2866,2.2866,2.2866,2.2866,2.2866,2.2866,2.2866,2.2866,2.2866,2.2866,2.2866,2.2866,2.2866,2.2866,2.2866,2.2866,2.2866,2.2866,2.1102,2.1102,2.1102,2.1102,2.1162,2.1483,2.1904,2.2412,2.2706,2.2826,2.2832,2.2839,2.2866,2.2866,2.2866,2.2866,2.2866,2.2866,2.2866,2.2866,2.2866,2.406,2.5383,2.7238,2.8821,3.0651,3.2228,3.3418,3.3418,3.2892,3.2892,3.3019,3.2502,3.2619,3.2629,3.2365,3.1973,3.0918,2.9205,2.7751,2.6306,2.446,2.3529,2.3263,2.2996,2.2866,2.2866,2.2866,2.2866,2.2866,2.2866,2.2866,2.2866,2.2866,2.2866,2.2866,2.2866,2.2866,2.2866,2.2866,2.2866,2.2866,2.2866,2.2866,2.2866,2.2866,2.2866,2.2866,2.2866,2.2866,2.2866,2.2866,2.2866,2.2859,2.2859,2.2859,2.2859,2.2996,2.2996,2.2859,2.2859,2.2866,2.2866,2.2866,2.2866,2.2866,2.2866,2.2866,2.2866,2.2866,2.2866,2.2866,2.2866,2.2866,2.2866,2.2866,2.2866,2.2866,2.2866,2.2866,2.2866,2.2866,2.2866,2.2866,2.2866,2.2866,2.2866,2.2866,2.2866,2.2866,2.2866,2.2866,2.2866,2.2866,2.2866,2.1102,2.1102,2.1102,2.1102,2.1149,2.1423,2.177,2.2131,2.2418,2.2545,2.2552,2.2772,2.2859,2.2866,2.2866,2.2866,2.2866,2.2866,2.2866,2.2866,2.2866,2.3263,2.4588,2.6581,2.8163,2.9874,3.1579,3.3418,3.3029,3.2492,3.1698,3.1433,3.066,3.078,3.078,3.0401,3.0254,2.9726,2.7751,2.6306,2.5248,2.3659,2.3133,2.2866,2.2866,2.2866,2.2866,2.2866,2.2866,2.2866,2.2866,2.2866,2.2866,2.2866,2.2866,2.2866,2.2866,2.2866,2.2866,2.2866,2.2866,2.2866,2.2866,2.2866,2.2866,2.2866,2.2866,2.2866,2.2866,2.2866,2.2866,2.2866,2.2866,2.2866,2.2866,2.2866,2.2866,2.2866,2.2866,2.2866,2.2866,2.2866,2.2866,2.2866,2.2866,2.2866,2.2866,2.2866,2.2866,2.2866,2.2866,2.2866,2.2866,2.2866,2.2866,2.2866,2.2866,2.2866,2.2866,2.2866,2.2866,2.2866,2.2866,2.2866,2.2866,2.2866,2.2866,2.2866,2.2866,2.2866,2.2866,2.2866,2.2866,2.2866,2.2866,2.1102,2.1102,2.1102,2.1102,2.1136,2.1303,2.1483,2.171,2.2184,2.2412,2.2452,2.2739,2.2866,2.2866,2.2866,2.2866,2.2866,2.2866,2.2866,2.2866,2.2866,2.2996,2.406,2.618,2.7908,2.9483,3.1185,3.3418,3.2756,3.1698,3.0771,2.9735,2.8427,2.8952,2.9083,2.8287,2.7892,2.7487,2.6698,2.5383,2.4324,2.3529,2.3133,2.2866,2.2866,2.2866,2.2866,2.2866,2.2866,2.2866,2.2866,2.2866,2.2866,2.2866,2.2866,2.2866,2.2866,2.2866,2.2866,2.2866,2.2866,2.2866,2.2866,2.2866,2.2866,2.2866,2.2866,2.2866,2.2866,2.2866,2.2866,2.2866,2.2866,2.2866,2.2866,2.2866,2.2866,2.2866,2.2866,2.2866,2.2866,2.2866,2.2866,2.2866,2.2866,2.2866,2.2866,2.2866,2.2866,2.2866,2.2866,2.2866,2.2866,2.2866,2.2866,2.2866,2.2866,2.2866,2.2866,2.2866,2.2866,2.2866,2.2866,2.2866,2.2866,2.2866,2.2866,2.2866,2.2866,2.2866,2.2866,2.2866,2.2866,2.2866,2.2866,2.1102,2.1102,2.1102,2.1102,2.1102,2.1122,2.1136,2.1196,2.1964,2.2352,2.2412,2.2679,2.2819,2.2846,2.2866,2.2866,2.2866,2.2866,2.2866,2.2866,2.2866,2.2866,2.3931,2.6046,2.7238,2.8952,3.0401,3.1707,3.1826,3.0513,2.8812,2.8032,2.7503,2.7503,2.7503,2.618,2.5644,2.551,2.5248,2.446,2.3529,2.2996,2.2866,2.2866,2.2866,2.2866,2.2866,2.2866,2.2866,2.2866,2.2866,2.2866,2.2866,2.2866,2.2866,2.2866,2.2866,2.2866,2.2866,2.2866,2.2866,2.2866,2.2866,2.2866,2.2866,2.2866,2.2866,2.2866,2.2866,2.2866,2.2866,2.2866,2.2866,2.2866,2.2866,2.2866,2.2866,2.2866,2.2866,2.2866,2.2866,2.2866,2.2866,2.2866,2.2866,2.2866,2.2866,2.2866,2.2866,2.2866,2.2866,2.2866,2.2866,2.2866,2.2866,2.2866,2.2866,2.2866,2.2866,2.2866,2.2866,2.2866,2.2866,2.2866,2.2866,2.2866,2.2866,2.2866,2.2866,2.2866,2.2866,2.2866,2.2866,2.2866,2.2866,2.1102,2.1102,2.1102,2.1102,2.1102,2.1102,2.1102,2.1142,2.155,2.1891,2.2118,2.2398,2.2672,2.2846,2.2859,2.2866,2.2866,2.2866,2.2866,2.2866,2.2866,2.2866,2.3263,2.5248,2.6172,2.6831,2.8023,2.9213,2.8279,2.7354,2.6698,2.6046,2.5383,2.5121,2.6046,2.4452,2.3795,2.3788,2.3795,2.3659,2.3133,2.2866,2.2866,2.2866,2.2866,2.2866,2.2866,2.2866,2.2866,2.2866,2.2866,2.2866,2.2866,2.2866,2.2866,2.2866,2.2866,2.2866,2.2866,2.2866,2.2866,2.2866,2.2866,2.2866,2.2866,2.2866,2.2866,2.2866,2.2866,2.2866,2.2866,2.2866,2.2866,2.2866,2.2866,2.2866,2.2866,2.2866,2.2866,2.2866,2.2866,2.2866,2.2866,2.2866,2.2866,2.2866,2.2866,2.2866,2.2866,2.2866,2.2866,2.2866,2.2866,2.2866,2.2866,2.2866,2.2866,2.2866,2.2866,2.2866,2.2866,2.2866,2.2866,2.2866,2.2866,2.2866,2.2866,2.2866,2.2866,2.2866,2.2866,2.2866,2.2866,2.2866,2.2866,2.1102,2.1102,2.1102,2.1102,2.1102,2.1102,2.1102,2.1136,2.1283,2.1516,2.1844,2.2225,2.2585,2.2826,2.2859,2.2866,2.2866,2.2866,2.2866,2.2866,2.2866,2.2866,2.3659,2.4581,2.5375,2.6039,2.7238,2.7503,2.5644,2.551,2.551,2.4452,2.3393,2.3393,2.4324,2.34,2.2866,2.2996,2.2866,2.2866,2.2866,2.2866,2.2866,2.2866,2.2866,2.2866,2.2866,2.2866,2.2866,2.2866,2.2866,2.2866,2.2866,2.2866,2.2866,2.2866,2.2866,2.2866,2.2866,2.2866,2.2866,2.2866,2.2866,2.2866,2.2866,2.2866,2.2866,2.2866,2.2866,2.2866,2.2866,2.2866,2.2866,2.2866,2.2866,2.2866,2.2866,2.2866,2.2866,2.2866,2.2866,2.2866,2.2866,2.2866,2.2866,2.2866,2.2866,2.2866,2.2866,2.2866,2.2866,2.2866,2.2866,2.2866,2.2866,2.2866,2.2866,2.2866,2.2866,2.2866,2.2866,2.2866,2.2866,2.2866,2.2866,2.2866,2.2866,2.2866,2.2866,2.2866,2.2866,2.2866,2.2866,2.2866,2.2866,2.1102,2.1102,2.1102,2.1102,2.1102,2.1102,2.1102,2.1109,2.1116,2.1289,2.1617,2.2124,2.2512,2.2726,2.2859,2.2866,2.2866,2.2866,2.2866,2.2866,2.2866,2.2866,2.3393,2.4324,2.4588,2.5248,2.618,2.5912,2.4851,2.4716,2.4188,2.3133,2.2866,2.2859,2.2866,2.2866,2.2866,2.2866,2.2866,2.2866,2.2866,2.2866,2.2866,2.2866,2.2866,2.2866,2.2866,2.2866,2.2866,2.2866,2.2866,2.2866,2.2866,2.2866,2.2866,2.2866,2.2866,2.2866,2.2866,2.2866,2.2866,2.2866,2.2866,2.2866,2.2866,2.2866,2.2866,2.2866,2.2866,2.2866,2.2866,2.2866,2.2866,2.2866,2.2866,2.2866,2.2866,2.2866,2.2866,2.2866,2.2866,2.2866,2.2866,2.2866,2.2866,2.2866,2.2866,2.2866,2.2866,2.2866,2.2866,2.2866,2.2866,2.2866,2.2866,2.2866,2.2866,2.2866,2.2866,2.2866,2.2866,2.2866,2.2866,2.2866,2.2866,2.2866,2.2866,2.2866,2.2866,2.2866,2.2866,2.2866,2.2866,2.2866,2.2866,2.1102,2.1102,2.1102,2.1102,2.1102,2.1102,2.1102,2.1102,2.1109,2.1276,2.1563,2.1884,2.2231,2.2519,2.2779,2.2859,2.2866,2.2866,2.2866,2.2866,2.2866,2.2866,2.2996,2.3529,2.34,2.3795,2.4188,2.3659,2.3931,2.3659,2.3393,2.2859,2.2866,2.2866,2.2866,2.2866,2.2866,2.2866,2.2866,2.2866,2.2866,2.2866,2.2866,2.2866,2.2866,2.2866,2.2866,2.2866,2.2866,2.2866,2.2866,2.2866,2.2866,2.2866,2.2866,2.2866,2.2866,2.2866,2.2866,2.2866,2.2866,2.2866,2.2866,2.2866,2.2866,2.2866,2.2866,2.2866,2.2866,2.2866,2.2866,2.2866,2.2866,2.2866,2.2866,2.2866,2.2866,2.2866,2.2866,2.2866,2.2866,2.2866,2.2866,2.2866,2.2866,2.2866,2.2866,2.2866,2.2866,2.2866,2.2866,2.2866,2.2866,2.2866,2.2866,2.2866,2.2866,2.2866,2.2866,2.2866,2.2866,2.2866,2.2866,2.2866,2.2866,2.2866,2.2866,2.2866,2.2866,2.2866,2.2866,2.2866,2.2866,2.2866,2.2866]}]]